[[{"header":{"parameterUnit":"m.s-1","parameterCategory":1,"la1":30.6,"la2":28.766,"lo1":-90.7593,"lo2":-88.6598,"dy":0.0162,"dx":0.0183,"nx":116,"ny":114,"refTime":"2023-09-02T12:00:00:Z","depth":0,"parameterNumber":2,"parameterNumberName":"U-component_of_WINDS"},"data":[0.0,0.0,0.0,0.0,0.0,0.0,0.0,0.0,0.0,0.0,0.0,0.0,0.0,0.0,0.0,0.0,0.0,0.0,0.0,0.0,0.0,0.0,0.0,0.0,0.0,0.0,0.0,0.0,0.0,0.0,0.0,0.0,0.0,0.0,0.0,0.0,0.0,0.0,0.0,0.0,0.0,0.0,0.0,0.0,0.0,0.0,0.0,0.0,0.0,0.0,0.0,0.0,0.0,0.0,0.0,0.0,0.0,0.0,0.0,0.0,0.0,0.0,0.0,0.0,0.0,0.0,0.0,0.0,0.0,0.0,0.0,0.0,0.0,0.0,0.0,0.0,0.0,0.0,0.0,0.0,0.0,0.0,0.0,0.0,0.0,0.0,0.0,0.0,0.0,0.0,0.0,0.0,0.0,0.0,0.0,0.0,0.0,0.0,0.0,0.0,0.0,0.0,0.0,0.0,0.0,0.0,0.0,0.0,0.0,0.0,0.0,0.0,0.0,0.0,0.0,0.0,0.0,0.0,0.0,0.0,0.0,0.0,0.0,0.0,0.0,0.0,0.0,0.0,0.0,0.0,0.0,0.0,0.0,0.0,0.0,0.0,0.0,0.0,0.0,0.0,0.0,0.0,0.0,0.0,0.0,0.0,0.0,0.0,0.0,0.0,0.0,0.0,0.0,0.0,0.0,0.0,0.0,0.0,0.0,0.0,0.0,0.0,0.0,0.0,0.0,0.0,0.0,0.0,0.0,0.0,0.0,0.0,0.0,0.0,0.0,0.0,0.0,0.0,0.0,0.0,0.0,0.0,0.0,0.0,0.0,0.0,0.0,0.0,0.0,0.0,0.0,0.0,0.0,0.0,0.0,0.0,0.0,0.0,0.0,0.0,0.0,0.0,0.0,0.0,0.0,0.0,0.0,0.0,0.0,0.0,0.0,0.0,0.0,0.0,0.0,0.0,0.0,0.0,0.0,0.0,0.0,0.0,0.0,0.0,0.0,0.0,0.0,0.0,0.0,0.0,0.0,0.0,0.0,0.0,0.0,0.0,0.0,0.0,0.0,0.0,0.0,0.0,0.0,0.0,0.0,0.0,0.0,0.0,0.0,0.0,0.0,0.0,0.0,0.0,0.0,0.0,0.0,0.0,0.0,0.0,0.0,0.0,0.0,0.0,0.0,0.0,0.0,0.0,0.0,0.0,0.0,0.0,0.0,0.0,0.0,0.0,0.0,0.0,0.0,0.0,0.0,0.0,0.0,0.0,0.0,0.0,0.0,0.0,0.0,0.0,0.0,0.0,0.0,0.0,0.0,0.0,0.0,0.0,0.0,0.0,0.0,0.0,0.0,0.0,0.0,0.0,0.0,0.0,0.0,0.0,0.0,0.0,0.0,0.0,0.0,0.0,0.0,0.0,0.0,0.0,0.0,0.0,0.0,0.0,0.0,0.0,0.0,0.0,0.0,0.0,0.0,0.0,0.0,0.0,0.0,0.0,0.0,0.0,0.0,0.0,0.0,0.0,0.0,0.0,0.0,0.0,0.0,0.0,0.0,0.0,0.0,0.0,0.0,0.0,0.0,0.0,0.0,0.0,0.0,0.0,0.0,0.0,0.0,0.0,0.0,0.0,0.0,0.0,0.0,0.0,0.0,0.0,0.0,0.0,0.0,0.0,0.0,0.0,0.0,0.0,0.0,0.0,0.0,0.0,0.0,0.0,0.0,0.0,0.0,0.0,0.0,0.0,0.0,0.0,0.0,0.0,0.0,0.0,0.0,0.0,0.0,0.0,0.0,0.0,0.0,0.0,0.0,0.0,0.0,0.0,0.0,0.0,0.0,0.0,0.0,0.0,0.0,0.0,0.0,0.0,0.0,0.0,0.0,0.0,0.0,0.0,0.0,0.0,0.0,0.0,0.0,0.0,0.0,0.0,0.0,0.0,0.0,0.0,0.0,0.0,0.0,0.0,0.0,0.0,0.0,0.0,0.0,0.0,0.0,0.0,0.0,0.0,0.0,0.0,0.0,0.0,0.0,0.0,0.0,0.0,0.0,0.0,0.0,0.0,0.0,0.0,0.0,0.0,0.0,0.0,0.0,0.0,0.0,0.0,0.0,0.0,0.0,0.0,0.0,0.0,0.0,0.0,0.0,0.0,0.0,0.0,0.0,0.0,0.0,0.0,0.0,0.0,0.0,0.0,0.0,0.0,0.0,0.0,0.0,0.0,0.0,0.0,0.0,0.0,0.0,0.0,0.0,0.0,0.0,0.0,0.0,0.0,0.0,0.0,0.0,0.0,0.0,0.0,0.0,0.0,0.0,0.0,0.0,0.0,0.0,0.0,0.0,0.0,0.0,0.0,0.0,0.0,0.0,0.0,0.0,0.0,0.0,0.0,0.0,0.0,0.0,0.0,0.0,0.0,0.0,0.0,0.0,0.0,0.0,0.0,0.0,0.0,0.0,0.0,0.0,0.0,0.0,0.0,0.0,0.0,0.0,0.0,0.0,0.0,0.0,0.0,0.0,0.0,0.0,0.0,0.0,0.0,0.0,0.0,0.0,0.0,0.0,0.0,0.0,0.0,0.0,0.0,0.0,0.0,0.0,0.0,0.0,0.0,0.0,0.0,0.0,0.0,0.0,0.0,0.0,0.0,0.0,0.0,0.0,0.0,0.0,0.0,0.0,0.0,0.0,0.0,0.0,0.0,0.0,0.0,0.0,0.0,0.0,0.0,0.0,0.0,0.0,0.0,0.0,0.0,0.0,0.0,0.0,0.0,0.0,0.0,0.0,0.0,0.0,0.0,0.0,0.0,0.0,0.0,0.0,0.0,0.0,0.0,0.0,0.0,0.0,0.0,0.0,0.0,0.0,0.0,0.0,0.0,0.0,0.0,0.0,0.0,0.0,0.0,0.0,0.0,0.0,0.0,0.0,0.0,0.0,0.0,0.0,0.0,0.0,0.0,0.0,0.0,0.0,0.0,0.0,0.0,0.0,0.0,0.0,0.0,0.0,0.0,0.0,0.0,0.0,0.0,0.0,0.0,0.0,0.0,0.0,0.0,0.0,0.0,0.0,0.0,0.0,0.0,0.0,0.0,0.0,0.0,0.0,0.0,0.0,0.0,0.0,0.0,0.0,0.0,0.0,0.0,0.0,0.0,0.0,0.0,0.0,0.0,0.0,0.0,0.0,0.0,0.0,0.0,0.0,0.0,0.0,0.0,0.0,0.0,0.0,0.0,0.0,0.0,0.0,0.0,0.0,0.0,0.0,0.0,0.0,0.0,0.0,0.0,0.0,0.0,0.0,0.0,0.0,0.0,0.0,0.0,0.0,0.0,0.0,0.0,0.0,0.0,0.0,0.0,0.0,0.0,0.0,0.0,0.0,0.0,0.0,0.0,0.0,0.0,0.0,0.0,0.0,0.0,0.0,0.0,0.0,0.0,0.0,0.0,0.0,0.0,0.0,0.0,0.0,0.0,0.0,0.0,0.0,0.0,0.0,0.0,0.0,0.0,0.0,0.0,0.0,0.0,0.0,0.0,0.0,0.0,0.0,0.0,0.0,0.0,0.0,0.0,0.0,0.0,0.0,0.0,0.0,0.0,0.0,0.0,0.0,0.0,0.0,0.0,0.0,0.0,0.0,0.0,0.0,0.0,0.0,0.0,0.0,0.0,0.0,0.0,0.0,0.0,0.0,0.0,0.0,0.0,0.0,0.0,0.0,0.0,0.0,0.0,0.0,0.0,0.0,0.0,0.0,0.0,0.0,0.0,0.0,0.0,0.0,0.0,0.0,0.0,0.0,0.0,0.0,0.0,0.0,0.0,0.0,0.0,0.0,0.0,0.0,0.0,0.0,0.0,0.0,0.0,0.0,0.0,0.0,0.0,0.0,0.0,0.0,0.0,0.0,0.0,0.0,0.0,0.0,0.0,0.0,0.0,0.0,0.0,0.0,0.0,0.0,0.0,0.0,0.0,0.0,0.0,0.0,0.0,0.0,0.0,0.0,0.0,0.0,0.0,0.0,0.0,0.0,0.0,0.0,0.0,0.0,0.0,0.0,0.0,0.0,0.0,0.0,0.0,0.0,0.0,0.0,0.0,0.0,0.0,0.0,0.0,0.0,0.0,0.0,0.0,0.0,0.0,0.0,0.0,0.0,0.0,0.0,0.0,0.0,0.0,0.0,0.0,0.0,0.0,0.0,0.0,0.0,0.0,0.0,0.0,0.0,0.0,0.0,0.0,0.0,0.0,0.0,0.0,0.0,0.0,0.0,0.0,0.0,0.0,0.0,0.0,0.0,0.0,0.0,0.0,0.0,0.0,0.0,0.0,0.0,0.0,0.0,0.0,0.0,0.0,0.0,0.0,0.0,0.0,0.0,0.0,0.0,0.0,0.0,0.0,0.0,0.0,0.0,0.0,0.0,0.0,0.0,0.0,0.0,0.0,0.0,0.0,0.0,0.0,0.0,0.0,0.0,0.0,0.0,0.0,0.0,0.0,0.0,0.0,0.0,0.0,0.0,0.0,0.0,0.0,0.0,0.0,0.0,0.0,0.0,0.0,0.0,0.0,0.0,0.0,0.0,0.0,0.0,0.0,0.0,0.0,0.0,0.0,0.0,0.0,0.0,0.0,0.0,0.0,0.0,0.0,0.0,0.0,0.0,0.0,0.0,0.0,0.0,0.0,0.0,0.0,0.0,0.0,0.0,0.0,0.0,0.0,0.0,0.0,0.0,0.0,0.0,0.0,0.0,0.0,0.0,0.0,0.0,0.0,0.0,0.0,0.0,0.0,0.0,0.0,0.0,0.0,0.0,0.0,0.0,0.0,0.0,0.0,0.0,0.0,0.0,0.0,0.0,0.0,0.0,0.0,0.0,0.0,0.0,0.0,0.0,0.0,0.0,0.0,0.0,0.0,0.0,0.0,0.0,0.0,0.0,0.0,0.0,0.0,0.0,0.0,0.0,0.0,0.0,0.0,0.0,0.0,0.0,0.0,0.0,0.0,0.0,0.0,0.0,0.0,0.0,0.0,0.0,0.0,0.0,0.0,0.0,0.0,0.0,0.0,0.0,0.0,0.0,0.0,0.0,0.0,0.0,0.0,0.0,0.0,0.0,0.0,0.0,0.0,0.0,0.0,0.0,0.0,0.0,0.0,0.0,0.0,0.0,0.0,0.0,0.0,0.0,0.0,0.0,0.0,0.0,0.0,0.0,0.0,0.0,0.0,0.0,0.0,0.0,0.0,0.0,0.0,0.0,0.0,0.0,0.0,0.0,0.0,0.0,0.0,0.0,0.0,0.0,0.0,0.0,0.0,0.0,0.0,0.0,0.0,0.0,0.0,0.0,0.0,0.0,0.0,0.0,0.0,0.0,0.0,0.0,0.0,0.0,0.0,0.0,0.0,0.0,0.0,0.0,0.0,0.0,0.0,0.0,0.0,0.0,0.0,0.0,0.0,0.0,0.0,0.0,0.0,0.0,0.0,0.0,0.0,0.0,0.0,0.0,0.0,0.0,0.0,0.0,0.0,0.0,0.0,0.0,0.0,0.0,0.0,0.0,0.0,0.0,0.0,0.0,0.0,0.0,0.0,0.0,0.0,0.0,0.0,0.0,0.0,0.0,0.0,0.0,0.0,0.0,0.0,0.0,0.0,0.0,0.0,0.0,0.0,0.0,0.0,0.0,0.0,0.0,0.0,0.0,0.0,0.0,0.0,0.0,0.0,0.0,0.0,0.0,0.0,0.0,0.0,0.0,0.0,0.0,0.0,0.0,0.0,0.0,0.0,0.0,0.0,0.0,0.0,0.0,0.0,0.0,0.0,0.0,0.0,0.0,0.0,0.0,0.0,0.0,0.0,0.0,0.0,0.0,0.0,0.0,0.0,0.0,0.0,0.0,0.0,0.0,0.0,0.0,0.0,0.0,0.0,0.0,0.0,0.0,0.0,0.0,0.0,0.0,0.0,0.0,0.0,0.0,0.0,0.0,0.0,0.0,0.0,0.0,0.0,0.0,0.0,0.0,0.0,0.0,0.0,0.0,0.0,0.0,0.0,0.0,0.0,0.0,0.0,0.0,0.0,0.0,0.0,0.0,0.0,0.0,0.0,0.0,0.0,0.0,0.0,0.0,0.0,-3.4142,-3.4093,0.0,0.0,0.0,0.0,0.0,0.0,0.0,0.0,0.0,0.0,0.0,0.0,0.0,0.0,0.0,0.0,0.0,0.0,0.0,0.0,0.0,0.0,0.0,0.0,0.0,0.0,0.0,0.0,0.0,0.0,0.0,0.0,0.0,0.0,0.0,0.0,0.0,0.0,-4.0809,-4.0796,-4.0776,-3.9876,-3.9472,-3.9494,0.0,0.0,0.0,0.0,0.0,0.0,0.0,0.0,0.0,0.0,0.0,0.0,0.0,0.0,0.0,0.0,0.0,0.0,0.0,0.0,0.0,0.0,0.0,0.0,0.0,0.0,0.0,0.0,0.0,0.0,0.0,0.0,0.0,0.0,0.0,0.0,0.0,0.0,0.0,0.0,0.0,0.0,0.0,0.0,0.0,0.0,0.0,0.0,0.0,0.0,0.0,0.0,0.0,0.0,0.0,0.0,0.0,0.0,0.0,0.0,0.0,0.0,0.0,0.0,0.0,0.0,0.0,0.0,0.0,0.0,-3.4393,-3.434,0.0,0.0,0.0,0.0,0.0,0.0,0.0,0.0,0.0,0.0,0.0,0.0,0.0,0.0,0.0,0.0,0.0,0.0,0.0,0.0,0.0,0.0,0.0,-3.7982,-3.713,-3.714,-3.7118,-3.7247,0.0,0.0,0.0,0.0,0.0,0.0,0.0,-4.0803,-4.0803,-4.0803,-4.0809,-4.0802,-4.08,-4.0815,-4.0807,-4.0768,-4.0168,0.0,0.0,0.0,0.0,0.0,0.0,0.0,0.0,0.0,0.0,0.0,0.0,0.0,0.0,0.0,0.0,0.0,0.0,0.0,0.0,0.0,0.0,0.0,0.0,0.0,0.0,0.0,0.0,0.0,0.0,0.0,0.0,0.0,0.0,0.0,0.0,0.0,0.0,0.0,0.0,0.0,0.0,0.0,0.0,0.0,0.0,0.0,0.0,0.0,0.0,0.0,0.0,0.0,0.0,0.0,0.0,0.0,0.0,0.0,0.0,0.0,0.0,0.0,-3.4439,-3.442,-3.442,-3.442,-3.4473,-3.4517,-3.4461,-3.4439,-3.4404,-3.4124,0.0,0.0,0.0,0.0,0.0,0.0,0.0,0.0,0.0,0.0,0.0,0.0,0.0,0.0,0.0,0.0,0.0,0.0,0.0,0.0,0.0,-3.7315,-3.7205,-3.7263,-3.721,-3.7804,-3.9256,0.0,0.0,0.0,0.0,0.0,-4.0794,-4.0788,-4.0788,-4.0788,-4.0804,-4.0804,-4.08,-4.0856,-4.0851,-4.0806,-4.0696,-4.0639,-4.065,0.0,0.0,0.0,0.0,0.0,0.0,0.0,0.0,0.0,0.0,0.0,0.0,0.0,0.0,0.0,0.0,0.0,0.0,0.0,0.0,0.0,0.0,0.0,0.0,0.0,0.0,0.0,0.0,0.0,0.0,0.0,0.0,0.0,0.0,0.0,0.0,0.0,0.0,0.0,0.0,0.0,-3.5673,-3.557,0.0,0.0,0.0,0.0,0.0,0.0,0.0,0.0,0.0,0.0,0.0,0.0,0.0,-3.4386,-3.4386,-3.4461,-3.4484,-3.4484,-3.4539,-3.4561,-3.4561,-3.4561,-3.4591,-3.4591,-3.4591,0.0,-3.4484,-3.445,0.0,0.0,0.0,0.0,0.0,0.0,0.0,0.0,0.0,0.0,0.0,0.0,0.0,0.0,0.0,0.0,0.0,0.0,0.0,0.0,0.0,-3.7214,-3.7207,-3.7237,-3.8089,-3.8912,-3.9658,-4.0137,0.0,0.0,0.0,-4.1562,-4.153,-4.1534,-4.1294,-4.0804,-4.0837,-4.0862,-4.0865,-4.0888,-4.0878,-4.0858,-4.0906,-4.0889,-4.0866,-4.0938,0.0,0.0,0.0,0.0,0.0,0.0,0.0,0.0,0.0,0.0,0.0,0.0,0.0,0.0,0.0,0.0,0.0,0.0,0.0,0.0,0.0,0.0,0.0,0.0,0.0,0.0,0.0,0.0,0.0,0.0,0.0,0.0,0.0,0.0,0.0,0.0,0.0,0.0,0.0,-3.5704,-3.5684,-3.5668,-3.5612,-3.5786,0.0,0.0,0.0,0.0,0.0,0.0,0.0,0.0,0.0,-3.4461,-3.4461,-3.4473,-3.4517,-3.4539,-3.455,-3.455,-3.5079,-3.5334,-3.5353,-3.5796,-3.5758,-3.5334,-3.5334,-3.5041,-3.455,-3.4517,-3.4397,-3.4281,0.0,0.0,0.0,0.0,-3.3671,-3.3528,0.0,0.0,0.0,0.0,0.0,0.0,0.0,0.0,0.0,0.0,0.0,0.0,-3.6972,-3.71,-3.7274,-3.748,-3.8834,-3.9779,-3.9994,-4.0818,-4.126,0.0,-4.206,-4.2481,-4.2431,-4.2216,-4.1787,-4.1167,-4.0974,-4.0902,-4.0902,-4.0893,-4.0883,-4.0874,-4.0933,-4.0967,-4.0922,-4.1002,-4.105,-4.1094,0.0,0.0,0.0,0.0,0.0,0.0,0.0,0.0,0.0,0.0,0.0,0.0,0.0,0.0,0.0,0.0,0.0,0.0,0.0,0.0,0.0,0.0,0.0,0.0,0.0,0.0,0.0,0.0,0.0,0.0,0.0,0.0,0.0,0.0,0.0,0.0,0.0,-3.6342,-3.6342,-3.6342,-3.6306,-3.6513,0.0,0.0,0.0,0.0,0.0,0.0,-3.5162,-3.5113,-3.512,-3.5166,-3.5232,-3.5235,-3.5251,-3.5297,-3.5297,-3.5251,-3.5897,-3.6216,-3.6235,-3.6828,-3.6772,-3.6216,-3.6216,-3.5841,-3.5202,-3.4708,-3.4528,-3.4517,-3.4473,-3.4328,-3.4161,-3.4161,-3.4005,-3.3826,0.0,0.0,0.0,0.0,0.0,0.0,0.0,0.0,0.0,0.0,0.0,-3.6951,-3.6071,-3.6704,-3.7519,-3.8274,-3.9112,-3.9965,-4.0796,-4.1601,-4.2067,-4.2135,-4.2916,-4.3338,-4.3333,-4.2516,-4.2108,-4.213,-4.129,-4.0902,-4.0902,-4.0893,-4.0864,-4.0818,-4.0874,-4.0941,-4.1,-4.1064,-4.1094,-4.1094,-4.11,0.0,0.0,0.0,0.0,0.0,0.0,0.0,0.0,0.0,0.0,0.0,0.0,0.0,0.0,0.0,0.0,0.0,0.0,0.0,0.0,0.0,0.0,0.0,0.0,0.0,0.0,0.0,0.0,0.0,0.0,0.0,0.0,0.0,0.0,0.0,0.0,0.0,0.0,-3.8077,-3.8077,0.0,0.0,0.0,0.0,-3.7836,-3.7598,-3.7375,-3.7169,-3.7032,-3.6967,-3.6967,-3.7154,-3.7165,-3.6979,-3.7154,-3.7154,-3.6979,-3.7016,-3.7035,-3.7035,-3.7091,-3.7073,-3.7035,-3.7035,-3.7016,-3.6847,-3.524,-3.4583,-3.4583,-3.4583,-3.4572,-3.4561,-3.4561,-3.455,-3.455,0.0,0.0,0.0,0.0,0.0,0.0,0.0,0.0,-3.8634,-3.7445,-3.6775,-3.6483,-3.6712,-3.7444,-3.8254,-3.9108,-3.9913,-4.0497,-4.0823,-4.1675,-4.2175,-4.2193,-4.3558,-4.4305,-4.4296,-4.3954,-4.3527,-4.3048,-4.2738,-4.2291,-4.1728,-4.1743,-4.1455,-4.0933,-4.0958,-4.099,-4.1061,-4.1044,-4.1054,-4.1102,-4.1094,-4.1109,0.0,0.0,0.0,0.0,0.0,0.0,0.0,0.0,0.0,0.0,0.0,0.0,0.0,0.0,0.0,0.0,0.0,0.0,0.0,0.0,0.0,0.0,0.0,0.0,0.0,0.0,0.0,0.0,0.0,0.0,0.0,0.0,0.0,0.0,0.0,0.0,0.0,-3.8193,-3.8193,0.0,-3.8972,-3.8528,-3.835,-3.8707,-3.8155,-3.7718,-3.7574,-3.7509,-3.75,-3.75,-3.7556,-3.7556,-3.75,-3.7432,-3.7361,-3.7297,-3.7687,-3.7868,-3.7887,-3.8444,-3.8406,-3.7868,-3.7868,-3.7568,-3.7054,-3.6453,-3.6209,-3.6209,-3.6209,-3.5889,-3.5446,-3.5446,-3.5071,-3.4612,0.0,0.0,0.0,0.0,0.0,0.0,0.0,0.0,-3.8167,-3.6986,-3.6308,-3.6247,-3.7077,-3.7898,-3.8705,-3.9524,-4.0358,-4.0966,-4.1281,-4.2163,-4.2792,-4.3105,-4.4483,-4.5239,-4.5239,-4.4884,-4.445,-4.3938,-4.3617,-4.317,-4.2636,-4.235,-4.1933,-4.1422,-4.1132,-4.1037,-4.1094,-4.1049,-4.1055,-4.1109,-4.1109,-4.1109,-4.1109,0.0,0.0,0.0,0.0,0.0,0.0,0.0,0.0,0.0,0.0,0.0,0.0,0.0,0.0,0.0,0.0,0.0,0.0,0.0,0.0,0.0,0.0,0.0,0.0,0.0,0.0,0.0,0.0,0.0,0.0,0.0,0.0,0.0,0.0,0.0,-3.9088,-3.9088,-3.9088,-3.9301,-3.9887,-3.9417,-3.9264,-3.9706,-3.9148,-3.8747,-3.8643,-3.8584,-3.8665,-3.8932,-3.9012,-3.9155,-3.9381,-3.9252,-3.9162,-3.9098,-3.9397,-3.9546,-3.9564,-4.014,-4.0084,-3.9546,-3.9546,-3.9258,-3.8732,-3.845,-3.835,-3.8275,-3.7429,-3.6772,-3.6291,-3.6291,-3.5935,-3.5439,0.0,0.0,0.0,0.0,0.0,0.0,0.0,-3.8572,-3.7919,-3.6133,-3.5955,-3.6288,-3.7053,-3.7946,-3.8814,-3.9587,-4.0415,-4.1296,-4.2232,-4.3101,-4.4009,-4.4898,-4.5691,-4.6102,-4.6102,-4.5216,-4.4771,-4.4841,-4.3922,-4.3495,-4.354,-4.2685,-4.2291,-4.2263,-4.1425,-4.1056,-4.1094,-4.1094,-4.1109,-4.1109,-4.1109,-4.1109,-4.1109,0.0,0.0,0.0,0.0,0.0,0.0,0.0,0.0,0.0,0.0,0.0,0.0,0.0,0.0,0.0,0.0,0.0,0.0,0.0,0.0,0.0,0.0,0.0,0.0,0.0,0.0,0.0,0.0,0.0,0.0,0.0,0.0,0.0,-4.0797,-4.0797,-4.0797,-4.0797,-4.0797,-4.0797,-4.0797,-4.0797,-4.0816,-4.0835,-4.067,-4.0562,-4.0581,-4.0398,-4.0644,-4.1437,-4.1654,-4.2066,-4.2719,-4.2699,-4.2597,-4.2416,-4.214,-4.2018,-4.2004,-4.2004,-4.2004,-4.2004,-4.2004,-4.2004,-4.1948,-4.1173,-4.0835,-4.0591,-3.8143,-3.7167,-3.7148,-3.7148,-3.7129,-3.711,0.0,0.0,0.0,0.0,0.0,0.0,0.0,-3.8064,-3.7251,-3.6111,-3.5957,-3.6483,-3.7965,-3.8294,-3.9025,-4.0482,-4.0827,-4.1322,-4.2176,-4.3087,-4.4273,-4.5779,-4.6051,-4.6167,-4.6167,-4.5868,-4.576,-4.5813,-4.5507,-4.5062,-4.4509,-4.4275,-4.3519,-4.2355,-4.2121,-4.1679,-4.11,-4.11,-4.1097,-4.1109,-4.1109,-4.1109,-4.1109,0.0,0.0,0.0,0.0,0.0,0.0,0.0,0.0,0.0,0.0,0.0,0.0,0.0,0.0,0.0,0.0,0.0,0.0,0.0,0.0,0.0,0.0,0.0,0.0,0.0,0.0,0.0,0.0,0.0,0.0,0.0,0.0,-4.0798,-4.0803,-4.0797,-4.0797,-4.0797,-4.0797,-4.0797,-4.0797,-4.0797,-4.1048,-4.1622,-4.1628,-4.1859,-4.2497,-4.2473,-4.2548,-4.276,-4.2823,-4.2958,-4.3127,-4.2989,-4.2823,-4.2607,-4.2397,-4.219,-4.2004,-4.2004,-4.2004,-4.2004,-4.2004,-4.2004,-4.1986,-4.176,-4.1667,-4.1479,-3.9627,-3.8538,-3.7962,-3.7962,-3.7606,-3.711,0.0,0.0,0.0,0.0,0.0,0.0,0.0,-3.7869,-3.6977,-3.6073,-3.5956,-3.6582,-3.8268,-3.847,-3.9174,-4.0882,-4.138,-4.193,-4.2768,-4.4023,-4.5172,-4.6206,-4.6209,-4.6202,-4.6202,-4.6169,-4.6158,-4.6202,-4.6158,-4.5904,-4.5443,-4.5072,-4.4189,-4.2891,-4.2558,-4.1911,-4.1109,-4.1109,-4.1109,-4.1109,-4.1109,-4.1109,-4.1109,-4.1109,-4.1109,-4.1109,-4.1109,-4.1109,-4.1109,-4.1109,0.0,0.0,0.0,0.0,0.0,0.0,0.0,0.0,0.0,0.0,0.0,0.0,0.0,0.0,0.0,0.0,0.0,0.0,0.0,0.0,0.0,0.0,0.0,0.0,-4.0821,-4.079,-4.0802,-4.0796,-4.0809,-4.0797,-4.1106,-4.1293,-4.1293,-4.1622,-4.2048,-4.2512,-4.2531,-4.2763,-4.3266,-4.3305,-4.3479,-4.3827,-4.3846,-4.402,-4.433,-4.4145,-4.3985,-4.3867,-4.3677,-4.3433,-4.3164,-4.3164,-4.3137,-4.3055,-4.3055,-4.3055,-4.3018,-4.268,-4.253,-4.2417,0.0,0.0,0.0,0.0,-3.8845,-3.8143,0.0,0.0,0.0,0.0,0.0,0.0,0.0,-3.777,-3.6843,-3.6016,-3.595,-3.6577,-3.8106,-3.8476,-3.9247,-4.082,-4.1847,-4.2807,-4.3771,-4.5288,-4.6202,-4.63,-4.6245,-4.621,-4.621,-4.6203,-4.6191,-4.6213,-4.6191,-4.6191,-4.6194,-4.5414,-4.4545,-4.3574,-4.2871,-4.2007,-4.1109,-4.1109,-4.1109,-4.1109,-4.1109,-4.1109,-4.1109,-4.1109,-4.1109,-4.1109,-4.1109,-4.1109,-4.1109,-4.1109,0.0,0.0,0.0,0.0,0.0,0.0,0.0,0.0,0.0,0.0,0.0,0.0,0.0,0.0,0.0,0.0,0.0,0.0,0.0,0.0,0.0,0.0,0.0,0.0,-4.0936,-4.0962,-4.0942,-4.1038,-4.1046,-4.0951,-4.1641,-4.2144,-4.2144,-4.286,-4.3343,-4.344,-4.346,-4.3498,-4.3576,-4.3576,0.0,0.0,0.0,-4.5084,-4.5787,-4.5626,-4.5516,-4.549,-4.5314,-4.5085,-4.4788,-4.4788,-4.4688,-4.4501,-4.4501,-4.4501,-4.4444,-4.3726,-4.3444,-4.3332,-4.238,-4.2004,-4.1911,-4.121,-4.0478,-3.9871,0.0,0.0,0.0,0.0,0.0,0.0,0.0,-3.7262,-3.6193,-3.6009,-3.5982,-3.639,-3.7398,-3.8152,-3.8984,-3.9967,-4.1483,-4.3079,-4.4642,-4.5051,-4.5578,-4.6261,-4.6287,-4.627,-4.627,-4.623,-4.623,-4.6279,-4.623,-4.623,-4.6279,-4.6102,-4.5182,-4.3675,-4.3519,-4.2578,-4.1109,-4.1109,-4.1109,-4.1109,-4.1109,-4.1109,-4.1109,-4.1109,-4.1109,-4.1109,-4.1109,-4.1109,-4.1109,-4.1109,-4.1109,-4.1109,-4.1109,-4.1109,0.0,0.0,0.0,0.0,0.0,0.0,0.0,0.0,0.0,0.0,0.0,0.0,0.0,0.0,0.0,0.0,0.0,0.0,0.0,-4.091,-4.1479,-4.1907,-4.1859,-4.2452,-4.261,-4.1867,-4.2531,-4.3053,-4.3053,-4.3208,-4.3595,-4.4304,-4.4342,-4.4639,-4.5278,-4.5323,-4.5394,-4.5548,-4.5568,-4.5652,-4.5807,-4.5759,-4.5658,-4.549,-4.5454,0.0,-4.4788,-4.4788,-4.4688,-4.4501,-4.4501,-4.4501,-4.4482,-4.4332,-4.4271,-4.4106,-4.2586,-4.2004,-4.1986,-4.1835,-4.1667,-4.1441,0.0,0.0,0.0,0.0,0.0,0.0,0.0,-3.7126,-3.5994,-3.5999,-3.5995,-3.6501,-3.7814,-3.8339,-3.9099,-4.0346,-4.1654,-4.3138,-4.4893,-4.499,-4.5187,-4.5636,-4.6066,-4.63,-4.63,-4.6277,-4.6277,-4.63,-4.6277,-4.6277,-4.63,-4.63,-4.5363,-4.3705,-4.3705,-4.2729,-4.1109,-4.1109,-4.1109,-4.1109,-4.1109,-4.1109,-4.1109,-4.1109,-4.1109,-4.1109,-4.1109,-4.1109,-4.1109,-4.1109,-4.1109,-4.1109,-4.1109,-4.1109,-4.1109,0.0,0.0,0.0,0.0,0.0,0.0,0.0,0.0,0.0,0.0,0.0,0.0,0.0,0.0,-4.1092,0.0,0.0,-4.1114,-4.1482,-4.1912,-4.2339,-4.2701,-4.351,-4.3715,-4.2821,-4.346,-4.3983,-4.3943,-4.435,-4.4776,-4.5162,-4.52,-4.5374,-4.5787,-4.5807,-4.5807,-4.5807,-4.5807,-4.5807,-4.5807,-4.5807,-4.5745,-4.565,-4.565,-4.547,-4.5144,-4.5144,-4.5033,-4.4845,-4.4707,-4.4642,-4.4629,-4.4551,-4.4501,-4.4426,-4.3581,-4.2999,-4.2656,-4.2656,-4.2361,-4.1948,0.0,0.0,0.0,0.0,0.0,0.0,0.0,-3.7126,-3.5992,-3.5992,-3.5992,-3.6597,-3.8181,-3.8494,-3.9411,-4.1422,-4.1947,-4.2962,-4.4873,-4.4678,-4.4658,-4.499,-4.5675,-4.6124,-4.63,-4.63,-4.63,-4.63,-4.63,-4.63,-4.63,-4.6124,-4.5207,-4.3686,-4.3528,-4.2573,-4.1109,-4.1109,-4.1109,-4.1109,-4.1109,-4.1109,-4.1109,-4.1109,-4.1109,-4.1109,-4.1109,-4.1109,-4.1109,-4.1109,-4.1109,-4.1109,-4.1109,-4.1109,-4.1109,-4.1109,-4.1109,0.0,0.0,0.0,0.0,0.0,0.0,0.0,0.0,0.0,-4.1109,-4.1109,-4.1109,-4.1141,-4.1246,-4.1277,-4.1546,-4.2334,-4.2606,-4.2923,-4.3582,-4.4408,-4.469,-4.3981,-4.4517,-4.4911,-4.4866,-4.5499,-4.5874,-4.5821,-4.5821,-4.5821,-4.5814,-4.5969,-4.6065,-4.6058,-4.6213,-4.631,-4.631,-4.631,-4.631,-4.631,-4.631,-4.6202,-4.6018,-4.6018,-4.5793,-4.542,-4.5061,-4.4837,-4.4795,-4.4635,-4.4537,-4.4501,-4.4501,-4.4102,-4.3538,-4.3538,-4.3088,-4.2455,0.0,0.0,0.0,0.0,0.0,0.0,0.0,0.0,-3.5992,-3.5992,-3.5992,-3.6363,-3.734,-3.8142,-3.9899,-4.3139,-4.2085,-4.2318,-4.4834,-4.3548,-4.3372,-4.4932,-4.5088,-4.5519,-4.628,-4.63,-4.63,-4.63,-4.63,-4.63,-4.628,-4.5519,-4.4621,-4.3666,-4.2884,-4.2006,-4.1109,-4.1109,-4.1109,-4.1109,-4.1109,-4.1109,-4.1109,-4.1109,-4.1109,-4.1109,-4.1109,-4.1109,-4.1109,-4.1109,-4.1109,-4.1109,-4.1109,-4.1109,-4.1109,-4.1109,0.0,-4.1109,-4.1109,-4.1109,0.0,-4.1109,-4.1109,-4.1109,0.0,0.0,-4.1109,-4.1109,-4.1109,-4.1325,-4.2092,-4.2243,-4.2516,-4.3308,-4.4042,-4.4542,-4.4628,-4.5331,-4.5825,-4.572,-4.5729,-4.5757,-4.5757,-4.5848,-4.5893,-4.5893,-4.588,-4.5886,-4.5893,-4.6629,-4.7015,-4.6967,-4.7715,-4.8101,-4.8101,-4.8101,-4.8101,-4.8101,-4.8101,-4.7998,-4.7807,-4.7807,-4.7281,-4.6301,-4.5505,-4.5019,-4.4788,-4.4782,-4.4668,-4.4501,-4.4501,-4.4444,-4.4369,-4.4369,-4.4294,-4.4125,0.0,0.0,0.0,0.0,0.0,0.0,0.0,0.0,0.0,-3.5992,-3.5992,-3.6324,-3.7204,-3.8492,-4.0288,-4.2728,-4.181,-4.1771,-4.3372,-4.2806,-4.2728,-4.3469,-4.3977,-4.4406,-4.4777,-4.4797,-4.4797,-4.4797,-4.4797,-4.4797,-4.4777,-4.4406,-4.3782,-4.2923,-4.2552,-4.1927,-4.1109,-4.1109,-4.1109,-4.1109,-4.1109,-4.1109,-4.1109,-4.1109,-4.1109,-4.1109,-4.1109,-4.1109,0.0,-4.1109,-4.1109,-4.1109,-4.1109,-4.1109,-4.1109,-4.1109,-4.1109,0.0,-4.1109,0.0,0.0,0.0,-4.1109,-4.1109,-4.1109,-4.1109,-4.1109,-4.1109,-4.1498,-4.1973,-4.2337,-4.2811,-4.3415,0.0,-4.4578,-4.4962,-4.5429,-4.5788,-4.5997,-4.6005,-4.5969,-4.5947,-4.5893,-4.6383,-4.6699,-4.6662,-4.712,-4.7417,-4.7404,-4.7773,-4.7947,-4.7925,-4.8273,-4.8433,-4.8392,-4.8392,-4.8392,-4.8392,-4.8433,-4.8411,-4.833,-4.8342,-4.8012,-4.7472,-4.7106,-4.6532,-4.5848,-4.5848,-4.5449,-4.4838,-4.4752,-4.4739,-4.4706,-4.457,-4.4501,-4.4444,0.0,0.0,0.0,0.0,0.0,0.0,0.0,0.0,0.0,0.0,-3.5992,-3.6324,-3.7201,-3.8803,-4.0403,-4.1905,-4.1457,-4.1479,-4.2337,-4.2162,-4.2142,-4.2396,-4.3001,-4.345,-4.3686,-4.3705,-4.3705,-4.3705,-4.3705,-4.3705,-4.3686,-4.345,-4.3001,-4.2396,-4.2142,-4.1693,-4.1109,-4.1109,-4.1109,-4.1109,-4.1109,-4.1108,-4.1106,-4.1108,-4.1106,-4.1101,-4.1104,-4.1104,-4.1104,-4.1101,-4.1101,-4.1101,-4.1104,-4.1104,-4.1106,-4.1108,-4.1109,-4.1109,-4.1109,0.0,0.0,-4.1109,-4.1109,-4.1109,-4.1109,-4.1109,-4.1168,-4.14,-4.1967,-4.2541,-4.3007,-4.3613,-4.4273,-4.5033,-4.5166,-4.5352,-4.592,-4.6002,-4.6002,-4.6002,-4.621,-4.633,-4.629,-4.6903,-4.7389,-4.7572,-4.816,-4.8535,-4.8522,-4.8735,-4.8852,-4.885,-4.9083,-4.9185,-4.9144,-4.9137,-4.9137,-4.9144,-4.9185,-4.9218,-4.9218,-4.8981,-4.8785,-4.8624,-4.8392,-4.7813,-4.7049,-4.7049,-4.6445,-4.5496,-4.541,-4.5194,-4.4936,-4.4739,-4.464,-4.4605,0.0,0.0,0.0,0.0,0.0,0.0,0.0,0.0,0.0,0.0,0.0,0.0,0.0,-3.88,-4.0168,-4.1056,-4.1122,-4.1479,-4.2337,-4.1615,-4.1518,-4.2357,-4.2435,-4.2845,-4.3686,-4.3705,-4.3705,-4.3705,-4.3705,-4.3705,-4.3686,-4.2845,-4.2435,-4.2357,-4.1518,-4.1129,-4.1109,-4.1109,-4.1109,-4.1109,-4.1109,-4.1103,-4.1095,-4.1106,-4.1097,-4.1096,-4.1109,-4.1094,-4.1092,-4.1098,-4.1096,-4.1098,-4.109,-4.1094,0.0,-4.1106,-4.1109,-4.1109,0.0,0.0,-4.1109,-4.1109,-4.1109,-4.1109,-4.1109,-4.1109,-4.1343,-4.2181,-4.2376,-4.2894,-4.4511,-4.4844,-4.5131,-4.5927,-4.6059,-4.6053,-4.6017,-4.6002,-4.6002,-4.6002,-4.6754,-4.7254,0.0,-4.7273,-4.765,-4.8501,-4.8582,-4.8608,-4.8598,-4.9349,-4.9757,-4.9763,-5.0577,-5.1016,-5.1016,-5.1016,-5.1016,-5.1016,-5.1016,-5.1016,-5.0997,-5.0151,-4.9763,-4.9698,-4.8852,-4.8363,-4.8147,-4.8147,-4.7516,-4.6551,-4.6551,-4.5943,-4.5085,-4.5085,-4.5,-4.4858,0.0,0.0,0.0,0.0,0.0,0.0,0.0,0.0,0.0,0.0,0.0,0.0,0.0,0.0,0.0,0.0,-3.9899,-4.035,-4.065,-4.0943,-4.1239,-4.1518,-4.1537,-4.1674,-4.1968,-4.1968,-4.1968,-4.1968,-4.1968,-4.1968,-4.1968,-4.1674,-4.1537,-4.1518,-4.1226,-4.1109,-4.1109,-4.1109,-4.1109,-4.1109,-4.1109,-4.1103,-4.1094,-4.1097,-4.1109,-4.1093,0.0,-4.1093,-4.11,-4.1096,-4.1093,-4.1093,-4.1098,-4.1107,-4.1095,-4.1106,-4.1109,-4.1109,-4.1109,0.0,-4.1109,-4.1109,-4.1109,-4.1109,-4.1109,-4.1557,-4.2045,-4.2337,-4.3313,-4.4293,-4.4869,-4.5407,-4.5857,-4.6113,-4.6131,-4.6072,-4.6017,-4.6002,-4.6002,-4.6002,-4.6773,0.0,0.0,0.0,0.0,-4.9443,-4.9992,-5.0322,-5.033,-5.0582,-5.0706,-5.0655,-5.0946,-5.1108,-5.1101,-5.1101,-5.1101,-5.1101,-5.1108,-5.1128,-5.1166,-5.0855,-5.0726,-5.0706,-5.0415,-4.9925,-4.933,-4.933,-4.8713,-4.7724,-4.7061,-4.6581,-4.6213,-4.5611,-4.5381,-4.5362,0.0,0.0,0.0,0.0,0.0,0.0,0.0,0.0,0.0,0.0,0.0,0.0,0.0,0.0,0.0,0.0,0.0,-3.9466,-3.9788,-4.0329,-4.0779,-4.1097,-4.1097,-4.1099,-4.1104,-4.1101,-4.1099,-4.1104,-4.1104,-4.1104,-4.1104,-4.1108,-4.1109,-4.1109,-4.1109,-4.1109,-4.1109,-4.1109,-4.1108,-4.1104,-4.1104,-4.1095,-4.11,-4.1105,-4.1096,0.0,-4.1098,-4.1098,-4.1098,-4.1098,-4.1098,-4.11,-4.1106,-4.11,-4.1095,-4.1106,-4.1109,-4.1109,-4.1109,-4.1109,-4.1109,-4.1109,-4.1109,-4.1109,-4.1109,-4.1771,-4.2494,-4.2806,-4.3997,-4.5093,-4.5377,-4.5859,-4.6182,-4.6167,-4.6109,-4.6054,-4.6012,-4.6002,-4.6118,-4.6424,-4.724,-4.8114,0.0,0.0,0.0,-5.0367,-5.0872,-5.1202,-5.1202,-5.1202,-5.1171,-5.1133,-5.1133,-5.114,-5.1134,-5.1134,-5.1134,-5.1134,-5.114,-5.1165,-5.1202,-5.1202,-5.1202,-5.1202,-5.1202,-5.0872,-5.0367,-5.0367,-4.9794,-4.8878,-4.8211,-4.7548,-4.6901,-4.6286,-4.5912,-4.5632,0.0,0.0,0.0,0.0,0.0,0.0,0.0,0.0,0.0,0.0,0.0,0.0,0.0,0.0,0.0,0.0,0.0,0.0,-3.9611,-3.9718,-4.0118,-4.0996,-4.1035,-4.1042,-4.1092,-4.11,-4.11,-4.1094,-4.1094,-4.1094,-4.1094,-4.1103,-4.1108,-4.1108,-4.1108,-4.1108,-4.1108,-4.1108,-4.1103,-4.1092,-4.1092,-4.1098,-4.1098,-4.1108,-4.1095,-4.1091,-4.1109,-4.1103,-4.1107,0.0,0.0,0.0,0.0,-4.1093,-4.1095,-4.1106,-4.1109,-4.1108,-4.1109,-4.1109,-4.1109,-4.1109,-4.1109,-4.1109,-4.1109,-4.1771,-4.263,-4.345,-4.4328,-4.5177,0.0,0.0,-4.611,-4.6057,-4.6011,-4.6002,-4.6002,-4.6002,-4.6327,0.0,0.0,0.0,0.0,0.0,0.0,-5.1202,0.0,-5.1202,-5.1202,-5.1202,-5.1202,-5.1202,-5.1202,-5.1202,-5.1202,-5.1202,-5.1202,-5.1202,-5.1202,-5.1202,-5.1202,-5.1202,-5.1202,-5.1202,-5.1202,-5.1202,-5.1202,-5.1202,-5.0717,-4.9965,-4.9926,-4.8799,-4.7236,-4.7139,-4.6554,-4.573,0.0,0.0,0.0,0.0,0.0,0.0,0.0,0.0,0.0,0.0,0.0,0.0,0.0,0.0,0.0,0.0,0.0,0.0,-3.7854,-3.8461,-3.9223,-4.0079,-4.014,-4.0433,-4.1098,-4.1105,-4.109,-4.1094,-4.1094,-4.1094,-4.1094,-4.1107,-4.1105,-4.1105,-4.1105,-4.1105,-4.1105,-4.1105,-4.1103,-4.1098,-4.1098,-4.1091,-4.1095,-4.11,-4.1109,-4.111,-4.1094,-4.1094,0.0,0.0,0.0,0.0,0.0,-4.1093,-4.1103,-4.1104,-4.1104,-4.1099,-4.1108,-4.1109,-4.1109,-4.1109,-4.1109,-4.1109,-4.1109,-4.1771,-4.2454,-4.2689,-4.3411,-4.4097,0.0,0.0,0.0,-4.5209,-4.5659,0.0,-4.6002,-4.6002,0.0,-4.7201,0.0,-4.893,-4.9829,-5.0697,0.0,0.0,-5.1202,-5.1202,-5.1202,-5.1202,-5.1202,-5.1202,-5.1202,-5.1202,-5.1202,-5.1202,-5.1202,-5.1202,-5.1202,-5.1202,-5.1202,-5.1202,-5.1202,-5.1202,-5.1202,-5.1202,-5.1202,-5.1202,-5.1066,-5.0794,-5.0159,-4.9617,-4.9037,-4.773,-4.7092,-4.6784,0.0,0.0,0.0,0.0,0.0,0.0,0.0,0.0,0.0,0.0,0.0,0.0,0.0,0.0,0.0,0.0,0.0,0.0,0.0,-3.7666,-3.831,-3.9187,-3.9226,-3.9638,-4.0501,-4.0523,-4.0723,-4.1098,-4.1098,-4.1098,-4.1098,-4.11,-4.1103,-4.1103,-4.1109,-4.1107,-4.1103,-4.1103,-4.1096,0.0,0.0,-4.1098,-4.1103,-4.1103,-4.1097,-4.1107,-4.1107,0.0,0.0,0.0,0.0,-4.1106,-4.11,-4.1359,-4.1598,-4.1207,0.0,-4.1595,-4.1191,-4.1099,-4.1103,-4.1103,-4.1106,-4.1109,-4.1109,-4.1771,-4.2396,-4.2396,-4.3099,0.0,0.0,0.0,0.0,0.0,0.0,0.0,-4.6002,-4.6002,-4.6327,0.0,-4.8075,0.0,-4.9829,-5.0697,-5.1202,0.0,-5.1202,-5.1202,-5.1202,-5.1202,-5.1202,-5.1202,-5.1202,-5.1202,-5.1202,-5.1202,-5.1202,-5.1202,-5.1202,-5.1202,-5.1202,-5.1202,-5.1202,-5.1202,-5.1202,-5.1202,-5.1202,-5.1202,-5.1202,-5.1144,-5.0658,-5.0237,-4.979,-4.8794,-4.7958,-4.7209,0.0,0.0,0.0,0.0,0.0,0.0,0.0,0.0,0.0,0.0,-3.5967,0.0,0.0,0.0,0.0,0.0,0.0,0.0,0.0,0.0,0.0,-3.8285,-3.8324,-3.8739,-3.9613,-3.9639,-3.9989,-4.0744,-4.0861,-4.092,-4.0922,-4.1059,-4.1107,-4.1107,-4.1097,-4.1095,-4.1107,-4.1107,-4.1093,-4.1092,-4.1092,-4.1103,-4.1107,0.0,-4.1107,0.0,0.0,0.0,0.0,0.0,-4.1091,-4.1097,-4.1092,-4.1699,-4.2248,-4.1481,-4.1815,-4.2244,-4.1484,-4.1181,-4.1092,-4.1092,-4.1099,-4.1106,-4.1106,-4.167,-4.2236,-4.2236,0.0,-4.3351,-4.3351,-4.4101,-4.474,-4.4735,0.0,-4.6017,-4.6002,-4.6002,-4.6327,-4.7201,-4.8075,-4.893,-4.9829,-5.0697,-5.1202,-5.1202,-5.1202,-5.1202,-5.1202,-5.1202,-5.1202,-5.1202,-5.1202,-5.1202,-5.1202,-5.1202,-5.1202,-5.1202,-5.1202,-5.1202,-5.1202,-5.1202,-5.1202,-5.1202,-5.1202,-5.1202,-5.1202,-5.1202,-5.1202,-5.1202,-5.1202,-5.0736,-5.0062,-4.9945,-4.8871,-4.7453,0.0,0.0,0.0,0.0,0.0,0.0,0.0,0.0,0.0,0.0,-3.6356,-3.5892,0.0,0.0,0.0,0.0,0.0,0.0,0.0,0.0,0.0,0.0,-3.7428,-3.7837,-3.8717,-3.8728,-3.8795,-3.8953,-3.9674,-4.0025,-4.0045,-4.0755,-4.1103,-4.1103,-4.1106,-4.1106,-4.1103,-4.1103,-4.11,-4.1094,-4.1094,-4.1091,-4.1107,-4.1107,0.0,0.0,0.0,0.0,0.0,0.0,-4.11,-4.1092,-4.1095,-4.1699,-4.2365,-4.2225,-4.2278,-4.2368,-4.2225,-4.1642,-4.1098,-4.1098,-4.1107,-4.1094,-4.1103,-4.1226,0.0,0.0,-4.1441,-4.1544,-4.1544,-4.2809,0.0,-4.3839,0.0,0.0,0.0,0.0,-4.6327,0.0,0.0,0.0,0.0,0.0,0.0,0.0,-5.1202,-5.1202,-5.1202,-5.1202,-5.1202,-5.1202,-5.1202,-5.1202,-5.1202,-5.1202,-5.1202,-5.1202,-5.1202,-5.1202,-5.1202,-5.1202,-5.1202,-5.1202,-5.1202,-5.1202,-5.1202,-5.1202,-5.1202,-5.1202,-5.1202,-5.1105,-5.0891,-5.0178,-4.924,-4.8269,0.0,0.0,0.0,0.0,0.0,0.0,0.0,-3.809,-3.7662,-3.7253,-3.6434,-3.5908,-3.5908,-3.5908,-3.5908,0.0,0.0,0.0,0.0,0.0,0.0,0.0,0.0,0.0,0.0,-3.7826,-3.8046,-3.8492,0.0,-3.9115,-3.9135,-3.9544,-3.9992,-4.0421,-4.0429,-4.068,-4.1103,-4.1103,-4.1097,-4.1107,-4.1107,-4.1107,0.0,0.0,0.0,0.0,0.0,0.0,0.0,0.0,-4.1094,-4.1162,-4.1587,-4.2328,-4.3013,-4.3019,-4.335,-4.3503,-4.2593,-4.2073,-4.1668,-4.12,-4.1093,-4.11,-4.1096,0.0,0.0,0.0,-4.1098,-4.1103,-4.1103,0.0,0.0,0.0,0.0,0.0,0.0,0.0,0.0,0.0,0.0,0.0,0.0,0.0,0.0,0.0,-5.1202,-5.1202,-5.1202,-5.1202,-5.1202,-5.1202,-5.1202,-5.1202,-5.1202,-5.1202,-5.1202,-5.1202,-5.1202,-5.1202,-5.1202,-5.1202,-5.1202,-5.1202,-5.1202,-5.1202,-5.1202,-5.1202,-5.1202,-5.1202,-5.1202,-5.1202,-5.1144,-5.0736,-5.0017,-4.9143,0.0,0.0,0.0,0.0,0.0,0.0,0.0,-3.6766,-3.6649,-3.6649,-3.5908,-3.5421,-3.5597,-3.5791,-3.5908,0.0,0.0,0.0,0.0,0.0,0.0,0.0,0.0,0.0,0.0,0.0,0.0,-3.7935,-3.8129,0.0,0.0,0.0,0.0,0.0,-3.9524,-3.9892,-4.0566,-4.0741,-4.083,0.0,0.0,-4.1107,0.0,0.0,0.0,0.0,0.0,0.0,0.0,0.0,-4.1107,-4.1263,-4.2276,-4.3056,-4.364,-4.3815,-4.4364,-4.4562,-4.2997,-4.2481,-4.2161,-4.1304,-4.11,-4.1108,-4.1106,-4.1108,0.0,0.0,-4.1108,-4.1111,-4.1111,0.0,0.0,0.0,0.0,0.0,0.0,0.0,0.0,0.0,0.0,0.0,0.0,0.0,0.0,0.0,-5.1208,-5.1202,-5.1202,-5.1202,-5.1202,-5.1202,-5.1202,-5.1202,-5.1202,-5.1202,-5.1202,-5.1202,-5.1202,-5.1202,-5.1202,-5.1202,-5.1202,-5.1202,-5.1202,-5.1202,-5.1202,-5.1202,-5.1202,-5.1202,-5.1202,-5.1202,-5.1202,-5.1202,-5.0658,-4.979,0.0,0.0,0.0,0.0,0.0,0.0,0.0,-3.5343,-3.4837,-3.4837,-3.4138,-3.3904,-3.4645,-3.5421,-3.5908,0.0,0.0,0.0,0.0,0.0,0.0,0.0,0.0,0.0,0.0,0.0,0.0,-3.6142,-3.6921,0.0,0.0,0.0,0.0,0.0,0.0,-3.8658,-3.8795,-3.9571,0.0,0.0,0.0,0.0,0.0,0.0,0.0,0.0,0.0,0.0,0.0,0.0,0.0,-4.138,-4.2978,-4.3543,-4.3757,-4.454,0.0,0.0,-4.3737,-4.29,-4.2104,-4.1305,-4.1106,-4.1095,-4.1097,0.0,0.0,-4.1097,-4.1106,-4.1098,-4.1098,-4.2517,-4.3673,0.0,0.0,-4.6172,0.0,0.0,0.0,0.0,0.0,0.0,0.0,0.0,0.0,0.0,-5.1192,-5.1202,-5.1202,-5.1202,-5.1202,-5.1202,-5.1202,-5.1202,-5.1202,-5.1202,-5.1202,-5.1202,-5.1202,-5.1202,-5.1202,-5.1202,-5.1202,-5.1202,-5.1202,-5.1202,-5.1202,-5.1202,-5.1202,-5.1202,-5.1202,-5.1202,-5.1202,-5.1202,-5.0658,-4.979,0.0,0.0,0.0,0.0,0.0,0.0,-3.3612,-3.3768,-3.3885,-3.3885,-3.3592,-3.3514,-3.3846,-3.4196,-3.48,-3.5811,0.0,0.0,0.0,0.0,0.0,0.0,0.0,0.0,0.0,0.0,-3.5908,-3.5908,-3.6259,0.0,0.0,0.0,0.0,0.0,0.0,0.0,-3.8519,0.0,0.0,0.0,0.0,0.0,0.0,0.0,0.0,0.0,0.0,0.0,0.0,0.0,0.0,0.0,-4.3075,-4.3601,0.0,0.0,-4.5673,-4.5377,-4.3971,-4.3348,-4.2763,-4.1438,-4.1094,-4.1097,-4.1091,0.0,0.0,-4.1091,-4.1094,-4.11,-4.11,-4.2487,-4.3635,-4.3609,0.0,0.0,0.0,0.0,0.0,0.0,0.0,0.0,0.0,0.0,0.0,-5.1217,-5.1254,-5.1264,-5.1264,-5.1222,-5.1202,-5.1202,-5.1202,-5.1202,-5.1202,-5.1202,-5.1202,-5.1202,-5.1202,-5.1202,-5.1202,-5.1202,-5.1202,-5.1202,-5.1202,-5.1202,-5.1202,-5.1202,-5.1202,-5.1202,-5.1202,-5.1202,-5.1202,-5.1202,-5.0658,-4.979,0.0,0.0,0.0,0.0,0.0,-3.1722,-3.1722,-3.2245,-3.2635,-3.2635,-3.2635,-3.2735,-3.2988,-3.3027,-3.3592,-3.5034,-3.5168,0.0,0.0,0.0,0.0,0.0,0.0,0.0,0.0,0.0,-3.5908,-3.5908,-3.5908,-3.5908,0.0,0.0,0.0,0.0,0.0,0.0,0.0,0.0,0.0,0.0,0.0,0.0,0.0,0.0,0.0,0.0,0.0,0.0,0.0,0.0,0.0,0.0,0.0,0.0,0.0,0.0,-4.6199,-4.5884,-4.4384,-4.3796,-4.325,-4.1809,-4.1283,-4.1107,0.0,0.0,-4.1107,-4.1107,-4.1107,-4.1107,-4.1107,-4.2471,-4.3608,-4.3604,0.0,-4.6199,0.0,0.0,0.0,0.0,0.0,0.0,0.0,0.0,0.0,-5.1235,-5.1271,-5.1271,-5.1271,-5.1222,-5.1196,-5.1192,-5.1189,-5.1202,-5.1202,-5.1202,-5.1202,-5.1202,-5.1202,-5.1202,-5.1202,-5.1202,-5.1202,-5.1202,-5.1202,-5.1202,-5.1202,-5.1202,-5.1202,-5.1202,-5.1202,-5.1202,-5.1163,-5.0911,-5.0425,-4.9751,0.0,0.0,0.0,0.0,0.0,0.0,-3.0801,-3.0821,-3.084,-3.084,-3.084,-3.1152,-3.2014,-3.2111,-3.2462,-3.3358,-3.3436,0.0,0.0,0.0,0.0,0.0,0.0,0.0,0.0,0.0,-3.5908,-3.5908,-3.5908,-3.5908,-3.5908,-3.5908,-3.5908,-3.5908,0.0,0.0,0.0,0.0,0.0,0.0,0.0,0.0,0.0,0.0,0.0,0.0,0.0,0.0,0.0,0.0,0.0,0.0,0.0,0.0,0.0,0.0,-4.6199,-4.6004,-4.5127,-4.4267,-4.3387,-4.251,-4.1692,-4.1107,0.0,0.0,-4.1107,-4.1107,-4.1107,-4.1107,-4.1107,-4.2471,-4.3601,-4.3601,-4.5066,0.0,0.0,0.0,0.0,0.0,0.0,0.0,0.0,0.0,0.0,-5.1203,-5.1202,0.0,-5.1202,-5.1202,-5.1208,-5.1196,-5.1192,-5.1202,-5.1202,-5.1202,-5.1202,-5.1202,-5.1202,-5.1202,-5.1202,-5.1202,-5.1202,-5.1202,-5.1202,-5.1202,-5.1202,-5.1202,-5.1202,-5.1202,-5.1202,-5.1202,-5.1105,-5.0237,-4.9906,-4.9654,0.0,0.0,0.0,0.0,0.0,0.0,0.0,-3.0801,-3.0801,-3.0801,-3.0801,-3.0918,-3.1171,-3.112,-3.1193,-3.1466,-3.2656,0.0,0.0,0.0,0.0,0.0,0.0,0.0,0.0,0.0,-3.5908,-3.5908,-3.5908,-3.5908,-3.5908,-3.5908,-3.5908,-3.5908,-3.5908,0.0,0.0,0.0,0.0,0.0,0.0,0.0,0.0,0.0,0.0,0.0,0.0,0.0,0.0,0.0,0.0,0.0,0.0,0.0,0.0,-4.4888,0.0,0.0,-4.4247,-4.3387,-4.251,-4.1692,-4.1283,-4.1107,-4.1107,-4.1107,-4.1107,-4.1107,-4.1536,-4.1926,-4.1926,-4.3332,-4.4481,-4.4481,-4.5455,0.0,0.0,0.0,0.0,0.0,0.0,0.0,0.0,0.0,-5.1315,-5.1327,-5.1346,-5.1346,-5.1346,-5.1289,-5.1243,-5.1191,-5.1232,-5.1268,-5.1268,-5.1261,-5.1278,-5.1278,-5.1278,-5.1278,-5.1278,-5.1278,-5.1278,-5.1278,-5.1278,-5.1278,-5.1278,-5.1278,-5.1235,-5.1205,-5.1205,-5.0828,-5.027,-5.0004,-4.9143,-4.8036,0.0,0.0,0.0,0.0,0.0,0.0,0.0,-3.0801,-3.0801,-3.0801,-3.0801,-3.0801,-3.0801,-3.0675,-3.0593,-3.0593,-3.1644,0.0,0.0,0.0,0.0,0.0,0.0,0.0,-3.5853,-3.5853,-3.5853,-3.5853,-3.5853,-3.5853,-3.5853,-3.5853,-3.5879,-3.5891,-3.5846,-3.582,0.0,0.0,0.0,0.0,0.0,0.0,-3.6983,0.0,0.0,0.0,0.0,0.0,0.0,0.0,0.0,0.0,0.0,0.0,0.0,0.0,-4.3868,0.0,0.0,-4.2903,-4.2181,-4.1688,-4.1322,0.0,0.0,-4.1321,-4.1555,-4.1555,-4.2197,-4.2766,-4.2779,-4.3955,-4.4894,-4.4894,-4.5634,0.0,0.0,0.0,0.0,0.0,0.0,0.0,0.0,-5.0202,-5.0954,-5.133,-5.1351,-5.1351,-5.1351,-5.1324,-5.1275,-5.1244,-5.1243,-5.126,-5.126,-5.1257,-5.1263,-5.1263,-5.1263,-5.1263,-5.1263,-5.1284,-5.1294,-5.1294,-5.1292,-5.13,0.0,-5.13,-5.1089,-5.0752,-5.0752,-5.0208,-4.9421,-4.909,-4.8268,-4.7296,0.0,0.0,0.0,0.0,0.0,0.0,0.0,-3.0801,-3.0801,-3.0801,-3.0796,-3.0796,-3.0796,-3.0662,-3.0579,-3.0579,0.0,0.0,0.0,0.0,0.0,0.0,0.0,0.0,-3.5698,-3.5775,-3.5795,-3.5795,-3.5795,-3.5795,-3.5795,-3.5795,-3.5834,-3.5868,-3.5745,-3.5684,-3.5668,-3.56,-3.5577,-3.559,-3.5577,-3.6029,0.0,0.0,0.0,0.0,0.0,0.0,0.0,0.0,0.0,0.0,0.0,0.0,0.0,0.0,0.0,0.0,0.0,0.0,0.0,0.0,0.0,0.0,0.0,-4.1712,0.0,-4.2381,-4.3039,-4.3611,-4.3672,-4.4403,-4.4991,-4.4991,-4.5673,0.0,0.0,0.0,0.0,0.0,0.0,0.0,0.0,-4.9937,-5.0346,-5.1145,-5.1261,-5.13,-5.13,-5.13,-5.13,-5.13,-5.1242,-5.1207,-5.1206,-5.1206,-5.1205,-5.1205,-5.1146,-5.1127,-5.1127,-5.1127,-5.1113,-5.1111,-5.1128,-5.1124,-5.1124,-5.1124,-5.0637,-4.9912,-4.9912,-4.9363,-4.8502,-4.7703,-4.7368,-4.7186,0.0,0.0,0.0,0.0,0.0,0.0,0.0,0.0,0.0,0.0,-3.0706,-3.0659,-3.0659,-3.0485,-3.0372,0.0,0.0,0.0,0.0,0.0,0.0,0.0,0.0,0.0,-3.4808,-3.5465,-3.5795,-3.5795,-3.5795,-3.5795,-3.5795,-3.5795,-3.5754,-3.5674,-3.565,-3.5541,-3.5412,-3.5431,-3.5419,-3.5364,-3.5438,-3.5528,0.0,0.0,0.0,0.0,-3.7622,-3.8299,0.0,0.0,0.0,0.0,0.0,0.0,0.0,0.0,-4.1719,-4.1536,-4.1072,0.0,-4.1089,-4.108,-4.1042,-4.1182,0.0,-4.2159,-4.2498,0.0,0.0,0.0,-4.4572,-4.5303,-4.5887,-4.5887,0.0,0.0,0.0,0.0,0.0,0.0,0.0,0.0,0.0,-4.9255,-5.0073,-5.0287,-5.093,-5.13,-5.13,-5.13,-5.13,-5.13,-5.1284,-5.1282,-5.1288,-5.1322,-5.1345,-5.1345,-5.0682,-5.037,-5.033,-4.9687,-4.9394,-4.9394,-4.9394,-4.9393,-4.9393,-4.9393,-4.9235,-4.9014,-4.9014,-4.8461,-4.7671,-4.7476,-4.6975,-4.6387,0.0,0.0,0.0,0.0,0.0,0.0,0.0,0.0,0.0,0.0,0.0,-3.0556,-3.0556,-3.0399,0.0,0.0,0.0,0.0,0.0,0.0,0.0,0.0,0.0,-3.3965,-3.4309,-3.5135,-3.5574,-3.5574,-3.5574,-3.5574,-3.5574,-3.5574,-3.5548,-3.5512,-3.5476,-3.5371,-3.5207,-3.5262,-3.5247,-3.5207,-3.5243,0.0,0.0,0.0,0.0,0.0,-3.6644,-3.7461,0.0,-3.9597,-4.0564,-4.1266,0.0,0.0,0.0,0.0,-4.0766,-4.0711,-4.0195,-4.0315,-4.0584,-4.068,-4.107,-4.1597,-4.2092,0.0,0.0,0.0,0.0,0.0,0.0,0.0,0.0,0.0,0.0,0.0,0.0,0.0,0.0,0.0,0.0,0.0,0.0,-4.8319,-4.9021,-4.941,-4.9898,-5.0151,-5.0151,-5.0151,-5.0151,-5.0151,-5.0151,-5.0322,-5.0703,-5.0747,-5.0562,-5.0193,-4.9725,-4.9491,-4.9491,-4.9018,-4.881,-4.879,-4.88,-4.8804,-4.8804,-4.8804,-4.8532,-4.8144,-4.8144,-4.7617,-4.6855,-4.6855,-4.6542,-4.6146,0.0,0.0,0.0,0.0,0.0,0.0,0.0,0.0,0.0,0.0,0.0,0.0,0.0,0.0,0.0,0.0,0.0,0.0,0.0,0.0,0.0,0.0,-3.2438,-3.3256,-3.3885,-3.4817,-3.5308,-3.5308,-3.5308,-3.5308,-3.5308,-3.5308,-3.5319,-3.535,-3.5274,-3.5174,-3.5075,-3.5075,-3.5075,-3.5075,-3.5075,0.0,0.0,0.0,0.0,0.0,0.0,0.0,0.0,-3.918,-4.0279,-4.0999,-4.0999,0.0,0.0,0.0,0.0,0.0,-3.99,-4.0196,-4.0534,-4.0584,-4.13,-4.2033,-4.2212,0.0,0.0,0.0,0.0,0.0,0.0,0.0,0.0,0.0,0.0,0.0,0.0,0.0,0.0,0.0,0.0,0.0,-4.7228,-4.7423,-4.7813,-4.8553,-4.8729,-4.8806,-4.8806,-4.8806,-4.8806,-4.8806,-4.8806,-4.906,-4.9605,-4.9742,-4.9469,-4.8806,-4.867,-4.8592,-4.8596,-4.8466,-4.8404,-4.8406,-4.8397,-4.8406,-4.8406,-4.8406,-4.7976,-4.729,-4.729,-4.6841,-4.6196,-4.6196,-4.6198,-4.6202,0.0,0.0,0.0,0.0,0.0,0.0,0.0,0.0,0.0,0.0,0.0,0.0,0.0,0.0,0.0,0.0,0.0,0.0,0.0,0.0,0.0,-3.0331,-3.1947,-3.2882,-3.2996,-3.4503,-3.5308,-3.5308,-3.5308,-3.5308,-3.5308,-3.5308,-3.5243,-3.5147,-3.5018,-3.4955,-3.4927,-3.4927,-3.4927,-3.4927,-3.4927,0.0,0.0,0.0,0.0,0.0,0.0,0.0,0.0,-3.8557,-3.9437,-4.0108,-4.0108,0.0,0.0,0.0,0.0,0.0,-3.99,-4.0485,-4.0923,-4.0339,-4.1066,-4.2118,-4.2866,0.0,0.0,0.0,0.0,0.0,0.0,0.0,0.0,0.0,0.0,0.0,0.0,0.0,0.0,0.0,0.0,-4.6258,-4.6394,-4.7072,-4.756,-4.7696,-4.8378,-4.8806,-4.8806,-4.8806,-4.8806,-4.8806,-4.8806,-4.8514,-4.7891,-4.8612,-4.8923,-4.8787,-4.8047,-4.7696,-4.7676,-4.6947,-4.6599,-4.6602,-4.6589,-4.6596,-4.6596,-4.6596,-4.6515,-4.6398,-4.6398,-4.632,-4.6203,-4.6203,-4.6206,-4.6199,0.0,0.0,0.0,0.0,0.0,0.0,0.0,0.0,0.0,0.0,0.0,0.0,0.0,0.0,0.0,0.0,0.0,0.0,0.0,0.0,-3.0259,-3.0668,-3.1911,-3.2583,-3.2583,-3.423,-3.5088,-3.5088,-3.5088,-3.5088,-3.5088,-3.5088,-3.5053,-3.4991,-3.4936,-3.4908,-3.4908,-3.4908,-3.4908,-3.4908,0.0,0.0,0.0,0.0,0.0,0.0,0.0,0.0,0.0,0.0,-3.9911,-4.0601,-4.0601,0.0,0.0,0.0,0.0,0.0,-3.9878,-4.0544,-4.1116,-4.0786,-4.1848,-4.3094,-4.3574,0.0,0.0,0.0,0.0,0.0,0.0,0.0,0.0,0.0,0.0,0.0,0.0,0.0,0.0,0.0,0.0,-4.6199,-4.6199,-4.6569,-4.6803,-4.6803,-4.717,-4.7404,-4.7404,-4.7404,-4.7404,-4.7404,-4.7404,-4.7189,-4.6803,-4.7189,-4.7404,-4.7384,-4.6995,-4.6803,-4.6784,-4.6375,-4.6199,-4.6199,-4.6199,-4.6199,-4.6199,-4.6199,-4.6199,-4.6199,-4.6199,-4.6199,-4.6199,-4.6199,-4.6193,-4.6198,0.0,0.0,0.0,0.0,0.0,0.0,0.0,0.0,0.0,0.0,0.0,0.0,0.0,0.0,0.0,0.0,0.0,0.0,0.0,-3.0162,-3.0563,-3.1174,-3.2179,-3.271,-3.271,-3.415,-3.4908,-3.4908,-3.4908,-3.4908,-3.4908,-3.4908,-3.4908,-3.4908,-3.4908,-3.4908,-3.4908,-3.4908,-3.4908,-3.4908,0.0,0.0,0.0,0.0,0.0,0.0,0.0,0.0,0.0,0.0,0.0,0.0,0.0,0.0,0.0,-3.9781,-3.9728,-3.9738,-4.008,-4.0795,-4.1495,-4.1738,0.0,-4.3937,-4.4029,0.0,0.0,0.0,0.0,0.0,0.0,0.0,0.0,0.0,0.0,0.0,0.0,-4.6192,-4.6199,-4.6199,-4.6199,-4.6199,-4.6199,-4.6199,-4.6199,-4.6199,-4.6199,-4.6199,-4.6199,-4.6199,-4.6199,-4.6199,-4.6199,-4.6199,-4.6199,-4.6199,-4.6199,-4.6199,-4.6199,-4.6199,-4.6199,-4.6199,-4.6199,-4.6199,-4.6199,-4.6199,-4.6199,-4.6199,-4.6199,-4.6199,-4.6199,-4.6199,-4.6199,-4.6199,-4.6199,-4.6199,0.0,0.0,0.0,0.0,0.0,0.0,0.0,0.0,0.0,0.0,0.0,0.0,0.0,0.0,0.0,0.0,0.0,0.0,0.0,-3.0663,-3.1137,-3.1204,-3.2747,-3.36,-3.36,-3.4453,-3.4908,-3.4908,-3.4908,-3.4908,-3.4908,-3.4908,-3.4908,-3.4908,-3.4908,-3.4908,-3.4908,-3.4908,-3.4908,-3.4908,-3.4908,0.0,0.0,0.0,0.0,0.0,0.0,0.0,0.0,0.0,0.0,0.0,0.0,0.0,-3.9526,-3.9539,-3.9526,-3.972,-4.0651,-4.1517,-4.2346,-4.3287,-4.3707,0.0,-4.3916,-4.4699,0.0,-4.5571,0.0,0.0,0.0,0.0,0.0,0.0,0.0,0.0,0.0,0.0,-4.6199,-4.6199,-4.6199,-4.6199,-4.6199,-4.6199,-4.6199,-4.6199,-4.6199,-4.6199,-4.6199,-4.6199,-4.6199,-4.6199,-4.6199,-4.6199,-4.6199,-4.6199,-4.6199,-4.6199,-4.6199,-4.6199,-4.6199,-4.6199,-4.6199,-4.6199,-4.6199,-4.6199,-4.6199,-4.6199,-4.6199,-4.6199,-4.6199,-4.6199,-4.6199,-4.6199,-4.6199,-4.6199,0.0,0.0,0.0,0.0,0.0,0.0,0.0,0.0,0.0,0.0,0.0,0.0,0.0,0.0,0.0,0.0,0.0,0.0,0.0,-3.1014,-3.1667,-3.271,-3.3354,-3.3922,-3.4434,-3.4737,-3.4908,-3.4908,-3.4869,-3.483,-3.483,-3.4751,-3.471,-3.471,-3.471,-3.4751,-3.483,-3.483,-3.5172,-3.5704,-3.5704,-3.6007,0.0,0.0,0.0,0.0,0.0,0.0,0.0,0.0,-3.9933,-4.0209,-3.9664,-3.9433,-3.9401,-3.9489,-3.9827,-4.0295,-4.0741,-4.1914,-4.3102,-4.3492,-4.4049,0.0,0.0,-4.4903,-4.529,-4.5331,-4.5484,0.0,0.0,0.0,0.0,0.0,0.0,0.0,-4.6093,-4.6111,-4.615,-4.6196,-4.6199,-4.6199,-4.6199,-4.6199,-4.6199,-4.6199,-4.6199,-4.6199,-4.6199,-4.6199,-4.6199,-4.6199,-4.6199,-4.6199,-4.6199,-4.6199,-4.6199,-4.6199,-4.6199,-4.6199,-4.6199,-4.6199,-4.6199,-4.6199,-4.6199,-4.6199,-4.6199,-4.6199,-4.6199,-4.6199,-4.6199,-4.6199,-4.6199,-4.6199,-4.6199,-4.6199,0.0,0.0,0.0,0.0,0.0,0.0,0.0,0.0,0.0,0.0,0.0,0.0,0.0,0.0,0.0,0.0,0.0,0.0,-3.1147,-3.1431,-3.2217,-3.3638,-3.3913,-3.4311,-3.486,-3.4762,-3.4762,-3.486,-3.478,-3.4747,-3.4718,-3.4645,-3.4612,-3.4612,-3.4612,-3.4776,-3.5114,-3.5114,-3.5627,-3.6445,-3.6445,-3.6734,0.0,0.0,0.0,0.0,0.0,0.0,0.0,0.0,-4.029,-4.0077,-3.9531,-3.9272,-3.9221,-3.9674,-4.0173,-4.0739,-4.1396,-4.2516,-4.3561,0.0,0.0,0.0,-4.4895,-4.5022,-4.5125,-4.5181,-4.5189,0.0,0.0,0.0,0.0,0.0,0.0,-4.5986,-4.6027,-4.6066,-4.6084,-4.6138,-4.6142,-4.6146,-4.6177,-4.6181,-4.6185,-4.6196,-4.6199,-4.6199,-4.6199,-4.6199,-4.6199,-4.6199,-4.6199,-4.6199,-4.6199,-4.6199,-4.6199,-4.6199,-4.6199,-4.6199,-4.6199,-4.6199,-4.6199,-4.6199,-4.6199,-4.6199,-4.6199,-4.6199,-4.6199,-4.6199,-4.6199,-4.6199,-4.6199,-4.6199,-4.6199,-4.6199,0.0,0.0,0.0,0.0,0.0,0.0,0.0,0.0,0.0,0.0,0.0,0.0,0.0,0.0,0.0,0.0,0.0,0.0,-3.1147,-3.1962,-3.2795,-3.3676,-3.4414,-3.4788,-3.4788,-3.4473,-3.4461,-3.4788,-3.4655,-3.4602,-3.4602,-3.4583,-3.4602,-3.4602,-3.4602,-3.5052,-3.5811,-3.5811,-3.6269,-3.7019,-3.7019,-3.69,-3.6713,0.0,0.0,0.0,0.0,0.0,0.0,0.0,-3.9779,-3.8818,-3.9031,-3.8964,-3.9017,-4.0102,-4.051,-4.1015,-4.2817,-4.3401,0.0,0.0,0.0,0.0,0.0,0.0,-4.4955,-4.5159,0.0,-4.4559,-4.5442,0.0,0.0,-4.5664,-4.5841,-4.5905,-4.5911,-4.5964,-4.6002,-4.6002,-4.6002,-4.6022,-4.6089,-4.6093,-4.6134,-4.6196,-4.6196,-4.6196,-4.6196,-4.6196,-4.6196,-4.6196,-4.6199,-4.6199,-4.6199,-4.6199,-4.6199,-4.6199,-4.6199,-4.6199,-4.6199,-4.6199,-4.6199,-4.6199,-4.6199,-4.6199,-4.6199,-4.6199,-4.6199,-4.6199,-4.6199,-4.6199,-4.6199,-4.6199,-4.6199,-4.6199,0.0,0.0,0.0,0.0,0.0,0.0,0.0,0.0,0.0,0.0,0.0,0.0,0.0,0.0,0.0,0.0,0.0,0.0,-3.192,-3.2732,-3.3515,-3.4293,-3.4408,-3.445,-3.445,-3.4056,-3.4074,-3.445,-3.4305,-3.4245,-3.4245,-3.4011,-3.4176,-3.4691,-3.4868,-3.5447,-3.6285,-3.6285,-3.6813,-3.7629,-3.7629,-3.7964,-3.846,0.0,0.0,0.0,0.0,0.0,0.0,0.0,0.0,0.0,-3.9482,-3.9696,-3.9847,-4.0937,-4.1671,-4.2302,-4.2927,0.0,0.0,0.0,0.0,0.0,0.0,0.0,0.0,0.0,0.0,-4.4317,-4.5275,0.0,0.0,-4.551,-4.5677,-4.5745,-4.5873,-4.5923,-4.5953,-4.5997,-4.6002,-4.6007,-4.6022,-4.6022,-4.6032,-4.6066,-4.6066,-4.6066,-4.6066,-4.6098,-4.6134,-4.6134,-4.6185,-4.6199,-4.6199,-4.6199,-4.6199,-4.6199,-4.6199,-4.6199,-4.6199,-4.6199,-4.6199,-4.6199,-4.6199,-4.6199,-4.6199,-4.6199,-4.6199,-4.6199,-4.6199,-4.6199,-4.6199,-4.6199,-4.6199,-4.6199,0.0,0.0,0.0,0.0,0.0,0.0,0.0,0.0,0.0,0.0,0.0,0.0,0.0,0.0,0.0,0.0,0.0,0.0,0.0,-3.3113,-3.3639,-3.4446,-3.4215,-3.3999,-3.3858,-3.3725,-3.3725,-3.3858,-3.3895,-3.3895,-3.3895,-3.3995,-3.4265,-3.4721,-3.5194,-3.5913,-3.6752,-3.6837,-3.7373,-3.8108,-3.8211,-3.845,-3.873,0.0,0.0,0.0,0.0,0.0,0.0,0.0,0.0,0.0,-3.9953,-4.0191,-4.0355,-4.1551,-4.2343,-4.2925,-4.345,0.0,0.0,0.0,0.0,0.0,0.0,0.0,0.0,0.0,0.0,-4.4614,-4.5214,-4.494,0.0,-4.5425,-4.5519,-4.5571,-4.5681,-4.5696,-4.5733,-4.5822,-4.5796,-4.5796,-4.5866,-4.5835,-4.5803,-4.5848,-4.5835,-4.5866,-4.5927,-4.5908,-4.5942,-4.6066,-4.6047,-4.606,-4.613,-4.6111,-4.6111,-4.6111,-4.6111,-4.6111,-4.6111,-4.6185,-4.6199,-4.6199,-4.6199,-4.6199,-4.6199,-4.6199,-4.6199,-4.6199,-4.6199,-4.6199,-4.6199,-4.6199,-4.6199,-4.6199,0.0,0.0,0.0,0.0,0.0,0.0,0.0,0.0,0.0,0.0,0.0,0.0,0.0,0.0,0.0,0.0,0.0,0.0,0.0,-3.3242,-3.3445,-3.4196,-3.3852,-3.35,-3.3205,-3.3401,-3.3415,-3.3205,-3.3444,-3.3613,-3.369,-3.4335,-3.472,-3.4902,-3.5645,-3.6425,-3.7202,-3.7451,-3.786,-3.8382,-3.8637,-3.843,-3.8001,-3.8035,0.0,0.0,0.0,0.0,0.0,0.0,0.0,0.0,-4.0453,-4.06,-4.0691,-4.2104,-4.268,-4.3118,-4.4201,0.0,0.0,0.0,0.0,0.0,0.0,0.0,0.0,0.0,0.0,-4.5055,-4.5055,-4.5165,-4.5256,-4.5266,-4.5323,-4.539,-4.54,-4.54,-4.5457,-4.5571,-4.5465,-4.5475,-4.5646,-4.5558,-4.5516,-4.5579,-4.5587,-4.5634,-4.5763,-4.565,-4.5694,-4.5944,-4.5835,-4.5828,-4.5956,-4.5956,-4.5956,-4.5956,-4.5956,-4.5956,-4.5961,-4.6111,-4.6192,-4.6192,-4.6192,-4.6192,-4.6192,-4.6196,-4.6196,-4.6192,-4.6196,-4.6196,-4.6192,-4.6196,-4.6199,-4.6199,0.0,0.0,0.0,0.0,0.0,0.0,0.0,0.0,0.0,0.0,0.0,0.0,0.0,0.0,0.0,0.0,0.0,0.0,0.0,-3.3511,-3.3839,-3.3748,-3.3364,-3.3157,-3.3205,-3.2959,-3.2943,-3.3205,-3.3265,-3.3605,-3.4238,-3.4233,-3.487,-3.6054,-3.6433,-3.7038,-3.7814,-3.7865,-3.7973,-3.8086,-3.8153,-3.8103,-3.8018,-3.8236,-3.8535,0.0,0.0,0.0,0.0,0.0,0.0,0.0,-4.1069,-4.1378,-4.1596,-4.293,-4.3387,-4.3569,0.0,-4.4537,0.0,0.0,0.0,0.0,0.0,0.0,0.0,0.0,0.0,-4.4026,-4.4026,-4.4041,-4.4102,-4.4204,-4.4798,-4.5279,-4.539,-4.54,-4.5419,-4.5428,-4.5429,-4.5429,-4.5465,-4.5438,-4.5428,-4.5447,-4.5428,-4.5465,-4.5473,-4.5518,-4.5549,-4.5607,-4.5627,-4.5657,-4.5687,-4.5687,-4.5687,-4.5687,-4.5687,-4.5687,-4.5694,-4.5993,-4.6111,-4.6111,-4.6111,-4.6111,-4.6134,-4.6185,-4.6162,-4.6134,-4.6185,-4.6177,-4.6134,-4.6189,-4.6199,-4.6199,0.0,0.0,0.0,0.0,0.0,0.0,0.0,0.0,0.0,0.0,0.0,0.0,0.0,0.0,0.0,0.0,0.0,0.0,0.0,0.0,-3.3508,-3.3144,-3.3008,-3.2945,-3.2912,-3.2802,-3.3046,-3.3629,-3.3534,-3.3749,-3.4275,-3.4897,-3.5632,-3.6434,-3.6951,-3.7415,-3.7828,-3.7967,-3.7933,-3.7828,-3.7949,-3.7915,-3.781,-3.7966,-3.8185,-3.842,-3.842,0.0,0.0,0.0,0.0,0.0,0.0,0.0,-4.2109,-4.2923,-4.332,-4.3594,0.0,0.0,0.0,0.0,0.0,0.0,0.0,0.0,0.0,0.0,0.0,-4.3568,-4.3152,-4.3076,-4.3111,-4.3163,-4.3566,-4.3885,-4.3952,-4.3954,-4.4005,-4.4105,-4.4025,-4.4005,-4.4105,-4.4015,-4.3954,-4.3954,-4.3954,-4.4005,-4.4105,-4.4057,-4.4097,-4.4245,-4.4227,-4.4418,-4.4891,-4.4872,-4.5103,-4.5498,-4.5498,-4.5524,-4.5555,-4.5776,-4.5859,-4.5859,-4.5925,-4.5961,-4.5972,-4.6056,-4.6084,-4.6066,-4.6089,-4.6084,-4.6066,-4.6089,-4.6098,-4.6098,0.0,0.0,0.0,0.0,0.0,0.0,0.0,0.0,0.0,0.0,0.0,0.0,0.0,0.0,0.0,0.0,0.0,0.0,0.0,0.0,0.0,-3.2672,-3.2737,-3.2753,-3.2655,-3.2879,-3.3354,-3.4047,-3.411,-3.4234,-3.4424,-3.5687,-3.6381,-3.6577,-3.7255,-3.7576,-3.7613,-3.7845,-3.7792,-3.7613,-3.7827,-3.781,-3.7595,-3.7595,-3.7595,-3.7595,-3.7595,-3.8201,-3.9074,-3.9681,0.0,0.0,0.0,0.0,-4.2351,-4.2614,-4.2977,-4.3354,0.0,0.0,0.0,0.0,0.0,0.0,0.0,0.0,0.0,0.0,0.0,-4.3057,-4.2325,-4.2192,-4.2192,-4.2192,-4.2306,-4.2401,-4.2401,-4.2401,-4.2469,-4.2622,-4.2503,-4.2469,-4.2622,-4.2503,-4.2401,-4.2401,-4.2401,-4.2481,-4.2633,-4.2492,-4.2539,-4.2805,-4.2716,-4.3011,-4.38,-4.3819,-4.4164,-4.4881,-4.5034,-4.5141,-4.5207,-4.5385,-4.553,-4.5587,-4.5694,-4.5756,-4.5763,-4.5879,-4.5939,-4.5944,-4.5956,-4.5961,-4.5986,-4.5997,-4.6002,-4.6002,0.0,0.0,0.0,0.0,0.0,0.0,0.0,0.0,0.0,0.0,0.0,0.0,0.0,0.0,0.0,0.0,0.0,0.0,-3.3276,0.0,0.0,-3.285,-3.2538,-3.2521,-3.285,-3.3245,-3.3565,-3.3827,-3.4974,-3.5551,-3.5569,-3.5782,-3.6351,-3.7175,-3.7281,-3.7447,-3.7595,-3.7631,-3.7631,-3.7595,-3.7631,-3.7631,-3.7595,-3.7595,-3.7595,-3.7595,-3.7595,-3.8522,-3.977,-3.9859,-4.0895,0.0,0.0,0.0,-4.2351,-4.2614,-4.2732,-4.2902,0.0,0.0,0.0,0.0,0.0,0.0,0.0,0.0,0.0,0.0,0.0,-4.1503,-4.1378,-4.1359,-4.1359,-4.1359,-4.1946,-4.2401,-4.2401,-4.2401,-4.2412,-4.2447,-4.2424,-4.2412,-4.2447,-4.2424,-4.2401,-4.2401,-4.2401,-4.2412,-4.2447,-4.2405,-4.2416,-4.2462,-4.2439,-4.2496,-4.2633,-4.2633,-4.269,-4.2803,-4.3563,-4.3935,-4.3958,-4.4672,-4.5171,-4.5516,-4.5533,-4.5541,-4.5549,-4.5619,-4.5699,-4.5754,-4.5796,-4.586,-4.5929,-4.598,-4.6002,-4.6002,0.0,0.0,0.0,0.0,0.0,0.0,0.0,0.0,0.0,0.0,0.0,0.0,0.0,0.0,0.0,-3.357,-3.3469,-3.3235,-3.2896,-3.2687,-3.2556,-3.2473,-3.2878,-3.3107,-3.3072,-3.3757,-3.439,-3.4921,-3.54,-3.5863,-3.63,-3.6145,-3.6459,-3.7143,-3.7239,-3.7353,-3.7447,-3.754,-3.7595,-3.7595,-3.7595,-3.7595,-3.7595,-3.7595,-3.7595,-3.7595,-3.7595,-3.8594,-3.9895,-3.9895,-4.0967,-4.2308,-4.2308,0.0,0.0,0.0,0.0,0.0,0.0,0.0,0.0,0.0,0.0,0.0,0.0,0.0,0.0,0.0,0.0,-4.0382,-4.0457,-4.0468,-4.0468,-4.0468,-4.0772,-4.0999,-4.0999,-4.0999,-4.0999,-4.0999,-4.0999,-4.0999,-4.0999,-4.0999,-4.0999,-4.0999,-4.0999,-4.0999,-4.0999,-4.0999,-4.0999,-4.0999,-4.0999,-4.1226,-4.1719,-4.1719,-4.1946,-4.2401,-4.2791,-4.2981,-4.2981,-4.3341,-4.4102,-4.5169,-4.5282,-4.5322,-4.5332,-4.5446,-4.5509,-4.5535,-4.5549,-4.5602,-4.5626,-4.5733,-4.5733,-4.5661,0.0,0.0,0.0,0.0,0.0,0.0,0.0,0.0,0.0,0.0,0.0,0.0,0.0,0.0,0.0,0.0,-3.3129,-3.299,-3.2705,-3.2766,-3.2737,-3.2546,-3.3424,-3.381,-3.3556,-3.438,-3.5119,-3.5733,-3.5707,-3.6009,-3.6602,-3.6402,-3.6489,-3.6831,-3.7105,-3.7278,-3.7391,-3.7539,-3.7595,-3.7595,-3.7595,-3.7595,-3.7595,-3.7595,-3.7738,-3.7898,-3.7898,-3.8897,-4.0198,-4.0198,-4.1145,-4.2308,-4.2308,-4.2308,0.0,0.0,0.0,0.0,0.0,0.0,0.0,0.0,0.0,0.0,0.0,0.0,0.0,0.0,-4.002,-3.9682,-3.9781,-3.9837,-3.99,-3.99,-3.99,-3.99,-3.99,-3.99,-3.99,-3.99,-3.99,-3.99,-3.99,-3.99,-3.99,-3.99,-3.99,-3.99,-3.99,-3.99,-3.99,-3.99,-3.99,-4.0203,-4.0847,-4.0866,-4.1169,-4.1776,-4.1984,-4.2109,-4.2098,-4.2306,-4.3076,-4.4289,-4.4669,-4.4935,-4.5136,-4.5229,-4.5311,-4.5341,-4.5341,-4.5371,-4.5419,-4.551,-4.5349,-4.5074,0.0,0.0,0.0,0.0,0.0,0.0,0.0,0.0,0.0,0.0,0.0,0.0,-3.3633,-3.3382,-3.316,-3.3021,-3.2945,-3.2916,-3.2884,-3.3229,-3.353,-3.3705,-3.407,0.0,-3.4508,-3.5142,-3.5461,-3.5533,-3.6008,-3.6287,-3.6322,-3.6301,-3.6322,-3.6364,-3.6811,-3.7222,-3.7594,-3.7613,-3.7595,-3.7595,-3.7595,-3.7595,-3.7595,-3.7595,-3.8058,-3.8754,-3.8754,-3.9736,-4.1038,-4.1038,-4.1591,-4.2308,-4.2308,-4.2308,0.0,0.0,0.0,0.0,0.0,0.0,0.0,0.0,0.0,0.0,0.0,0.0,0.0,0.0,-3.9533,-3.9495,-3.9526,-3.9735,-3.99,-3.99,-3.99,-3.99,-3.99,-3.99,-3.99,-3.99,-3.99,-3.99,-3.99,-3.99,-3.99,-3.99,-3.99,-3.99,-3.99,-3.99,-3.99,-3.99,-3.99,-3.9919,-3.9976,-3.9976,-3.9995,-4.0033,-4.0866,-4.1264,-4.1283,-4.2041,-4.2439,-4.2583,-4.341,-4.4206,-4.4907,-4.4919,-4.5038,-4.5213,-4.5213,-4.529,-4.541,-4.541,-4.4882,-4.4173,0.0,0.0,0.0,0.0,0.0,0.0,0.0,0.0,0.0,0.0,0.0,0.0,0.0,-3.3114,-3.2945,-3.2752,-3.3084,-3.3493,-3.4023,-3.4019,-3.401,-3.3988,-3.4681,-3.5042,-3.5003,-3.5668,-3.6008,-3.6008,-3.6222,-3.6301,-3.6301,-3.6301,-3.6402,-3.6564,-3.6725,-3.6886,-3.7027,-3.7163,-3.7203,0.0,0.0,0.0,0.0,0.0,-3.8094,0.0,0.0,0.0,0.0,0.0,0.0,0.0,0.0,0.0,0.0,0.0,0.0,0.0,0.0,0.0,0.0,0.0,0.0,0.0,0.0,0.0,0.0,0.0,0.0,-3.8915,-3.8915,-3.9313,-3.9647,-3.9647,-3.9647,-3.9647,-3.9647,-3.9647,-3.9647,-3.9647,-3.9647,-3.967,-3.9751,-3.9781,-3.9804,-3.9889,-3.99,-3.99,-3.99,-3.99,-3.99,-3.99,-3.99,-3.99,-3.99,-3.99,-3.99,-3.99,-4.0222,-4.0374,-4.0374,-4.0658,-4.1094,-4.1643,-4.1958,-4.2564,-4.3303,-4.3303,-4.3338,-4.3407,-4.3407,-4.3422,-4.3499,-4.3614,-4.3392,-4.3022,0.0,0.0,0.0,0.0,0.0,0.0,0.0,0.0,0.0,-3.3178,0.0,0.0,0.0,0.0,-3.3219,-3.3264,-3.3582,-3.4017,-3.4634,-3.4692,-3.4658,-3.4555,-3.5342,-3.57,-3.5559,-3.5801,-3.6042,-3.6301,-3.6042,-3.6059,-3.6301,-3.6301,-3.6402,-3.6582,-3.6582,-3.6664,0.0,0.0,0.0,-3.7105,0.0,0.0,-3.741,0.0,0.0,0.0,0.0,0.0,0.0,0.0,0.0,0.0,0.0,0.0,0.0,0.0,0.0,0.0,0.0,0.0,0.0,0.0,0.0,0.0,0.0,0.0,0.0,0.0,0.0,-3.8535,-3.8535,-3.8861,-3.9154,-3.9261,-3.9274,-3.93,-3.9383,-3.9395,-3.9421,-3.9483,-3.9514,-3.952,-3.9635,-3.9616,-3.967,-3.9758,-3.9804,-3.9826,-3.9826,-3.9878,-3.99,-3.99,-3.99,-3.99,-3.99,-3.99,-3.99,-3.99,-3.99,-3.99,-3.99,-3.99,-4.0222,-4.0753,-4.0753,-4.1378,-4.2401,-4.2401,-4.2401,-4.2401,-4.2401,-4.2401,-4.2424,-4.2547,-4.2343,-4.2026,0.0,0.0,0.0,0.0,0.0,0.0,0.0,0.0,-3.2606,-3.2606,0.0,0.0,0.0,0.0,0.0,-3.4581,-3.4447,-3.4427,-3.4649,-3.5194,-3.5511,-3.5511,-3.6025,-3.6301,-3.6301,-3.5594,-3.5556,-3.628,-3.5556,-3.5594,-3.628,-3.6301,-3.6301,-3.6301,-3.6301,-3.655,-3.6987,0.0,-3.7105,-3.7278,0.0,-3.741,-3.7594,0.0,0.0,0.0,-3.9445,-4.0126,0.0,-4.1407,0.0,0.0,0.0,0.0,0.0,0.0,0.0,0.0,0.0,0.0,0.0,0.0,0.0,0.0,0.0,0.0,0.0,0.0,0.0,-3.8366,-3.8366,-3.8366,-3.846,-3.8708,-3.8781,-3.8886,-3.9132,-3.9192,-3.924,-3.9433,-3.9458,-3.9458,-3.9471,-3.9471,-3.9489,-3.9471,-3.9611,-3.9693,-3.9693,-3.9815,-3.99,-3.99,-3.99,-3.99,-3.99,-3.99,-3.99,-3.99,-3.99,-3.99,-3.99,-3.99,-3.99,-3.99,-3.99,-4.0809,-4.2325,-4.2325,-4.2325,-4.2325,-4.2325,-4.2325,-4.2325,-4.2325,-4.1832,-4.115,0.0,0.0,0.0,0.0,0.0,-3.2406,-3.275,-3.2688,-3.2606,0.0,0.0,0.0,-3.3125,-3.3736,-3.4506,-3.5387,-3.5266,-3.5449,-3.6065,-3.6093,-3.6091,-3.6091,-3.6218,-3.6301,-3.6301,-3.5861,-3.5715,-3.5937,-3.5715,-3.5732,-3.5941,-3.6195,-3.6301,-3.6301,-3.6301,-3.6364,-3.6489,-3.6489,0.0,-3.6886,-3.7027,-3.7124,0.0,0.0,0.0,0.0,0.0,-4.0686,-4.1411,0.0,-4.1604,-4.1604,0.0,0.0,0.0,0.0,0.0,0.0,-3.997,0.0,0.0,0.0,0.0,0.0,0.0,0.0,0.0,0.0,0.0,-3.7828,-3.7828,-3.7828,-3.7845,-3.7913,-3.8265,-3.8538,-3.8615,-3.8615,-3.8646,-3.8688,-3.8703,-3.8748,-3.8847,-3.8861,-3.8886,0.0,-3.9208,-3.9331,-3.9331,-3.9592,-3.9804,-3.99,-3.99,-3.99,-3.99,-3.99,-3.99,-3.99,-3.99,-3.99,-3.99,-3.99,-3.99,-3.99,-3.99,-4.0165,-4.0582,-4.0582,-4.0582,-4.0582,-4.0582,-4.0582,-4.0582,-4.0582,-4.0449,-4.026,0.0,0.0,0.0,0.0,0.0,-3.2335,-3.254,-3.2719,-3.2862,0.0,0.0,0.0,-3.4126,-3.4542,-3.5136,-3.5941,-3.5908,-3.6017,-3.6489,-3.6402,-3.6301,-3.6301,-3.6301,-3.6301,-3.6301,-3.5801,-3.5715,-3.6023,-3.553,-3.5482,-3.5788,-3.6002,-3.6088,-3.611,0.0,0.0,0.0,0.0,0.0,0.0,-3.6826,0.0,0.0,-3.8073,-3.8745,0.0,0.0,0.0,-4.1143,-4.137,-4.1363,0.0,0.0,0.0,0.0,0.0,0.0,0.0,0.0,0.0,0.0,0.0,0.0,0.0,-3.7297,-3.7391,0.0,0.0,0.0,-3.7595,-3.7595,-3.7595,-3.7595,-3.7595,-3.7862,-3.8103,-3.8219,-3.8236,-3.8269,-3.8382,-3.8399,-3.843,-3.8523,-3.8523,-3.8551,-3.8624,-3.8832,-3.9022,-3.9187,-3.9383,-3.9599,-3.9815,-3.9815,-3.9837,-3.99,-3.99,-3.99,-3.99,-3.99,-3.99,-3.99,-3.99,-3.99,-3.99,-3.99,-3.99,-3.99,-3.99,-3.99,-3.99,-3.99,-3.99,-3.99,-3.99,-3.99,-3.99,0.0,0.0,-3.1891,-3.2159,-3.2068,-3.2048,-3.2334,-3.2909,-3.3308,0.0,-3.4117,-3.4885,-3.5511,-3.5578,-3.5778,-3.627,-3.6301,-3.6301,-3.6301,-3.6301,-3.628,-3.6259,-3.6237,-3.622,-3.6195,-3.55,-3.5462,-3.6114,-3.5108,-3.4994,-3.5694,-3.5717,-3.5761,-3.5827,0.0,0.0,0.0,0.0,0.0,-3.6661,-3.6768,-3.733,0.0,0.0,-3.8857,-3.9703,-4.0245,-4.046,-4.0543,-4.1005,-4.1041,0.0,0.0,0.0,0.0,0.0,-3.9732,0.0,0.0,0.0,0.0,0.0,0.0,0.0,-3.7201,-3.7239,-3.7316,0.0,0.0,-3.7522,-3.7522,-3.7522,-3.7522,-3.7522,-3.754,-3.7649,-3.7915,-3.7949,-3.8035,-3.8285,-3.8318,-3.8318,-3.8318,-3.8318,-3.8318,-3.8318,-3.8442,-3.87,-3.9105,-3.9132,-3.9279,-3.9592,-3.9616,-3.9693,-3.9815,-3.9837,-3.9837,-3.9815,-3.9837,-3.9837,-3.9815,-3.9856,-3.9867,-3.9867,-3.9867,-3.9867,-3.9867,-3.9867,-3.9878,-3.99,-3.99,-3.99,-3.99,-3.99,-3.99,-3.99,0.0,-3.1837,-3.2063,-3.2855,-3.2959,-3.3186,-3.3999,-3.4116,-3.4091,-3.4091,-3.4671,-3.5351,-3.607,-3.6136,-3.6187,-3.6284,-3.6301,-3.6301,-3.6301,-3.6301,-3.6174,-3.5915,-3.5915,-3.5744,-3.543,-3.4998,-3.4875,-3.5008,-3.4788,-3.4757,-3.493,-3.5178,-3.5498,-3.5788,-3.5871,0.0,0.0,0.0,0.0,-3.6454,-3.7262,-3.7715,-3.7979,-3.9234,-3.9685,-3.9782,-4.0533,-4.0787,-4.0822,-4.0913,-4.0918,-4.0912,0.0,0.0,0.0,-3.916,0.0,0.0,0.0,0.0,0.0,0.0,0.0,0.0,-3.6846,-3.6928,-3.7066,0.0,0.0,0.0,-3.7124,-3.7124,-3.7124,-3.7124,-3.7259,-3.7428,-3.7649,-3.7685,-3.7703,-3.7757,-3.7757,-3.7757,-3.7757,-3.7757,-3.7757,-3.7757,-3.7984,-3.8281,-3.8685,-3.8715,-3.8803,-3.8966,-3.9181,-3.9305,-3.935,-3.9502,-3.9502,-3.9331,-3.9514,-3.9483,-3.9331,-3.9495,-3.9575,-3.9575,-3.9575,-3.9575,-3.9575,-3.9575,-3.9712,-3.99,-3.99,-3.99,-3.99,-3.99,-3.99,-3.99,-3.2352,-3.2662,-3.3097,-3.3556,-3.3644,-3.3804,-3.4279,-3.4586,-3.4753,-3.4753,-3.5327,-3.5887,-3.6266,-3.6301,-3.6301,-3.6301,-3.6301,-3.6301,-3.6301,-3.6135,-3.598,-3.5805,-3.5611,-3.5407,-3.5201,-3.5031,-3.4961,-3.4961,-3.4787,-3.4691,-3.4707,-3.5038,-3.5316,-3.5521,-3.5876,0.0,0.0,0.0,-3.6525,-3.6943,-3.7447,0.0,-3.8322,-3.9482,-4.0141,-4.0504,-4.0903,-4.1041,-4.1018,-4.0918,-4.0912,0.0,-4.0912,-4.0359,-3.956,0.0,-3.8099,-3.7323,0.0,0.0,0.0,-3.6322,0.0,0.0,0.0,-3.6766,-3.6869,-3.6987,-3.7007,-3.7007,-3.7007,0.0,-3.7007,-3.7007,-3.7163,-3.7297,-3.7298,-3.7466,-3.7595,-3.7595,-3.7595,-3.7595,-3.7595,-3.7595,-3.7595,-3.7595,-3.7721,-3.7949,-3.8281,-3.8298,-3.824,-3.8107,-3.8611,-3.8748,-3.8405,-3.8904,-3.9095,-3.8985,-3.9095,-3.9168,-3.9205,-3.9168,-3.9287,-3.9483,-3.9383,-3.9414,-3.9514,-3.9514,-3.9587,-3.9712,-3.9712,-3.9712,-3.9712,-3.9712,-3.9747,-3.9804,-3.297,-3.3431,-3.3951,-3.4166,-3.4203,-3.4275,-3.449,-3.5025,-3.5404,-3.5404,-3.5921,-3.6301,-3.6301,-3.6301,-3.6301,-3.6301,-3.6237,-3.6237,-3.6301,-3.5898,-3.5677,-3.5677,-3.5316,-3.5062,-3.4991,-3.4944,-3.4944,-3.4991,-3.4675,-3.4521,-3.4594,-3.4849,-3.5038,-3.5131,-3.5788,0.0,0.0,0.0,0.0,-3.753,0.0,-3.8267,-3.8888,-3.9646,-4.0441,-4.114,-4.114,-4.114,-4.1117,-4.0965,-4.0912,-4.0877,-4.0722,-4.0112,0.0,0.0,0.0,0.0,0.0,0.0,0.0,0.0,0.0,-3.6343,0.0,0.0,0.0,0.0,0.0,0.0,0.0,0.0,0.0,0.0,0.0,0.0,0.0,-3.7171,0.0,-3.7485,-3.754,-3.7577,-3.7558,-3.7594,-3.7595,-3.7595,-3.7595,-3.7703,-3.7915,-3.7915,-3.7706,-3.722,-3.7888,-3.7998,-3.7448,-3.814,-3.8545,-3.8651,-3.8711,-3.8799,-3.8947,-3.8799,-3.8929,-3.9292,-3.916,-3.9219,-3.9376,-3.9414,-3.9408,-3.9439,-3.9489,-3.9514,-3.9514,-3.9514,-3.9575,-3.967,-3.3258,-3.3057,-3.3439,-3.4389,-3.4534,-3.4878,-3.5897,-3.6111,-3.618,-3.618,-3.6249,-3.6301,-3.6301,-3.6301,0.0,0.0,-3.6045,-3.5963,-3.628,-3.5655,-3.527,-3.527,-3.4937,-3.4594,-3.4234,-3.3984,-3.4,-3.4209,-3.3949,-3.3924,-3.4176,-3.4226,-3.4423,-3.4763,-3.5155,0.0,0.0,0.0,-3.7426,0.0,-3.8922,-3.9491,0.0,-4.0463,-4.0825,-4.0918,-4.0918,-4.0918,-4.0918,0.0,-4.0912,-4.0791,0.0,-3.9319,-3.8577,-3.7858,0.0,0.0,0.0,0.0,0.0,0.0,-3.6301,0.0,0.0,0.0,-3.6343,-3.6385,0.0,0.0,0.0,0.0,0.0,0.0,0.0,0.0,-3.5767,-3.649,-3.7085,-3.7085,-3.7373,-3.7539,-3.7353,-3.7503,-3.7595,-3.7595,-3.7595,-3.7613,-3.7631,-3.7667,-3.731,-3.6539,-3.6831,-3.6964,-3.689,-3.7221,-3.7621,-3.8085,-3.8332,-3.8332,-3.8135,-3.8348,-3.846,-3.8538,-3.8758,-3.8848,-3.8892,-3.9073,-3.9156,-3.9183,-3.9414,-3.9514,-3.9514,-3.9514,-3.9514,-3.9508,-3.4397,-3.4474,0.0,-3.5217,-3.529,-3.5457,-3.595,-3.6023,-3.6088,-3.628,-3.6131,-3.6071,0.0,0.0,0.0,0.0,0.0,-3.5871,0.0,0.0,-3.4913,-3.4913,-3.4554,-3.4275,-3.4101,-3.4,-3.4,-3.4101,-3.4,-3.4,-3.4101,-3.4349,-3.4546,-3.4715,-3.5038,0.0,-3.6474,0.0,-3.7779,0.0,0.0,0.0,0.0,-4.0774,-4.0912,-4.0912,-4.0912,-4.0912,-4.0912,0.0,-4.0912,0.0,0.0,0.0,0.0,0.0,0.0,0.0,0.0,0.0,0.0,0.0,0.0,0.0,-3.6301,0.0,-3.6301,0.0,0.0,0.0,0.0,0.0,0.0,0.0,-3.6315,0.0,0.0,0.0,-3.7007,0.0,0.0,0.0,-3.7297,-3.7484,-3.7595,-3.7595,-3.7595,-3.7595,-3.7595,-3.7166,-3.6524,-3.5739,-3.5823,-3.5659,-3.5246,-3.6226,-3.6854,-3.7075,-3.7664,-3.7949,-3.8001,-3.7949,-3.8103,-3.8399,-3.835,-3.8415,-3.8556,-3.8664,-3.8691,-3.8707,-3.8822,-3.897,-3.9082,-3.9082,-3.9137,-3.9232,-3.5198,0.0,0.0,0.0,-3.5515,-3.5583,-3.5783,-3.5717,-3.5788,-3.6237,-3.6023,0.0,-3.6259,-3.6301,0.0,0.0,-3.5985,-3.5805,0.0,0.0,-3.4691,0.0,0.0,0.0,-3.4101,-3.4025,-3.4,-3.4,-3.3924,-3.3873,-3.3873,-3.425,-3.4423,-3.4448,0.0,-3.5857,-3.6791,0.0,-3.8345,-3.9715,-3.9939,-4.0394,-4.0912,-4.0912,-4.0912,-4.0912,-4.0912,-4.0912,-4.0912,-4.0912,-4.0756,-4.0422,-3.9646,-3.8888,-3.8146,0.0,0.0,0.0,-3.6301,0.0,0.0,0.0,0.0,0.0,0.0,0.0,0.0,0.0,0.0,0.0,0.0,0.0,0.0,0.0,0.0,-3.6412,0.0,-3.6329,0.0,0.0,0.0,0.0,0.0,-3.7353,-3.7448,-3.7503,-3.7521,-3.7539,-3.7613,-3.6827,-3.6024,-3.5222,-3.499,-3.4634,-3.4115,-3.5204,-3.5989,-3.6399,-3.6988,-3.7488,-3.788,-3.7685,-3.781,-3.817,-3.8052,-3.8119,-3.8302,-3.8366,-3.8399,-3.8382,-3.8318,-3.8399,-3.859,-3.8667,-3.874,-3.8873,-3.5191,-3.4944,0.0,0.0,0.0,-3.4961,-3.5694,-3.5476,-3.5476,0.0,0.0,0.0,0.0,0.0,0.0,0.0,0.0,-3.5805,-3.5805,0.0,-3.4691,0.0,0.0,-3.4101,0.0,-3.3848,-3.3694,-3.3694,-3.345,-3.3335,-3.3319,-3.3591,-3.372,-3.3777,-3.5085,-3.5975,-3.6535,-3.8285,-3.9296,-3.9767,-4.0549,-4.0877,-4.0912,0.0,-4.0912,-4.0912,-4.0912,-4.0912,-4.0912,-4.0912,-4.0394,-3.9612,-3.887,-3.8134,0.0,0.0,0.0,0.0,0.0,-3.6301,0.0,-3.6301,0.0,0.0,0.0,0.0,-3.6301,0.0,0.0,0.0,0.0,0.0,0.0,0.0,0.0,0.0,0.0,0.0,0.0,0.0,0.0,0.0,0.0,-3.7027,-3.7105,0.0,-3.7297,-3.7391,-3.7577,-3.6827,-3.6024,-3.5222,-3.4509,-3.4133,-3.4115,-3.4151,-3.4918,-3.6399,-3.6435,-3.6863,-3.7613,-3.7595,-3.7613,-3.7631,-3.788,-3.8001,-3.8035,-3.8285,-3.8399,-3.8366,-3.8119,-3.8018,-3.8052,-3.8318,-3.8415,-3.8415,0.0,0.0,0.0,0.0,0.0,0.0,0.0,-3.5293,0.0,0.0,-3.5854,0.0,0.0,-3.6301,-3.6301,0.0,0.0,-3.5407,-3.5407,-3.4706,0.0,0.0,0.0,-3.4101,0.0,0.0,0.0,-3.3975,-3.3873,-3.3822,-3.3822,-3.3924,-3.4233,-3.4726,-3.5159,-3.6137,0.0,0.0,0.0,0.0,0.0,-4.0229,-4.0534,0.0,-4.0912,-4.0912,-4.0912,-4.0728,-4.0441,-3.9929,-3.9418,-3.879,-3.7792,-3.7296,-3.6999,-3.6461,-3.6301,-3.6301,-3.6301,-3.6301,-3.6301,-3.6301,-3.6301,-3.6301,-3.6301,0.0,0.0,0.0,0.0,0.0,0.0,0.0,0.0,0.0,0.0,0.0,0.0,0.0,0.0,0.0,0.0,0.0,0.0,0.0,0.0,-3.7297,-3.7428,-3.7308,-3.6827,-3.6042,-3.5275,-3.4508,-3.3705,-3.3311,-3.3311,-3.383,-3.4365,-3.49,-3.5917,-3.6542,-3.6809,-3.7363,-3.7595,-3.7613,-3.7703,-3.7739,-3.7739,-3.7827,-3.7862,-3.7845,-3.7775,-3.7739,-3.7775,-3.8035,-3.8136,-3.8153,-3.4151,0.0,0.0,0.0,0.0,0.0,0.0,0.0,0.0,0.0,-3.5588,0.0,-3.5898,0.0,-3.6049,0.0,-3.5459,-3.5155,-3.5031,-3.4578,0.0,-3.4101,-3.4101,0.0,0.0,0.0,0.0,0.0,0.0,-3.3899,-3.3838,-3.4182,-3.4604,-3.5072,0.0,-3.6682,-3.7929,-3.8167,-3.8785,0.0,0.0,-3.9782,0.0,0.0,-4.0415,-4.0871,-4.0745,-4.0527,-4.0161,-3.9282,-3.8621,-3.8011,-3.7023,-3.6541,-3.6243,-3.599,-3.6006,-3.6131,-3.6131,-3.6216,-3.6301,-3.6301,-3.6301,-3.6301,-3.6301,-3.6301,-3.628,0.0,0.0,0.0,0.0,0.0,0.0,0.0,0.0,0.0,0.0,-3.5062,0.0,0.0,0.0,0.0,0.0,0.0,-3.6736,-3.7163,-3.692,-3.6643,-3.6399,-3.54,-3.4597,-3.4133,-3.3328,-3.29,-3.29,-3.3401,-3.383,-3.4133,-3.5382,-3.6114,-3.6435,-3.7238,-3.7595,-3.7595,-3.7595,-3.7595,-3.7595,-3.7595,-3.7595,-3.7595,-3.7595,-3.7595,-3.7613,-3.7792,-3.7863,-3.7915,-3.4101,0.0,0.0,0.0,-3.4101,0.0,0.0,0.0,-3.4382,0.0,-3.5201,-3.5201,-3.5201,-3.5543,-3.5611,-3.5247,-3.5178,-3.5055,-3.4715,-3.4667,0.0,0.0,-3.4101,-3.4101,-3.4101,0.0,0.0,0.0,0.0,-3.3597,-3.3398,-3.4367,-3.4867,-3.4979,-3.6572,0.0,-3.7959,-3.8656,-3.9162,-3.9508,-3.9508,-3.9475,-3.94,-3.8757,-3.9442,-4.0672,-4.0309,-4.0161,-3.9968,-3.8858,-3.7945,-3.7184,-3.653,-3.5787,-3.5178,-3.5201,-3.5476,-3.5783,-3.5783,-3.5985,-3.6259,-3.6259,-3.6259,-3.6259,-3.6259,-3.6259,-3.6174,-3.5871,0.0,0.0,0.0,0.0,-3.5178,0.0,0.0,0.0,0.0,0.0,0.0,0.0,0.0,0.0,0.0,0.0,-3.5727,-3.6871,-3.5886,-3.5553,-3.6292,-3.4901,-3.4081,-3.4027,-3.3294,-3.29,-3.29,-3.29,-3.3293,-3.4062,-3.4847,-3.5614,-3.6363,-3.722,-3.7595,-3.7595,-3.7595,-3.7595,-3.7595,-3.7595,-3.7595,-3.7595,-3.7595,-3.7595,-3.7595,-3.7595,-3.7595,-3.7631,-3.4101,-3.4101,-3.4101,0.0,-3.4101,-3.4126,0.0,0.0,0.0,0.0,-3.5055,-3.5201,-3.5201,-3.5293,-3.5316,-3.5224,-3.4984,0.0,0.0,0.0,0.0,-3.4101,-3.4101,-3.4101,-3.4101,-3.4101,0.0,-3.4,0.0,0.0,-3.4346,-3.4854,-3.5524,-3.6318,0.0,0.0,-3.8284,-3.8463,-3.829,-3.7894,-3.7894,-3.7765,-3.7582,-3.74,-3.7761,-3.8364,-3.8267,-3.8045,-3.7652,-3.6804,-3.619,-3.5684,-3.5275,-3.4984,-3.4866,-3.5131,-3.527,-3.5362,-3.5362,-3.543,-3.5481,-3.5481,-3.5481,-3.5481,-3.5481,-3.5481,-3.5526,-3.5761,-3.5362,-3.5031,-3.5178,-3.5008,-3.4835,0.0,0.0,0.0,0.0,0.0,0.0,-3.425,0.0,0.0,0.0,-3.5661,-3.5989,-3.6326,-3.5904,-3.5511,-3.5151,-3.434,-3.3611,-3.2991,-3.2943,-3.29,-3.29,-3.29,-3.3007,-3.3221,-3.4561,-3.5311,-3.556,-3.697,-3.7595,-3.7595,-3.7595,-3.7595,-3.7595,-3.7595,-3.7595,-3.7595,-3.7595,-3.7595,-3.7595,-3.7595,-3.7595,-3.7613,-3.4101,0.0,0.0,-3.4101,0.0,0.0,-3.4101,-3.43,0.0,-3.4448,-3.4873,0.0,-3.4754,-3.5015,-3.5085,-3.4754,-3.4554,0.0,-3.4448,0.0,0.0,-3.4101,-3.4101,-3.4101,-3.4101,-3.4101,0.0,-3.4101,0.0,0.0,-3.4276,-3.5233,-3.5781,-3.5961,0.0,-3.7274,-3.7922,-3.7922,-3.7695,-3.7295,-3.7295,-3.72,0.0,-3.7065,-3.7042,-3.6918,-3.6613,-3.667,-3.6759,-3.5833,-3.54,-3.5107,-3.4603,-3.4448,-3.4472,-3.4658,-3.4826,-3.4984,-3.4984,-3.5085,-3.5201,-3.5201,-3.5201,-3.5201,-3.5201,-3.5201,-3.5224,-3.5293,-3.4984,-3.4691,-3.4706,-3.4554,-3.4448,0.0,0.0,0.0,0.0,0.0,0.0,0.0,-3.4101,0.0,-3.4682,-3.5184,-3.5458,-3.5403,-3.496,-3.4439,-3.3826,-3.3119,-3.2599,-3.2301,-3.2453,-3.257,-3.2639,-3.2802,-3.2868,-3.2787,-3.41,-3.4883,-3.524,-3.6488,-3.7274,-3.7595,-3.7595,-3.7595,-3.7595,-3.7595,-3.7595,-3.7595,-3.7595,-3.7595,-3.7595,-3.7595,-3.7595,-3.7595,-3.4101,0.0,0.0,0.0,0.0,0.0,0.0,-3.4165,0.0,-3.4101,0.0,-3.4802,-3.4176,-3.4682,-3.4802,-3.4151,0.0,-3.4101,-3.4101,-3.4101,-3.4101,-3.4101,-3.4101,-3.4101,-3.4101,-3.4101,-3.4101,0.0,0.0,0.0,-3.387,-3.5427,-3.5733,0.0,0.0,0.0,0.0,-3.736,-3.7328,-3.7166,-3.7247,-3.7231,-3.715,-3.7053,-3.6675,-3.606,-3.5315,-3.5687,-3.6394,-3.5389,-3.5065,-3.4926,-3.4295,-3.4101,-3.4101,-3.4101,-3.4349,-3.4618,-3.4618,-3.4842,-3.5062,-3.5062,-3.5062,-3.5062,-3.5062,-3.5062,-3.4991,-3.4739,-3.4667,-3.4521,-3.4226,-3.4126,-3.4101,0.0,0.0,0.0,0.0,0.0,0.0,0.0,0.0,0.0,-3.3971,-3.4325,-3.4499,-3.4396,-3.3596,-3.294,-3.2539,-3.1769,-3.149,-3.1785,-3.1932,-3.2092,-3.2249,-3.2605,-3.2737,-3.2606,-3.3622,-3.4491,-3.5222,-3.6024,-3.6827,-3.7595,-3.7595,-3.7595,-3.7595,-3.7595,-3.7595,-3.7595,-3.7595,-3.7595,-3.7595,-3.7595,-3.7595,-3.7595,-3.4101,0.0,0.0,0.0,0.0,-3.5017,-3.5017,-3.4489,-3.4101,-3.4101,-3.4209,-3.4234,-3.4126,-3.4226,-3.4234,-3.4126,-3.4101,0.0,0.0,0.0,0.0,-3.4101,-3.4101,-3.4101,-3.4101,-3.4101,-3.4101,0.0,0.0,-3.4368,-3.4547,-3.512,-3.5491,0.0,0.0,0.0,-3.6562,-3.7711,0.0,-3.6529,-3.7096,-3.6956,-3.6416,-3.5785,-3.5503,-3.5309,-3.4554,-3.441,-3.4558,-3.4352,-3.4279,-3.4262,-3.4133,-3.4101,-3.4101,-3.4101,-3.4151,-3.4201,-3.4201,-3.425,-3.4284,-3.4284,-3.4284,-3.4284,-3.4284,-3.4284,-3.4358,-3.4643,-3.4423,-3.4275,-3.4546,-3.4325,-3.4101,-3.4101,0.0,0.0,0.0,0.0,0.0,0.0,0.0,-3.3874,0.0,-3.3588,-3.3782,-3.375,-3.2794,-3.2185,-3.2109,-3.1489,-3.1181,-3.124,-3.1416,-3.1677,-3.1966,-3.2144,-3.2368,-3.2606,-3.3622,-3.4491,-3.5222,-3.6024,-3.6827,-3.7595,-3.7595,-3.7595,-3.7595,-3.7595,-3.7595,-3.7595,-3.7595,-3.7595,-3.7595,-3.7595,-3.7595,-3.7595,0.0,0.0,0.0,0.0,0.0,0.0,-3.5768,-3.5461,-3.4975,-3.4198,-3.4584,-3.4863,-3.4677,-3.5179,-3.5433,-3.5276,-3.525,-3.525,-3.525,-3.525,-3.525,-3.525,-3.4862,-3.4651,-3.4651,-3.4295,-3.4101,-3.4101,0.0,-3.4497,-3.4196,-3.4878,-3.5023,-3.4734,0.0,-3.5946,0.0,0.0,-3.7128,-3.6837,-3.6805,-3.6594,-3.627,-3.5898,-3.5525,-3.5163,-3.4806,-3.4424,-3.4101,-3.4101,-3.4101,-3.4101,-3.4101,-3.4101,-3.4101,-3.4101,-3.4101,-3.4101,-3.4101,-3.4101,-3.4101,-3.4101,-3.4101,-3.4101,-3.4101,-3.4101,-3.4151,-3.4349,-3.4226,-3.4151,-3.4349,-3.4226,-3.4101,-3.4101,-3.4101,0.0,0.0,0.0,0.0,0.0,0.0,0.0,0.0,0.0,0.0,0.0,0.0,0.0,-3.0945,-3.0646,-3.0539,-3.0686,-3.0871,-3.1184,-3.1581,-3.186,-3.2162,-3.2455,-3.3471,-3.4388,-3.5222,-3.6024,-3.6827,-3.7595,-3.7595,-3.7595,-3.7595,-3.7595,-3.7595,-3.7595,-3.7595,-3.7595,-3.7595,-3.7595,-3.7595,-3.7595,0.0,-3.6416,0.0,0.0,-3.6513,-3.6513,-3.6513,-3.64,-3.5882,-3.4716,-3.5295,-3.574,-3.5464,-3.6186,-3.6581,-3.6329,-3.6303,-3.6303,-3.6303,-3.6303,-3.6303,-3.6303,-3.5736,-3.5412,-3.5412,-3.4862,-3.457,0.0,0.0,-3.4926,-3.3934,-3.4729,-3.4697,0.0,0.0,-3.5683,-3.6319,-3.6465,-3.6756,-3.7036,-3.6513,-3.6303,-3.6287,-3.6125,-3.5704,-3.5195,-3.5033,-3.4586,-3.4101,-3.4101,-3.4101,-3.4101,-3.4101,-3.4101,-3.4101,-3.4101,-3.4101,-3.4101,-3.4101,-3.4101,-3.4101,-3.4101,-3.4101,-3.4101,-3.4101,-3.4101,-3.4101,-3.4101,-3.4101,-3.4101,-3.4101,-3.4101,-3.4101,-3.4101,-3.4101,-3.4101,0.0,0.0,0.0,0.0,0.0,0.0,-3.2919,-3.2206,-3.1477,-3.0726,0.0,0.0,-2.9935,-2.9896,-2.9995,-3.0204,-3.0372,-3.0662,-3.1083,-3.1451,-3.1804,-3.2162,-3.3161,-3.4181,-3.517,-3.5972,-3.6791,-3.7595,-3.7595,-3.7595,-3.7595,-3.7595,-3.7595,-3.7595,-3.7595,-3.7595,-3.7595,-3.7595,-3.7595,-3.7595,0.0,0.0,0.0,0.0,0.0,-3.7198,-3.7198,-3.6707,-3.6254,-3.6108,-3.6184,-3.6216,-3.6206,-3.6281,-3.6329,-3.6303,-3.6303,-3.6303,-3.6303,-3.6303,-3.6303,-3.6303,-3.6238,-3.6206,-3.6206,-3.6141,-3.6092,0.0,0.0,-3.5685,-3.4696,-3.4787,-3.4787,-3.4728,-3.5428,-3.5932,-3.6351,-3.6967,-3.6902,-3.64,-3.6335,-3.6303,-3.6238,-3.5542,-3.526,-3.5114,-3.4441,-3.4165,-3.4101,-3.4101,-3.4101,-3.4101,-3.4101,-3.4101,-3.4101,-3.4101,-3.4101,-3.4101,-3.4101,-3.4101,-3.4101,-3.4101,-3.4101,-3.4101,-3.4101,-3.4101,-3.4101,-3.4101,-3.4101,-3.4101,-3.4101,-3.4101,-3.4101,-3.4101,-3.4101,-3.4101,-3.4101,0.0,-3.4101,-3.4101,0.0,0.0,-3.2174,-3.1438,-3.071,-3.0042,-3.0038,-3.0005,-2.9918,-2.9896,-2.9902,-2.9924,-2.9968,-3.0108,-3.0377,-3.0625,-3.103,-3.1675,-3.2621,-3.3753,-3.5049,-3.5792,-3.6664,-3.7595,-3.7595,-3.7595,-3.7595,-3.7595,-3.7595,-3.7595,-3.7595,-3.7595,-3.7595,-3.7595,-3.7595,-3.7595,-3.7566,-3.7776,-3.797,-3.797,-3.797,-3.797,-3.797,-3.7728,-3.7566,-3.7566,-3.7193,-3.6891,-3.6891,-3.7307,-3.7566,-3.7566,-3.7566,-3.7566,-3.7566,-3.7566,-3.7566,-3.7566,-3.7145,-3.6891,-3.6891,-3.6513,-3.6303,0.0,0.0,-3.6104,-3.5706,-3.5706,-3.5706,-3.569,-3.5513,-3.5743,-3.6303,-3.6108,-3.6141,-3.627,-3.5817,-3.5639,-3.5558,-3.4813,-3.4538,-3.4489,-3.4214,-3.4101,-3.4101,-3.4101,-3.4101,-3.4101,-3.4101,-3.4101,-3.4101,-3.4101,-3.4101,-3.4101,-3.4101,-3.4101,-3.4101,-3.4101,-3.4101,-3.4101,-3.4101,-3.4101,-3.4101,-3.4101,-3.4101,-3.4101,-3.4101,-3.4101,-3.4101,-3.4101,-3.4101,-3.4101,-3.4101,0.0,0.0,-3.4101,0.0,0.0,0.0,-3.1325,-3.0613,-2.9945,0.0,-2.9896,-2.9896,-2.9896,-2.9896,-2.9896,-2.9896,-3.0038,-3.0309,-3.0377,-3.0727,-3.1317,-3.282,-3.3888,-3.4576,-3.5991,-3.6863,-3.7241,-3.7241,-3.7241,-3.7241,-3.7372,-3.7428,-3.7428,-3.754,-3.7595,-3.7595,-3.7595,-3.7595,-3.7595,-3.8391,-3.8391,-3.8391,-3.8391,-3.8391,-3.8391,-3.8391,-3.8391,-3.8391,-3.8391,-3.7954,-3.7603,-3.7603,-3.81,-3.8391,-3.8391,-3.8391,-3.8391,-3.8391,-3.8391,-3.8391,-3.8391,-3.7906,0.0,-3.7603,-3.7161,-3.6918,-3.6918,-3.6918,-3.6767,-3.6459,-3.5943,-3.5835,-3.6012,-3.5378,-3.5485,-3.6115,-3.5388,-3.5372,-3.5781,-3.4961,-3.4629,-3.4607,-3.4143,-3.3975,-3.3975,-3.3975,-3.3975,-3.3975,-3.3975,-3.3924,-3.3899,-3.405,-3.4101,-3.4101,-3.4101,-3.4101,-3.4101,-3.4101,-3.4101,-3.4101,-3.4101,-3.4101,-3.4101,-3.4101,-3.4101,-3.4101,-3.4101,-3.405,-3.3975,-3.3975,-3.3924,-3.3873,-3.3873,-3.3924,-3.3949,-3.3873,-3.3924,0.0,-3.3975,-3.3184,-3.2506,-3.2037,-3.1154,-3.0409,-2.9929,-2.9896,-2.9896,-2.9896,-2.9896,-2.9896,-2.9896,-2.9896,-2.9995,-3.0177,-3.0177,-3.053,-3.1221,-3.275,-3.3768,-3.4312,-3.5925,-3.6693,-3.6693,-3.6693,-3.6693,-3.6713,-3.6933,-3.7048,-3.705,-3.7317,-3.7411,-3.7411,-3.7411,-3.7411,-3.7411,-3.8391,-3.8391,-3.8391,-3.8391,-3.8391,-3.8391,-3.8391,-3.8391,-3.8391,-3.8391,-3.8391,-3.8391,-3.8391,-3.8391,-3.8391,-3.8391,-3.8391,-3.8391,-3.8391,-3.8391,-3.8391,-3.8391,-3.8391,-3.8391,-3.8391,-3.8375,-3.8375,-3.8375,0.0,-3.7879,-3.6874,-3.5133,-3.4695,-3.5399,-3.4989,-3.5161,-3.5753,-3.5081,-3.4808,-3.4718,-3.3726,-3.3309,-3.3335,-3.3607,-3.3694,-3.3694,-3.3694,-3.3694,-3.3694,-3.3694,-3.3529,-3.3398,-3.3924,-3.4101,-3.4101,-3.4101,-3.4101,-3.4101,-3.4101,-3.4101,-3.4101,-3.4101,-3.4101,-3.4101,-3.4101,-3.4101,-3.4101,-3.4101,-3.3873,-3.3694,-3.3694,-3.3477,-3.3309,-3.3309,-3.3529,-3.3607,-3.3361,-3.3555,0.0,-3.3694,-3.2469,-3.1718,-3.1988,-3.0739,-2.9896,-2.9896,-2.9896,-2.9896,-2.9896,-2.9896,-2.9896,-2.9896,-2.9896,-2.9896,-2.9902,-2.9902,-3.0419,-3.1418,-3.216,-3.3184,-3.4421,-3.544,-3.5907,-3.5907,-3.5907,-3.5907,-3.595,-3.627,-3.6395,-3.6437,-3.6834,-3.7007,-3.7007,-3.7007,-3.7007,-3.7007,-3.8391,-3.8391,-3.8391,-3.8391,-3.8391,-3.8391,-3.8391,-3.8391,-3.8391,-3.8391,-3.8391,-3.8391,-3.8391,-3.8391,-3.8391,-3.8391,-3.8391,-3.8391,-3.8391,-3.8391,-3.8391,-3.8391,-3.8391,-3.8391,-3.8391,-3.8391,-3.8307,-3.8075,-3.8075,-3.7534,-3.6546,-3.5526,-3.5181,-3.5371,-3.4757,-3.4578,-3.4736,-3.407,-3.3784,-3.3742,-3.3414,-3.3309,-3.3309,-3.3398,-3.3424,-3.3424,-3.3424,-3.3424,-3.3424,-3.3424,-3.3372,-3.3335,-3.3503,-3.3684,-3.3822,-3.3822,-3.3949,-3.4101,-3.4101,-3.4101,-3.4101,-3.4101,-3.4101,-3.4101,-3.4101,-3.4101,-3.405,-3.3873,-3.3745,-3.3694,-3.3694,-3.3477,-3.3346,-3.3555,-3.3503,-3.3398,-3.3293,-3.3372,-3.325,-3.28,-3.1917,-3.118,-3.0823,-3.0092,-2.9621,-2.9621,-2.9792,-2.9896,-2.9896,-2.9896,-2.9896,-2.9896,-2.9896,-2.9896,-2.9896,-3.0344,-3.0729,-3.1085,-3.2551,-3.3852,-3.4964,-3.529,-3.5413,-3.5413,-3.5413,-3.5413,-3.5436,-3.5676,-3.5955,-3.6224,-3.6474,-3.6774,-3.7007,-3.7007,-3.7007,-3.7007,-3.8391,-3.8391,-3.8391,-3.8391,-3.8391,-3.8391,-3.8391,-3.8391,-3.8391,-3.8391,-3.8391,-3.8391,-3.8391,-3.8391,-3.8391,-3.8391,-3.8391,-3.8335,-3.8205,-3.8205,-3.8148,-3.8033,-3.8033,-3.8033,-3.8033,-3.8033,-3.7931,-3.7695,-3.747,-3.6905,-3.6008,-3.5296,-3.4924,-3.4825,-3.4198,-3.3871,-3.3747,-3.3323,-3.315,-3.3123,-3.3027,-3.2958,-3.2973,-3.3096,-3.315,-3.315,-3.315,-3.315,-3.315,-3.315,-3.3069,-3.2985,-3.3123,-3.324,-3.345,-3.3658,-3.3822,-3.3975,-3.4075,-3.4025,-3.3975,-3.4075,-3.4025,-3.3949,-3.3949,-3.3949,-3.3924,-3.3873,-3.3771,-3.3694,-3.3694,-3.3477,-3.3335,-3.3372,-3.3346,-3.3214,-3.2985,-3.3054,-3.2898,-3.2175,-3.1483,-3.084,-3.0243,-2.9672,-2.938,-2.9493,-2.9643,-2.9792,-2.988,-2.9896,-2.9896,-2.9896,-2.9896,-3.0026,-3.0263,-3.0678,-3.1179,-3.1753,-3.3126,-3.4134,-3.4778,-3.4778,-3.4778,-3.4778,-3.4778,-3.4778,-3.4802,-3.5075,-3.5351,-3.5616,-3.6011,-3.6346,-3.6571,-3.6673,-3.6751,-3.6751,-3.8335,-3.8335,-3.8335,-3.8335,-3.8335,-3.8335,-3.8363,-3.8363,-3.8363,-3.8391,-3.8391,-3.8391,-3.8391,-3.8391,-3.8391,-3.8391,-3.8363,-3.8234,-3.7915,-3.7886,-3.774,-3.7417,-3.7417,-3.7417,-3.7417,-3.7417,-3.7371,-3.7308,-3.6614,-3.5919,-3.5252,-3.4514,-3.4034,-3.377,-3.339,-3.3096,-3.287,-3.287,-3.287,-3.2843,-3.2523,-3.2398,-3.2425,-3.2746,-3.287,-3.287,-3.287,-3.287,-3.287,-3.287,-3.2648,-3.2453,-3.2773,-3.287,-3.3005,-3.3529,-3.3668,-3.372,-3.4,-3.3873,-3.372,-3.3975,-3.3848,-3.3668,-3.3668,-3.3668,-3.3745,-3.3975,-3.3822,-3.3642,-3.3642,-3.3424,-3.3176,-3.2924,-3.3096,-3.3054,-3.248,-3.2676,-3.2589,-3.1784,-3.1155,-3.0585,-3.0108,-2.947,-2.9167,-2.9425,-2.947,-2.9576,-2.9836,-2.9858,-2.988,-2.9896,-2.9945,-3.0263,-3.0904,-3.1001,-3.1785,-3.3186,-3.3793,-3.4101,-3.4101,-3.4101,-3.4101,-3.4101,-3.4101,-3.4101,-3.4126,-3.4497,-3.4667,-3.4763,-3.547,-3.5739,-3.5805,-3.611,-3.6237,-3.6259,-3.7623,-3.7623,-3.7623,-3.7623,-3.7623,-3.7711,-3.7988,-3.8017,-3.8103,-3.8363,-3.8391,-3.8391,-3.8391,-3.8391,-3.8391,-3.8391,-3.8177,-3.7972,-3.7915,-3.7653,-3.746,-3.7417,-3.7417,-3.7417,-3.7417,-3.7417,-3.703,-3.6246,-3.5369,-3.457,-3.3857,-3.3175,-3.2822,-3.2739,-3.2667,-3.2563,-3.2523,-3.2523,-3.2523,-3.2523,-3.2425,-3.2398,-3.2425,-3.2496,-3.2523,-3.2523,-3.2523,-3.2523,-3.2523,-3.2523,-3.2453,-3.2425,-3.2496,-3.2676,-3.2978,-3.3309,-3.3398,-3.345,-3.372,-3.3607,-3.3398,-3.3477,-3.345,-3.3398,-3.3398,-3.3398,-3.3346,-3.3203,-3.3123,-3.3085,-3.3085,-3.2839,-3.2687,-3.287,-3.273,-3.2563,-3.2425,-3.2453,-3.2075,-3.086,-3.0598,-3.0052,-2.8921,-2.8809,-2.8826,-2.8873,-2.9098,-2.9213,-2.9282,-2.9486,-2.9687,-2.988,-3.0393,-3.0726,-3.0904,-3.2028,-3.3,-3.3874,-3.402,-3.4101,-3.4101,-3.4101,-3.4101,-3.4101,-3.4101,-3.4101,-3.4101,-3.4201,-3.4423,-3.4715,-3.4906,-3.5125,-3.5362,-3.543,-3.5655,-3.5876,-3.7417,-3.7417,-3.7417,-3.7417,-3.7417,-3.7506,-3.7857,-3.7915,-3.8017,-3.8363,-3.8391,-3.8391,-3.8391,-3.8391,-3.8391,-3.8391,-3.8234,-3.8075,-3.7915,-3.774,-3.7565,-3.7417,-3.7417,-3.7328,-3.721,-3.721,-3.6715,-3.5731,-3.4887,-3.4106,-3.3398,-3.2705,-3.2398,-3.2398,-3.2398,-3.2398,-3.2398,-3.2398,-3.2398,-3.2398,-3.2398,-3.2398,-3.2398,-3.2398,-3.2398,-3.2398,-3.2398,-3.2398,-3.2398,-3.2398,-3.2398,-3.2398,-3.2398,-3.2523,-3.273,-3.3043,-3.3123,-3.3176,-3.345,-3.3335,-3.3123,-3.3123,-3.3123,-3.3123,-3.3123,-3.3123,-3.3096,-3.3085,-3.3085,-3.3085,-3.3085,-3.2947,-3.2839,-3.2897,-3.2746,-3.2578,-3.2425,-3.2398,-3.1905,-3.0555,-3.0402,-2.9863,-2.8535,-2.8517,-2.8605,-2.8685,-2.9139,-2.9533,-2.9751,-3.0217,-3.0387,-3.0219,-3.0665,-3.1228,-3.1915,-3.3,-3.3744,-3.4101,-3.4101,-3.4101,-3.4101,-3.4101,-3.4101,-3.4101,-3.4101,-3.4101,-3.4101,-3.4101,-3.4226,-3.4448,-3.4618,-3.4811,-3.4984,-3.5131,-3.5339,-3.5498,-3.7268,-3.7268,-3.7268,-3.7268,-3.7268,-3.7387,-3.7711,-3.777,-3.7873,-3.8221,-3.825,-3.8278,-3.8307,-3.8335,-3.8335,-3.8408,-3.8335,-3.8205,-3.7915,-3.7857,-3.7711,-3.7417,-3.7417,-3.7284,-3.7015,-3.6938,-3.646,-3.5506,-3.4936,-3.4227,-3.3398,-3.2813,-3.249,-3.2398,-3.2398,-3.2398,-3.2398,-3.2398,-3.2398,-3.2398,-3.2398,-3.2398,-3.2398,-3.2398,-3.2398,-3.2398,-3.2398,-3.2398,-3.2398,-3.2398,-3.2398,-3.2398,-3.2398,-3.2398,-3.2453,-3.2746,-3.2816,-3.2897,-3.315,-3.3043,-3.2816,-3.2816,-3.2816,-3.2816,-3.2816,-3.2816,-3.2881,-3.3107,-3.316,-3.316,-3.316,-3.316,-3.3081,-3.2854,-3.2816,-3.2746,-3.2425,-3.2398,-3.1905,-3.0555,-3.0479,-3.0017,-2.8688,-2.8642,-2.8762,-2.894,-2.9524,-3.0112,-3.0593,-3.1214,-3.1358,-3.0934,-3.1128,-3.1875,-3.3226,-3.3809,-3.4101,-3.4101,-3.4101,-3.4101,-3.4101,-3.4101,-3.4101,-3.4101,-3.4101,-3.4101,-3.4101,-3.4101,-3.4101,-3.4126,-3.4472,-3.4594,-3.4643,-3.492,-3.5085,-3.5108,-3.6631,-3.6631,-3.6631,-3.6631,-3.6631,-3.6754,-3.709,-3.7151,-3.7255,-3.7522,-3.7565,-3.7653,-3.7943,-3.7988,-3.8103,-3.8363,-3.8132,-3.7943,-3.7915,-3.7637,-3.7431,-3.7417,-3.7417,-3.7284,-3.7015,-3.6708,-3.6215,-3.5506,-3.5414,-3.4675,-3.3398,-3.329,-3.2936,-3.2398,-3.2398,-3.2398,-3.2398,-3.2398,-3.2398,-3.2398,-3.2398,-3.2398,-3.2398,-3.2398,-3.2398,-3.2398,-3.2398,-3.2398,-3.2398,-3.2398,-3.2398,-3.2398,-3.2398,-3.2398,-3.2425,-3.2453,-3.248,-3.2551,-3.2854,-3.273,-3.248,-3.248,-3.248,-3.248,-3.248,-3.248,-3.248,-3.2535,-3.2535,-3.2535,-3.2535,-3.2535,-3.2535,-3.248,-3.248,-3.2453,-3.2425,-3.2398,-3.1905,-3.0555,-3.0905,-3.072,-2.9381,-2.9756,-3.0104,-3.013,-3.0222,-3.0438,-3.0736,-3.107,-3.1602,-3.2343,-3.2619,-3.3129,-3.3939,-3.4052,-3.4101,-3.4101,-3.4101,-3.4101,-3.4101,-3.4101,-3.4101,-3.4101,-3.4101,-3.4101,-3.4101,-3.4101,-3.4101,-3.4101,-3.4176,-3.4201,-3.4201,-3.4234,-3.4497,-3.4739,-3.6492,-3.6492,-3.6492,-3.6492,-3.6492,-3.6616,-3.6938,-3.7015,-3.7105,-3.7358,-3.7417,-3.7476,-3.7608,-3.7623,-3.7682,-3.7844,-3.7711,-3.7623,-3.7623,-3.7506,-3.7417,-3.7417,-3.7417,-3.7284,-3.7015,-3.6677,-3.6338,-3.603,-3.5691,-3.5153,-3.4506,-3.3752,-3.3229,-3.2921,-3.2552,-3.2398,-3.2398,-3.2398,-3.2398,-3.2398,-3.2398,-3.2398,-3.2398,-3.2398,-3.2398,-3.2398,-3.2398,-3.2398,-3.2398,-3.2398,-3.2398,-3.2398,-3.2398,-3.2398,-3.2398,-3.2398,-3.2398,-3.2425,-3.2578,-3.2523,-3.2398,-3.2398,-3.2398,-3.2398,-3.2398,-3.2398,-3.2398,-3.2398,-3.2398,-3.2398,-3.2398,-3.2398,-3.2398,-3.2398,-3.2398,-3.2398,-3.2398,-3.2398,-3.2028,-3.1059,-3.1197,-3.1012,-3.0017,-3.0217,-3.0402,-3.0402,-3.0735,-3.1067,-3.1311,-3.1831,-3.2461,-3.3198,-3.3507,-3.3777,-3.4101,-3.4101,-3.4101,-3.4101,-3.4101,-3.4101,-3.4101,-3.4101,-3.4101,-3.4101,-3.4101,-3.4101,-3.4101,-3.4101,-3.4101,-3.4101,-3.4101,-3.4101,-3.4101,-3.4101,-3.4226,-3.4349,-3.6492,-3.6492,-3.6492,-3.6492,-3.6492,-3.6585,-3.6847,-3.6877,-3.6953,-3.7148,-3.7178,-3.7208,-3.7314,-3.7314,-3.7328,-3.7387,-3.7328,-3.7314,-3.7314,-3.7238,-3.7238,-3.7387,-3.7328,-3.721,-3.6999,-3.6677,-3.6492,-3.6492,-3.5968,-3.566,-3.5491,-3.4383,-3.3706,-3.3383,-3.2859,-3.2552,-3.2398,-3.2398,-3.2398,-3.2398,-3.2398,-3.2398,-3.2398,-3.2398,-3.2398,-3.2398,-3.2398,-3.2398,-3.2398,-3.2398,-3.2398,-3.2398,-3.2287,-3.2315,-3.237,-3.2259,-3.2315,-3.2398,-3.2398,-3.2398,-3.2398,-3.2398,-3.2398,-3.2398,-3.2398,-3.2398,-3.2398,-3.2398,-3.2398,-3.2398,-3.2398,-3.2398,-3.2398,-3.2398,-3.2398,-3.2398,-3.2398,-3.2398,-3.2136,-3.1486,-3.1547,-3.1366,-3.0705,-3.0755,-3.0848,-3.0848,-3.1336,-3.1762,-3.2044,-3.26,-3.3123,-3.3607,-3.3924,-3.4101,-3.4101,-3.4101,-3.4101,-3.4101,-3.4101,-3.4101,-3.4101,-3.4101,-3.4101,-3.4101,-3.4101,-3.4101,-3.4101,-3.4101,-3.4101,-3.4101,-3.4101,-3.4101,-3.4101,-3.4101,-3.4101,-3.4101,-3.6492,-3.6492,-3.6492,-3.6492,-3.6492,-3.6523,-3.6523,-3.6523,-3.6554,-3.6554,-3.6585,-3.6677,-3.6999,-3.703,-3.7135,-3.7387,-3.715,-3.703,-3.703,-3.6739,-3.6816,-3.7387,-3.7165,-3.703,-3.7015,-3.6677,-3.6492,-3.6492,-3.6445,-3.6107,-3.5506,-3.5368,-3.4645,-3.3398,-3.3352,-3.2982,-3.2398,-3.2398,-3.2398,-3.2398,-3.2398,-3.2398,-3.2398,-3.2398,-3.2398,-3.2398,-3.2398,-3.2398,-3.2398,-3.2398,-3.2398,-3.2315,-3.1894,-3.2064,-3.2315,-3.1866,-3.2064,-3.2398,-3.2398,-3.2398,-3.2398,-3.2398,-3.2398,-3.2398,-3.2398,-3.2398,-3.2398,-3.2398,-3.2398,-3.2398,-3.2398,-3.2398,-3.2398,-3.2398,-3.2398,-3.2398,-3.2398,-3.2398,-3.2136,-3.1486,-3.1936,-3.2044,-3.1382,-3.189,-3.2244,-3.2244,-3.229,-3.2473,-3.2792,-3.2881,-3.3032,-3.3335,-3.3822,-3.4101,-3.4101,-3.4101,-3.4101,-3.4101,-3.4101,-3.4101,-3.4101,-3.4101,-3.4101,-3.4101,-3.4101,-3.4101,-3.4101,-3.4101,-3.4101,-3.4101,-3.4101,-3.4101,-3.4101,-3.4101,-3.4101,-3.4101,-3.6492,-3.6492,-3.6492,-3.6492,-3.6492,-3.6492,-3.6492,-3.6492,-3.6492,-3.6492,-3.6492,-3.6554,-3.6693,-3.6677,-3.6739,-3.6831,-3.6739,-3.6677,-3.6677,-3.6554,-3.66,-3.6831,-3.6739,-3.6677,-3.6677,-3.6554,-3.6492,-3.6492,-3.6492,-3.6368,-3.6107,-3.5676,-3.5199,-3.466,-3.3478,-3.2988,-3.2954,-3.2275,-3.2148,-3.2398,-3.2398,-3.2398,-3.2398,-3.2398,-3.2398,-3.237,-3.2064,-3.1951,-3.1923,-3.1623,-3.1537,-3.1508,-3.1321,-3.1408,-3.1508,-3.1321,-3.161,-3.1951,-3.1951,-3.2176,-3.2342,-3.2035,-3.2176,-3.2398,-3.2398,-3.2398,-3.2398,-3.2398,-3.2398,-3.2315,-3.2007,-3.2203,-3.2299,-3.2007,-3.2203,-3.2398,-3.2398,-3.2398,-3.2305,-3.2044,-3.2228,-3.229,-3.2028,-3.2244,-3.2398,-3.2398,-3.2398,-3.2453,-3.2578,-3.2773,-3.2951,-3.3058,-3.3398,-3.3668,-3.3848,-3.4025,-3.4101,-3.4101,-3.4101,-3.4101,-3.4101,-3.4101,-3.4101,-3.4101,-3.4101,-3.4101,-3.4101,-3.4101,-3.4101,-3.4101,-3.4101,-3.4101,-3.4101,-3.4101,-3.4101,-3.4101,-3.6492,-3.6492,-3.6492,-3.6492,-3.6492,-3.6492,-3.6492,-3.6492,-3.6492,-3.6492,-3.6492,-3.6492,-3.6492,-3.6492,-3.6492,-3.6492,-3.6352,-3.6258,-3.6258,-3.6085,-3.6163,-3.6492,-3.6352,-3.6258,-3.6258,-3.6085,-3.599,-3.599,-3.599,-3.599,-3.5975,-3.5519,-3.52,-3.4957,-3.3653,-3.3006,-3.2878,-3.2105,-3.1905,-3.2176,-3.2176,-3.2259,-3.2398,-3.2398,-3.2315,-3.2148,-3.1824,-3.1625,-3.1437,-3.1117,-3.0999,-3.097,-3.0822,-3.0792,-3.0792,-3.0792,-3.1117,-3.1408,-3.1117,-3.148,-3.1936,-3.1923,-3.1951,-3.1992,-3.2148,-3.2076,-3.1964,-3.1964,-3.1964,-3.1851,-3.1552,-3.1737,-3.1866,-3.1523,-3.1737,-3.202,-3.2148,-3.2176,-3.2231,-3.2398,-3.2259,-3.2176,-3.2176,-3.2176,-3.2176,-3.2176,-3.2315,-3.2398,-3.2398,-3.2621,-3.2746,-3.2746,-3.3016,-3.3256,-3.345,-3.3797,-3.3975,-3.3975,-3.405,-3.4101,-3.4101,-3.4101,-3.4101,-3.4101,-3.4101,-3.4101,-3.4101,-3.4101,-3.4101,-3.4101,-3.4101,-3.4101,-3.4101,-3.4101,-3.4101,-3.4101,-3.6492,-3.6492,-3.6492,-3.6492,-3.6492,-3.6492,-3.6492,-3.6492,-3.6492,-3.6492,-3.6492,-3.6492,-3.6492,-3.6492,-3.6492,-3.6492,-3.599,-3.5688,-3.5688,-3.5187,-3.5382,-3.6429,-3.599,-3.5688,-3.5688,-3.5172,-3.4909,-3.4909,-3.4909,-3.4909,-3.4909,-3.4909,-3.4537,-3.3932,-3.3885,-3.3164,-3.191,-3.1895,-3.1827,-3.171,-3.171,-3.1979,-3.2398,-3.2398,-3.2092,-3.171,-3.171,-3.1379,-3.0999,-3.0999,-3.0999,-3.0911,-3.0433,-3.0282,-3.0282,-3.0296,-3.0613,-3.0792,-2.9867,-3.0282,-3.1219,-3.216,-3.168,-3.1117,-3.1596,-3.1321,-3.0999,-3.0999,-3.0999,-3.0999,-3.0999,-3.0999,-3.0999,-3.0999,-3.0999,-3.1175,-3.161,-3.171,-3.1866,-3.2327,-3.1979,-3.171,-3.171,-3.171,-3.171,-3.171,-3.212,-3.2398,-3.2398,-3.2398,-3.2398,-3.2398,-3.2718,-3.2885,-3.2885,-3.3424,-3.3694,-3.3694,-3.3975,-3.4101,-3.4101,-3.4101,-3.4101,-3.4101,-3.4101,-3.4101,-3.4101,-3.4101,-3.4101,-3.4101,-3.4101,-3.4101,-3.4101,-3.4101,-3.4101,-3.4101,-3.6492,-3.6492,-3.6492,-3.6492,-3.6492,-3.6492,-3.6492,-3.6492,-3.6492,-3.6492,-3.6148,-3.5958,-3.5958,-3.5591,-3.5382,-3.5382,-3.5219,-3.5154,-3.5154,-3.4975,-3.5041,-3.535,-3.5219,-3.5154,-3.5154,-3.4975,-3.4909,-3.4909,-3.4909,-3.4909,-3.4909,-3.4909,-3.4773,-3.4581,-3.3747,-3.3372,-3.3221,-3.1936,-3.1579,-3.1812,-3.1382,-3.1277,-3.1422,-3.1422,-3.1335,-3.1175,-3.0851,-3.0613,-3.0463,-3.0144,-3.0021,-2.9991,-2.9837,-3.0021,-3.0235,-2.9898,-3.0144,-3.0433,-3.0174,-3.0052,-3.016,-3.0777,-3.0955,-3.1029,-3.1175,-3.1087,-3.0999,-3.0999,-3.0999,-3.0911,-3.0583,-3.0792,-3.0881,-3.0553,-3.0792,-3.1058,-3.1204,-3.1204,-3.1263,-3.1393,-3.1277,-3.1204,-3.1204,-3.1204,-3.1204,-3.1204,-3.1638,-3.1894,-3.1894,-3.1894,-3.1894,-3.1894,-3.1695,-3.1581,-3.1581,-3.2807,-3.3424,-3.3424,-3.3503,-3.3555,-3.3555,-3.372,-3.3822,-3.3822,-3.4025,-3.4101,-3.4101,-3.4101,-3.4101,-3.4101,-3.4101,-3.4101,-3.4101,-3.4101,-3.4101,-3.4101,-3.5847,-3.5847,-3.5847,-3.5847,-3.5847,-3.5847,-3.5847,-3.5847,-3.5847,-3.5847,-3.5576,-3.5382,-3.5382,-3.5073,-3.4909,-3.4909,-3.471,-3.4476,-3.4288,-3.4269,-3.4269,-3.4269,-3.4269,-3.4356,-3.4576,-3.439,-3.4269,-3.4269,-3.4269,-3.4269,-3.4269,-3.4269,-3.4269,-3.4254,-3.3556,-3.324,-3.3237,-3.2162,-3.166,-3.1576,-3.1228,-3.1041,-3.0999,-3.0999,-3.0881,-3.0703,-3.0403,-3.0174,-2.9991,-2.9696,-2.9602,-2.9602,-2.9602,-2.9789,-2.996,-2.9696,-2.982,-3.0021,-3.0021,-2.982,-2.9665,-2.996,-3.0235,-3.0493,-3.0673,-3.0583,-3.0433,-3.0433,-3.0433,-3.0342,-3.0083,-3.0251,-3.0342,-3.0083,-3.0251,-3.0523,-3.0703,-3.0732,-3.0792,-3.097,-3.0851,-3.0732,-3.0732,-3.0732,-3.0792,-3.0999,-3.1263,-3.1408,-3.1408,-3.1408,-3.1408,-3.1408,-3.1146,-3.0999,-3.0999,-3.1936,-3.2535,-3.2834,-3.316,-3.3309,-3.3309,-3.3477,-3.3555,-3.3555,-3.3694,-3.3848,-3.3949,-3.3949,-3.4,-3.4101,-3.4101,-3.4101,-3.4101,-3.4101,-3.4101,-3.4101,-3.4909,-3.4909,-3.4909,-3.4909,-3.4909,-3.4909,-3.4909,-3.4909,-3.4909,-3.4909,-3.4843,-3.481,-3.481,-3.4776,-3.4758,-3.4758,-3.4308,-3.3825,-3.3312,-3.329,-3.329,-3.329,-3.329,-3.3542,-3.4016,-3.3542,-3.329,-3.329,-3.329,-3.329,-3.329,-3.329,-3.329,-3.329,-3.329,-3.3002,-3.2483,-3.2426,-3.1962,-3.1209,-3.1151,-3.1027,-3.0881,-3.0881,-3.0613,-3.0235,-3.0235,-2.996,-2.9602,-2.9602,-2.9602,-2.9602,-2.9602,-2.9602,-2.9602,-2.9602,-2.9602,-2.9602,-2.9602,-2.9602,-2.9602,-2.9602,-2.9602,-2.9727,-3.0144,-2.9898,-2.9602,-2.9602,-2.9602,-2.9602,-2.9602,-2.9602,-2.9602,-2.9602,-2.9602,-2.9758,-3.0174,-3.0235,-3.0403,-3.0822,-3.0493,-3.0235,-3.0235,-3.0235,-3.0403,-3.0851,-3.0911,-3.094,-3.094,-3.094,-3.094,-3.094,-3.0911,-3.0881,-3.0881,-3.0911,-3.1306,-3.2018,-3.278,-3.316,-3.316,-3.3187,-3.3187,-3.3187,-3.3214,-3.3372,-3.3591,-3.3642,-3.3822,-3.4075,-3.4075,-3.4075,-3.4075,-3.4075,-3.405,-3.4025,-3.4909,-3.4909,-3.4909,-3.4909,-3.4909,-3.4909,-3.4909,-3.4909,-3.4909,-3.4909,-3.4543,-3.4274,-3.4274,-3.3894,-3.3646,-3.3646,-3.3542,-3.3403,-3.3326,-3.329,-3.329,-3.329,-3.329,-3.3347,-3.3486,-3.3347,-3.329,-3.329,-3.329,-3.329,-3.329,-3.329,-3.329,-3.329,-3.329,-3.322,-3.3087,-3.2609,-3.203,-3.1396,-3.0856,-3.034,-2.9898,-2.9898,-2.9851,-2.9758,-2.9758,-2.9696,-2.9602,-2.9602,-2.9602,-2.9602,-2.9602,-2.9602,-2.9602,-2.9602,-2.9602,-2.9602,-2.9602,-2.9602,-2.9602,-2.9602,-2.9602,-2.9634,-2.9727,-2.9665,-2.9602,-2.9602,-2.9602,-2.9602,-2.9602,-2.9602,-2.9602,-2.9602,-2.9602,-2.9634,-2.9727,-2.9758,-2.9789,-2.9898,-2.982,-2.9758,-2.9758,-2.9758,-2.9789,-2.9898,-3.0251,-3.0433,-3.0433,-3.0433,-3.0433,-3.0433,-3.0113,-2.9898,-2.9898,-3.0266,-3.0732,-3.1248,-3.1809,-3.2051,-3.2035,-3.2272,-3.2367,-3.2367,-3.2656,-3.2792,-3.2873,-3.3224,-3.3555,-3.3771,-3.3771,-3.3771,-3.3771,-3.3771,-3.3642,-3.3477,-3.4133,-3.4133,-3.4133,-3.4133,-3.4133,-3.4133,-3.4133,-3.4133,-3.4133,-3.4133,-3.3894,-3.3736,-3.3736,-3.3486,-3.329,-3.329,-3.329,-3.329,-3.329,-3.329,-3.329,-3.329,-3.329,-3.329,-3.329,-3.329,-3.329,-3.329,-3.329,-3.329,-3.329,-3.329,-3.329,-3.329,-3.329,-3.329,-3.3262,-3.2974,-3.2483,-3.1878,-3.1232,-3.0614,-3.001,-2.9715,-2.9602,-2.9602,-2.9602,-2.9602,-2.9602,-2.9602,-2.9602,-2.9602,-2.9602,-2.9602,-2.9602,-2.9602,-2.9602,-2.9602,-2.9602,-2.9602,-2.9602,-2.9602,-2.9602,-2.9602,-2.9602,-2.9602,-2.9602,-2.9602,-2.9602,-2.9602,-2.9602,-2.9602,-2.9602,-2.9602,-2.9602,-2.9602,-2.9602,-2.9602,-2.9602,-2.9602,-2.9602,-2.9602,-2.9602,-2.9602,-2.9602,-2.9602,-2.982,-2.996,-2.996,-2.996,-2.996,-2.996,-2.9727,-2.9602,-2.9602,-2.9837,-3.0083,-3.0342,-3.1029,-3.1379,-3.1379,-3.1493,-3.158,-3.158,-3.1751,-3.1921,-3.2046,-3.2269,-3.2695,-3.3182,-3.3182,-3.3314,-3.3503,-3.3503,-3.3424,-3.3309,-3.329,-3.329,-3.329,-3.329,-3.329,-3.329,-3.329,-3.329,-3.329,-3.329,-3.329,-3.329,-3.329,-3.329,-3.329,-3.329,-3.329,-3.329,-3.329,-3.329,-3.329,-3.329,-3.329,-3.329,-3.329,-3.329,-3.329,-3.329,-3.329,-3.329,-3.329,-3.329,-3.329,-3.329,-3.329,-3.329,-3.329,-3.329,-3.296,-3.237,-3.185,-3.119,-3.0441,-2.9954,-2.9701,-2.9602,-2.9602,-2.9602,-2.9602,-2.9602,-2.9602,-2.9602,-2.9602,-2.9602,-2.9602,-2.9602,-2.9602,-2.9602,-2.9602,-2.9602,-2.9602,-2.9602,-2.9602,-2.9602,-2.9602,-2.9602,-2.9602,-2.9602,-2.9602,-2.9602,-2.9602,-2.9602,-2.9602,-2.9602,-2.9602,-2.9602,-2.9602,-2.9602,-2.9602,-2.9602,-2.9602,-2.9602,-2.9602,-2.9602,-2.9602,-2.9602,-2.9602,-2.9602,-2.9602,-2.9602,-2.9602,-2.9602,-2.9602,-2.9602,-2.9602,-2.9602,-2.9602,-2.9602,-3.0372,-3.0792,-3.0881,-3.0881,-3.0881,-3.0881,-3.0881,-3.1014,-3.1232,-3.129,-3.1749,-3.2379,-3.2379,-3.2629,-3.2985,-3.3011,-3.3081,-3.3134,-3.329,-3.329,-3.329,-3.329,-3.329,-3.329,-3.329,-3.329,-3.329,-3.329,-3.329,-3.329,-3.329,-3.329,-3.329,-3.329,-3.329,-3.329,-3.329,-3.329,-3.329,-3.329,-3.329,-3.329,-3.329,-3.329,-3.329,-3.329,-3.329,-3.329,-3.329,-3.329,-3.329,-3.329,-3.329,-3.329,-3.329,-3.329,-3.296,-3.2398,-3.2314,-3.1569,-3.0484,-3.0399,-3.0066,-2.9602,-2.9602,-2.9602,-2.9602,-2.9602,-2.9602,-2.9602,-2.9602,-2.9602,-2.9602,-2.9602,-2.9602,-2.9602,-2.9602,-2.9602,-2.9602,-2.9602,-2.9602,-2.9602,-2.9602,-2.9602,-2.9602,-2.9602,-2.9602,-2.9602,-2.9602,-2.9602,-2.9602,-2.9602,-2.9602,-2.9602,-2.9602,-2.9602,-2.9602,-2.9602,-2.9602,-2.9602,-2.9602,-2.9602,-2.9602,-2.9602,-2.9602,-2.9602,-2.9602,-2.9602,-2.9602,-2.9602,-2.9602,-2.9602,-2.9602,-2.9602,-2.9602,-2.9602,-2.9727,-2.9991,-3.0403,-3.0403,-3.0403,-3.0403,-3.0403,-3.0433,-3.0478,-3.0896,-3.1247,-3.1563,-3.1563,-3.1607,-3.1664,-3.1851,-3.2176,-3.2453,-3.329,-3.329,-3.329,-3.329,-3.329,-3.329,-3.329,-3.329,-3.329,-3.329,-3.329,-3.329,-3.329,-3.329,-3.329,-3.329,-3.329,-3.329,-3.329,-3.329,-3.329,-3.329,-3.329,-3.329,-3.329,-3.329,-3.329,-3.329,-3.329,-3.329,-3.329,-3.329,-3.329,-3.329,-3.329,-3.329,-3.329,-3.329,-3.3136,-3.289,-3.2553,-3.2075,-3.1499,-3.0764,-3.0315,-3.008,-2.9729,-2.9602,-2.9602,-2.9602,-2.9602,-2.9602,-2.9602,-2.9602,-2.9602,-2.9602,-2.9602,-2.9602,-2.9602,-2.9602,-2.9602,-2.9602,-2.9602,-2.9602,-2.9602,-2.9602,-2.9602,-2.9602,-2.9602,-2.9602,-2.9602,-2.9602,-2.9602,-2.9602,-2.9602,-2.9602,-2.9602,-2.9602,-2.9602,-2.9602,-2.9602,-2.9602,-2.9602,-2.9602,-2.9602,-2.9602,-2.9602,-2.9602,-2.9602,-2.9602,-2.9602,-2.9602,-2.9602,-2.9602,-2.9602,-2.9602,-2.9602,-2.9602,-2.9602,-2.9696,-2.9898,-2.9898,-2.9898,-2.9898,-2.9898,-2.9898,-2.9943,-3.0144,-3.0448,-3.0792,-3.0792,-3.094,-3.1175,-3.1292,-3.1437,-3.1595]},{"header":{"parameterUnit":"m.s-1","parameterCategory":1,"la1":30.6,"la2":28.766,"lo1":-90.7593,"lo2":-88.6598,"dy":0.0162,"dx":0.0183,"nx":116,"ny":114,"refTime":"2023-09-02T12:00:00:Z","depth":0,"parameterNumber":3,"parameterNumberName":"V-component_of_WINDS"},"data":[0.0,0.0,0.0,0.0,0.0,0.0,0.0,0.0,0.0,0.0,0.0,0.0,0.0,0.0,0.0,0.0,0.0,0.0,0.0,0.0,0.0,0.0,0.0,0.0,0.0,0.0,0.0,0.0,0.0,0.0,0.0,0.0,0.0,0.0,0.0,0.0,0.0,0.0,0.0,0.0,0.0,0.0,0.0,0.0,0.0,0.0,0.0,0.0,0.0,0.0,0.0,0.0,0.0,0.0,0.0,0.0,0.0,0.0,0.0,0.0,0.0,0.0,0.0,0.0,0.0,0.0,0.0,0.0,0.0,0.0,0.0,0.0,0.0,0.0,0.0,0.0,0.0,0.0,0.0,0.0,0.0,0.0,0.0,0.0,0.0,0.0,0.0,0.0,0.0,0.0,0.0,0.0,0.0,0.0,0.0,0.0,0.0,0.0,0.0,0.0,0.0,0.0,0.0,0.0,0.0,0.0,0.0,0.0,0.0,0.0,0.0,0.0,0.0,0.0,0.0,0.0,0.0,0.0,0.0,0.0,0.0,0.0,0.0,0.0,0.0,0.0,0.0,0.0,0.0,0.0,0.0,0.0,0.0,0.0,0.0,0.0,0.0,0.0,0.0,0.0,0.0,0.0,0.0,0.0,0.0,0.0,0.0,0.0,0.0,0.0,0.0,0.0,0.0,0.0,0.0,0.0,0.0,0.0,0.0,0.0,0.0,0.0,0.0,0.0,0.0,0.0,0.0,0.0,0.0,0.0,0.0,0.0,0.0,0.0,0.0,0.0,0.0,0.0,0.0,0.0,0.0,0.0,0.0,0.0,0.0,0.0,0.0,0.0,0.0,0.0,0.0,0.0,0.0,0.0,0.0,0.0,0.0,0.0,0.0,0.0,0.0,0.0,0.0,0.0,0.0,0.0,0.0,0.0,0.0,0.0,0.0,0.0,0.0,0.0,0.0,0.0,0.0,0.0,0.0,0.0,0.0,0.0,0.0,0.0,0.0,0.0,0.0,0.0,0.0,0.0,0.0,0.0,0.0,0.0,0.0,0.0,0.0,0.0,0.0,0.0,0.0,0.0,0.0,0.0,0.0,0.0,0.0,0.0,0.0,0.0,0.0,0.0,0.0,0.0,0.0,0.0,0.0,0.0,0.0,0.0,0.0,0.0,0.0,0.0,0.0,0.0,0.0,0.0,0.0,0.0,0.0,0.0,0.0,0.0,0.0,0.0,0.0,0.0,0.0,0.0,0.0,0.0,0.0,0.0,0.0,0.0,0.0,0.0,0.0,0.0,0.0,0.0,0.0,0.0,0.0,0.0,0.0,0.0,0.0,0.0,0.0,0.0,0.0,0.0,0.0,0.0,0.0,0.0,0.0,0.0,0.0,0.0,0.0,0.0,0.0,0.0,0.0,0.0,0.0,0.0,0.0,0.0,0.0,0.0,0.0,0.0,0.0,0.0,0.0,0.0,0.0,0.0,0.0,0.0,0.0,0.0,0.0,0.0,0.0,0.0,0.0,0.0,0.0,0.0,0.0,0.0,0.0,0.0,0.0,0.0,0.0,0.0,0.0,0.0,0.0,0.0,0.0,0.0,0.0,0.0,0.0,0.0,0.0,0.0,0.0,0.0,0.0,0.0,0.0,0.0,0.0,0.0,0.0,0.0,0.0,0.0,0.0,0.0,0.0,0.0,0.0,0.0,0.0,0.0,0.0,0.0,0.0,0.0,0.0,0.0,0.0,0.0,0.0,0.0,0.0,0.0,0.0,0.0,0.0,0.0,0.0,0.0,0.0,0.0,0.0,0.0,0.0,0.0,0.0,0.0,0.0,0.0,0.0,0.0,0.0,0.0,0.0,0.0,0.0,0.0,0.0,0.0,0.0,0.0,0.0,0.0,0.0,0.0,0.0,0.0,0.0,0.0,0.0,0.0,0.0,0.0,0.0,0.0,0.0,0.0,0.0,0.0,0.0,0.0,0.0,0.0,0.0,0.0,0.0,0.0,0.0,0.0,0.0,0.0,0.0,0.0,0.0,0.0,0.0,0.0,0.0,0.0,0.0,0.0,0.0,0.0,0.0,0.0,0.0,0.0,0.0,0.0,0.0,0.0,0.0,0.0,0.0,0.0,0.0,0.0,0.0,0.0,0.0,0.0,0.0,0.0,0.0,0.0,0.0,0.0,0.0,0.0,0.0,0.0,0.0,0.0,0.0,0.0,0.0,0.0,0.0,0.0,0.0,0.0,0.0,0.0,0.0,0.0,0.0,0.0,0.0,0.0,0.0,0.0,0.0,0.0,0.0,0.0,0.0,0.0,0.0,0.0,0.0,0.0,0.0,0.0,0.0,0.0,0.0,0.0,0.0,0.0,0.0,0.0,0.0,0.0,0.0,0.0,0.0,0.0,0.0,0.0,0.0,0.0,0.0,0.0,0.0,0.0,0.0,0.0,0.0,0.0,0.0,0.0,0.0,0.0,0.0,0.0,0.0,0.0,0.0,0.0,0.0,0.0,0.0,0.0,0.0,0.0,0.0,0.0,0.0,0.0,0.0,0.0,0.0,0.0,0.0,0.0,0.0,0.0,0.0,0.0,0.0,0.0,0.0,0.0,0.0,0.0,0.0,0.0,0.0,0.0,0.0,0.0,0.0,0.0,0.0,0.0,0.0,0.0,0.0,0.0,0.0,0.0,0.0,0.0,0.0,0.0,0.0,0.0,0.0,0.0,0.0,0.0,0.0,0.0,0.0,0.0,0.0,0.0,0.0,0.0,0.0,0.0,0.0,0.0,0.0,0.0,0.0,0.0,0.0,0.0,0.0,0.0,0.0,0.0,0.0,0.0,0.0,0.0,0.0,0.0,0.0,0.0,0.0,0.0,0.0,0.0,0.0,0.0,0.0,0.0,0.0,0.0,0.0,0.0,0.0,0.0,0.0,0.0,0.0,0.0,0.0,0.0,0.0,0.0,0.0,0.0,0.0,0.0,0.0,0.0,0.0,0.0,0.0,0.0,0.0,0.0,0.0,0.0,0.0,0.0,0.0,0.0,0.0,0.0,0.0,0.0,0.0,0.0,0.0,0.0,0.0,0.0,0.0,0.0,0.0,0.0,0.0,0.0,0.0,0.0,0.0,0.0,0.0,0.0,0.0,0.0,0.0,0.0,0.0,0.0,0.0,0.0,0.0,0.0,0.0,0.0,0.0,0.0,0.0,0.0,0.0,0.0,0.0,0.0,0.0,0.0,0.0,0.0,0.0,0.0,0.0,0.0,0.0,0.0,0.0,0.0,0.0,0.0,0.0,0.0,0.0,0.0,0.0,0.0,0.0,0.0,0.0,0.0,0.0,0.0,0.0,0.0,0.0,0.0,0.0,0.0,0.0,0.0,0.0,0.0,0.0,0.0,0.0,0.0,0.0,0.0,0.0,0.0,0.0,0.0,0.0,0.0,0.0,0.0,0.0,0.0,0.0,0.0,0.0,0.0,0.0,0.0,0.0,0.0,0.0,0.0,0.0,0.0,0.0,0.0,0.0,0.0,0.0,0.0,0.0,0.0,0.0,0.0,0.0,0.0,0.0,0.0,0.0,0.0,0.0,0.0,0.0,0.0,0.0,0.0,0.0,0.0,0.0,0.0,0.0,0.0,0.0,0.0,0.0,0.0,0.0,0.0,0.0,0.0,0.0,0.0,0.0,0.0,0.0,0.0,0.0,0.0,0.0,0.0,0.0,0.0,0.0,0.0,0.0,0.0,0.0,0.0,0.0,0.0,0.0,0.0,0.0,0.0,0.0,0.0,0.0,0.0,0.0,0.0,0.0,0.0,0.0,0.0,0.0,0.0,0.0,0.0,0.0,0.0,0.0,0.0,0.0,0.0,0.0,0.0,0.0,0.0,0.0,0.0,0.0,0.0,0.0,0.0,0.0,0.0,0.0,0.0,0.0,0.0,0.0,0.0,0.0,0.0,0.0,0.0,0.0,0.0,0.0,0.0,0.0,0.0,0.0,0.0,0.0,0.0,0.0,0.0,0.0,0.0,0.0,0.0,0.0,0.0,0.0,0.0,0.0,0.0,0.0,0.0,0.0,0.0,0.0,0.0,0.0,0.0,0.0,0.0,0.0,0.0,0.0,0.0,0.0,0.0,0.0,0.0,0.0,0.0,0.0,0.0,0.0,0.0,0.0,0.0,0.0,0.0,0.0,0.0,0.0,0.0,0.0,0.0,0.0,0.0,0.0,0.0,0.0,0.0,0.0,0.0,0.0,0.0,0.0,0.0,0.0,0.0,0.0,0.0,0.0,0.0,0.0,0.0,0.0,0.0,0.0,0.0,0.0,0.0,0.0,0.0,0.0,0.0,0.0,0.0,0.0,0.0,0.0,0.0,0.0,0.0,0.0,0.0,0.0,0.0,0.0,0.0,0.0,0.0,0.0,0.0,0.0,0.0,0.0,0.0,0.0,0.0,0.0,0.0,0.0,0.0,0.0,0.0,0.0,0.0,0.0,0.0,0.0,0.0,0.0,0.0,0.0,0.0,0.0,0.0,0.0,0.0,0.0,0.0,0.0,0.0,0.0,0.0,0.0,0.0,0.0,0.0,0.0,0.0,0.0,0.0,0.0,0.0,0.0,0.0,0.0,0.0,0.0,0.0,0.0,0.0,0.0,0.0,0.0,0.0,0.0,0.0,0.0,0.0,0.0,0.0,0.0,0.0,0.0,0.0,0.0,0.0,0.0,0.0,0.0,0.0,0.0,0.0,0.0,0.0,0.0,0.0,0.0,0.0,0.0,0.0,0.0,0.0,0.0,0.0,0.0,0.0,0.0,0.0,0.0,0.0,0.0,0.0,0.0,0.0,0.0,0.0,0.0,0.0,0.0,0.0,0.0,0.0,0.0,0.0,0.0,0.0,0.0,0.0,0.0,0.0,0.0,0.0,0.0,0.0,0.0,0.0,0.0,0.0,0.0,0.0,0.0,0.0,0.0,0.0,0.0,0.0,0.0,0.0,0.0,0.0,0.0,0.0,0.0,0.0,0.0,0.0,0.0,0.0,0.0,0.0,0.0,0.0,0.0,0.0,0.0,0.0,0.0,0.0,0.0,0.0,0.0,0.0,0.0,0.0,0.0,0.0,0.0,0.0,0.0,0.0,0.0,0.0,0.0,0.0,0.0,0.0,0.0,0.0,0.0,0.0,0.0,0.0,0.0,0.0,0.0,0.0,0.0,0.0,0.0,0.0,0.0,0.0,0.0,0.0,0.0,0.0,0.0,0.0,0.0,0.0,0.0,0.0,0.0,0.0,0.0,0.0,0.0,0.0,0.0,0.0,0.0,0.0,0.0,0.0,0.0,0.0,0.0,0.0,0.0,0.0,0.0,0.0,0.0,0.0,0.0,0.0,0.0,0.0,0.0,0.0,0.0,0.0,0.0,0.0,0.0,0.0,0.0,0.0,0.0,0.0,0.0,0.0,0.0,0.0,0.0,0.0,0.0,0.0,0.0,0.0,0.0,0.0,0.0,0.0,0.0,0.0,0.0,0.0,0.0,0.0,0.0,0.0,0.0,0.0,0.0,0.0,0.0,0.0,0.0,0.0,0.0,0.0,0.0,0.0,0.0,0.0,0.0,0.0,0.0,0.0,0.0,0.0,0.0,0.0,0.0,0.0,0.0,0.0,0.0,0.0,0.0,0.0,0.0,0.0,0.0,0.0,0.0,0.0,0.0,0.0,0.0,0.0,0.0,0.0,0.0,0.0,0.0,0.0,0.0,0.0,0.0,0.0,0.0,0.0,0.0,0.0,0.0,0.0,0.0,0.0,0.0,0.0,0.0,0.0,0.0,0.0,0.0,0.0,0.0,0.0,0.0,0.0,0.0,0.0,0.0,0.0,0.0,0.0,0.0,0.0,0.0,0.0,0.0,0.0,0.0,0.0,0.0,0.0,0.0,0.0,0.0,0.0,0.0,0.0,0.0,0.0,0.0,0.0,0.0,0.0,0.0,0.0,0.0,0.0,0.0,0.0,0.0,0.0,0.0,0.0,0.0,0.0,0.0,0.0,0.0,0.0,0.0,0.0,0.0,0.0,0.0,0.0,0.0,0.0,0.0,0.0,0.0,0.0,0.0,0.0,0.0,0.0,0.0,0.0,-1.1217,-1.1366,0.0,0.0,0.0,0.0,0.0,0.0,0.0,0.0,0.0,0.0,0.0,0.0,0.0,0.0,0.0,0.0,0.0,0.0,0.0,0.0,0.0,0.0,0.0,0.0,0.0,0.0,0.0,0.0,0.0,0.0,0.0,0.0,0.0,0.0,0.0,0.0,0.0,0.0,-0.5599,-0.5552,-0.5549,-0.5206,-0.4978,-0.4806,0.0,0.0,0.0,0.0,0.0,0.0,0.0,0.0,0.0,0.0,0.0,0.0,0.0,0.0,0.0,0.0,0.0,0.0,0.0,0.0,0.0,0.0,0.0,0.0,0.0,0.0,0.0,0.0,0.0,0.0,0.0,0.0,0.0,0.0,0.0,0.0,0.0,0.0,0.0,0.0,0.0,0.0,0.0,0.0,0.0,0.0,0.0,0.0,0.0,0.0,0.0,0.0,0.0,0.0,0.0,0.0,0.0,0.0,0.0,0.0,0.0,0.0,0.0,0.0,0.0,0.0,0.0,0.0,0.0,0.0,-1.0556,-1.0663,0.0,0.0,0.0,0.0,0.0,0.0,0.0,0.0,0.0,0.0,0.0,0.0,0.0,0.0,0.0,0.0,0.0,0.0,0.0,0.0,0.0,0.0,0.0,-0.2531,-0.2393,-0.2231,-0.227,-0.24,0.0,0.0,0.0,0.0,0.0,0.0,0.0,-0.5644,-0.5644,-0.5644,-0.5599,-0.5508,-0.5371,-0.5102,-0.501,-0.5006,-0.4045,0.0,0.0,0.0,0.0,0.0,0.0,0.0,0.0,0.0,0.0,0.0,0.0,0.0,0.0,0.0,0.0,0.0,0.0,0.0,0.0,0.0,0.0,0.0,0.0,0.0,0.0,0.0,0.0,0.0,0.0,0.0,0.0,0.0,0.0,0.0,0.0,0.0,0.0,0.0,0.0,0.0,0.0,0.0,0.0,0.0,0.0,0.0,0.0,0.0,0.0,0.0,0.0,0.0,0.0,0.0,0.0,0.0,0.0,0.0,0.0,0.0,0.0,0.0,-1.0406,-1.04,-1.04,-1.04,-1.0293,-1.0143,-1.0331,-1.0406,-1.0519,-1.1335,0.0,0.0,0.0,0.0,0.0,0.0,0.0,0.0,0.0,0.0,0.0,0.0,0.0,0.0,0.0,0.0,0.0,0.0,0.0,0.0,0.0,-0.1466,-0.1259,-0.0447,-0.1096,-0.1899,-0.2788,0.0,0.0,0.0,0.0,0.0,-0.5416,-0.546,-0.546,-0.546,-0.5191,-0.5191,-0.5371,-0.4926,-0.4971,-0.5327,-0.4952,-0.4765,-0.4676,0.0,0.0,0.0,0.0,0.0,0.0,0.0,0.0,0.0,0.0,0.0,0.0,0.0,0.0,0.0,0.0,0.0,0.0,0.0,0.0,0.0,0.0,0.0,0.0,0.0,0.0,0.0,0.0,0.0,0.0,0.0,0.0,0.0,0.0,0.0,0.0,0.0,0.0,0.0,0.0,0.0,-0.5093,-0.5395,0.0,0.0,0.0,0.0,0.0,0.0,0.0,0.0,0.0,0.0,0.0,0.0,0.0,-1.0513,-1.0513,-1.0331,-1.0255,-1.0255,-1.0067,-0.9992,-0.9992,-0.9992,-0.996,-0.996,-0.996,0.0,-1.0255,-1.0368,0.0,0.0,0.0,0.0,0.0,0.0,0.0,0.0,0.0,0.0,0.0,0.0,0.0,0.0,0.0,0.0,0.0,0.0,0.0,0.0,0.0,-0.0974,-0.1218,-0.0813,-0.1663,-0.238,-0.2643,-0.3071,0.0,0.0,0.0,-0.4781,-0.5514,-0.533,-0.5207,-0.5191,-0.4924,-0.4882,-0.5018,-0.4659,-0.4567,-0.4746,-0.4119,-0.3892,-0.3935,-0.2818,0.0,0.0,0.0,0.0,0.0,0.0,0.0,0.0,0.0,0.0,0.0,0.0,0.0,0.0,0.0,0.0,0.0,0.0,0.0,0.0,0.0,0.0,0.0,0.0,0.0,0.0,0.0,0.0,0.0,0.0,0.0,0.0,0.0,0.0,0.0,0.0,0.0,0.0,0.0,-0.5018,-0.5015,-0.5132,-0.5243,-0.5268,0.0,0.0,0.0,0.0,0.0,0.0,0.0,0.0,0.0,-1.0331,-1.0331,-1.0293,-1.0143,-1.0067,-1.003,-1.003,-1.01,-1.0132,-1.0137,-1.0222,-1.0211,-1.0132,-1.0132,-1.0089,-1.003,-1.0143,-1.0475,-1.085,0.0,0.0,0.0,0.0,-1.2505,-1.2828,0.0,0.0,0.0,0.0,0.0,0.0,0.0,0.0,0.0,0.0,0.0,0.0,0.0081,-0.081,-0.1505,-0.1718,-0.2673,-0.3131,-0.2884,-0.3123,-0.3474,0.0,-0.3957,-0.4465,-0.5398,-0.523,-0.5038,-0.4963,-0.4759,-0.4705,-0.4705,-0.4433,-0.4342,-0.4431,-0.3626,-0.3224,-0.3041,-0.1656,-0.0627,0.009,0.0,0.0,0.0,0.0,0.0,0.0,0.0,0.0,0.0,0.0,0.0,0.0,0.0,0.0,0.0,0.0,0.0,0.0,0.0,0.0,0.0,0.0,0.0,0.0,0.0,0.0,0.0,0.0,0.0,0.0,0.0,0.0,0.0,0.0,0.0,0.0,0.0,-0.5108,-0.5108,-0.5108,-0.5224,-0.5294,0.0,0.0,0.0,0.0,0.0,0.0,-1.0165,-1.0401,-1.0445,-1.0291,-1.0061,-0.9979,-1.0066,-0.983,-0.983,-1.0066,-1.0293,-1.0385,-1.039,-1.0517,-1.0501,-1.0385,-1.0385,-1.0277,-1.0094,-1.0116,-1.0105,-1.0143,-1.0293,-1.07,-1.1223,-1.1223,-1.1626,-1.202,0.0,0.0,0.0,0.0,0.0,0.0,0.0,0.0,0.0,0.0,0.0,0.0363,-0.0472,-0.1041,-0.172,-0.2551,-0.3594,-0.4112,-0.3838,-0.4786,-0.5165,-0.4754,-0.4795,-0.489,-0.4937,-0.5032,-0.4984,-0.48,-0.475,-0.4705,-0.4705,-0.4433,-0.452,-0.4921,-0.4431,-0.3762,-0.2777,-0.0896,-0.0045,0.009,0.1031,0.0,0.0,0.0,0.0,0.0,0.0,0.0,0.0,0.0,0.0,0.0,0.0,0.0,0.0,0.0,0.0,0.0,0.0,0.0,0.0,0.0,0.0,0.0,0.0,0.0,0.0,0.0,0.0,0.0,0.0,0.0,0.0,0.0,0.0,0.0,0.0,0.0,0.0,-0.5394,-0.5394,0.0,0.0,0.0,0.0,-0.6884,-0.7607,-0.8457,-0.9483,-1.0226,-1.06,-1.06,-0.9695,-0.9655,-1.056,-0.9695,-0.9695,-1.056,-1.0571,-1.0576,-1.0576,-1.0592,-1.0587,-1.0576,-1.0576,-1.0571,-1.0522,-1.0105,-0.9916,-0.9916,-0.9916,-0.9954,-0.9992,-0.9992,-1.003,-1.003,0.0,0.0,0.0,0.0,0.0,0.0,0.0,0.0,0.118,0.1103,0.0361,-0.0279,-0.0681,-0.2044,-0.3095,-0.3422,-0.4415,-0.4972,-0.4877,-0.4472,-0.4386,-0.4761,-0.4098,-0.4071,-0.4753,-0.5008,-0.4959,-0.4667,-0.4633,-0.4585,-0.4524,-0.4387,-0.4129,-0.3626,-0.2819,-0.1924,-0.103,-0.094,-0.0224,0.0942,0.1256,0.1391,0.0,0.0,0.0,0.0,0.0,0.0,0.0,0.0,0.0,0.0,0.0,0.0,0.0,0.0,0.0,0.0,0.0,0.0,0.0,0.0,0.0,0.0,0.0,0.0,0.0,0.0,0.0,0.0,0.0,0.0,0.0,0.0,0.0,0.0,0.0,0.0,0.0,-0.541,-0.541,0.0,-0.5477,-0.5415,-0.5817,-0.6782,-0.6986,-0.7503,-0.8373,-0.866,-0.8787,-0.8787,-0.8455,-0.8455,-0.8787,-0.9073,-0.9359,-0.9689,-1.0496,-1.0859,-1.0864,-1.0978,-1.0967,-1.0859,-1.0859,-1.0772,-1.0581,-1.041,-1.034,-1.034,-1.034,-1.0249,-1.0164,-1.0164,-1.0056,-0.9884,0.0,0.0,0.0,0.0,0.0,0.0,0.0,0.0,0.1124,0.0646,0.0198,-0.0474,-0.1538,-0.2318,-0.3089,-0.3806,-0.4108,-0.4306,-0.4293,-0.3457,-0.318,-0.3676,-0.3354,-0.3461,-0.4157,-0.4767,-0.4966,-0.4618,-0.4681,-0.4633,-0.4481,-0.4404,-0.3853,-0.2897,-0.2201,-0.1209,-0.0045,-0.0672,-0.0045,0.1391,0.1391,0.1391,0.1391,0.0,0.0,0.0,0.0,0.0,0.0,0.0,0.0,0.0,0.0,0.0,0.0,0.0,0.0,0.0,0.0,0.0,0.0,0.0,0.0,0.0,0.0,0.0,0.0,0.0,0.0,0.0,0.0,0.0,0.0,0.0,0.0,0.0,0.0,0.0,-0.5494,-0.5494,-0.5494,-0.5523,-0.5561,-0.554,-0.5781,-0.6378,-0.6639,-0.7007,-0.7555,-0.785,-0.8042,-0.8098,-0.7804,-0.7788,-0.8146,-0.8837,-0.9312,-0.9658,-1.0833,-1.1386,-1.1392,-1.151,-1.1494,-1.1386,-1.1386,-1.1257,-1.1106,-1.1025,-1.0951,-1.093,-1.0689,-1.0501,-1.0406,-1.0406,-1.0304,-1.012,0.0,0.0,0.0,0.0,0.0,0.0,0.0,0.1305,0.091,-0.0118,0.0392,-0.0198,-0.2916,-0.1781,-0.161,-0.355,-0.2738,-0.2074,-0.2121,-0.1929,-0.1729,-0.147,-0.2545,-0.3173,-0.3173,-0.4404,-0.4903,-0.4614,-0.4762,-0.4715,-0.448,-0.4392,-0.3793,-0.2909,-0.2851,-0.1748,0.0045,0.0045,0.0583,0.1391,0.1391,0.1391,0.1391,0.0,0.0,0.0,0.0,0.0,0.0,0.0,0.0,0.0,0.0,0.0,0.0,0.0,0.0,0.0,0.0,0.0,0.0,0.0,0.0,0.0,0.0,0.0,0.0,0.0,0.0,0.0,0.0,0.0,0.0,0.0,0.0,0.0,-0.5688,-0.5688,-0.5688,-0.5688,-0.5688,-0.5688,-0.5688,-0.5688,-0.5691,-0.5694,-0.6532,-0.7061,-0.7064,-0.7944,-0.85,-0.8619,-0.772,-0.7749,-0.8788,-0.8979,-0.9541,-1.0477,-1.1538,-1.2048,-1.2094,-1.2094,-1.2094,-1.2094,-1.2094,-1.2094,-1.2078,-1.1806,-1.1709,-1.1639,-1.0892,-1.0613,-1.0608,-1.0608,-1.0603,-1.0597,0.0,0.0,0.0,0.0,0.0,0.0,0.0,0.1288,0.1057,0.0433,0.0157,-0.0358,-0.1326,-0.1421,-0.1704,-0.2299,-0.205,-0.194,-0.2072,-0.1269,-0.0628,-0.04,-0.1457,-0.2016,-0.2016,-0.3157,-0.33,-0.2451,-0.3282,-0.32,-0.2333,-0.232,-0.1757,-0.0832,-0.0827,-0.0136,0.1031,0.1031,0.1166,0.1391,0.1391,0.1391,0.1391,0.0,0.0,0.0,0.0,0.0,0.0,0.0,0.0,0.0,0.0,0.0,0.0,0.0,0.0,0.0,0.0,0.0,0.0,0.0,0.0,0.0,0.0,0.0,0.0,0.0,0.0,0.0,0.0,0.0,0.0,0.0,0.0,-0.5235,-0.5644,-0.5688,-0.5688,-0.5688,-0.5688,-0.5688,-0.5688,-0.5688,-0.5723,-0.585,-0.6082,-0.6256,-0.6351,-0.6632,-0.6787,-0.682,-0.6543,-0.6564,-0.6879,-0.758,-0.8469,-0.9495,-1.0473,-1.1354,-1.2094,-1.2094,-1.2094,-1.2094,-1.2094,-1.2094,-1.2089,-1.2024,-1.1997,-1.1943,-1.1316,-1.1005,-1.0885,-1.0885,-1.0783,-1.0597,0.0,0.0,0.0,0.0,0.0,0.0,0.0,0.1281,0.1049,0.0315,0.0314,0.0,-0.1002,-0.0713,-0.0641,-0.116,-0.0722,-0.0503,-0.07,0.0048,0.0542,0.0655,-0.0353,-0.0907,-0.0907,-0.1965,-0.2217,-0.1613,-0.2217,-0.2205,-0.1537,-0.1525,-0.0964,-0.0047,0.0,0.0503,0.1391,0.1391,0.1391,0.1391,0.1391,0.1391,0.1391,0.1391,0.1391,0.1391,0.1391,0.1391,0.1391,0.1391,0.0,0.0,0.0,0.0,0.0,0.0,0.0,0.0,0.0,0.0,0.0,0.0,0.0,0.0,0.0,0.0,0.0,0.0,0.0,0.0,0.0,0.0,0.0,0.0,-0.5057,-0.5144,-0.5508,-0.5552,-0.5599,-0.5688,-0.5731,-0.5803,-0.5803,-0.585,-0.5909,-0.5975,-0.5977,-0.601,-0.6081,-0.6086,-0.6111,-0.6159,-0.6162,-0.6187,-0.623,-0.7189,-0.8003,-0.8626,-0.9633,-1.0678,-1.1717,-1.1717,-1.1963,-1.2397,-1.2397,-1.2397,-1.2386,-1.2289,-1.2245,-1.2213,0.0,0.0,0.0,0.0,-1.1139,-1.0892,0.0,0.0,0.0,0.0,0.0,0.0,0.0,0.1319,0.0965,-0.0039,0.0706,0.0599,-0.1206,0.021,0.0899,-0.0089,0.0822,0.1448,0.1242,0.1483,0.1613,0.1617,0.0706,0.0202,0.0202,-0.0857,-0.1361,-0.1261,-0.1361,-0.1361,-0.126,-0.1189,-0.0729,0.0095,0.014,0.0642,0.1391,0.1391,0.1391,0.1391,0.1391,0.1391,0.1391,0.1391,0.1391,0.1391,0.1391,0.1391,0.1391,0.1391,0.0,0.0,0.0,0.0,0.0,0.0,0.0,0.0,0.0,0.0,0.0,0.0,0.0,0.0,0.0,0.0,0.0,0.0,0.0,0.0,0.0,0.0,0.0,0.0,-0.4755,-0.5029,-0.5345,-0.5357,-0.5449,-0.571,-0.5852,-0.5923,-0.5923,-0.6024,-0.6092,-0.6105,-0.6108,-0.6113,-0.6124,-0.6124,0.0,0.0,0.0,-0.6336,-0.6384,-0.7329,-0.7872,-0.8021,-0.8962,-1.0047,-1.1219,-1.1219,-1.1765,-1.2813,-1.2813,-1.2813,-1.2797,-1.2538,-1.2457,-1.2425,-1.2202,-1.2094,-1.2067,-1.1817,-1.1607,-1.1386,0.0,0.0,0.0,0.0,0.0,0.0,0.0,0.1301,0.1145,0.0707,0.1021,0.1072,0.053,0.0957,0.1234,0.1047,0.1313,0.1504,0.151,0.1573,0.1592,0.1615,0.1414,0.1313,0.1313,0.0252,0.0101,0.0959,0.0101,0.0151,0.0959,0.1006,0.1085,0.1191,0.1187,0.1301,0.1391,0.1391,0.1391,0.1391,0.1391,0.1391,0.1391,0.1391,0.1391,0.1391,0.1391,0.1391,0.1391,0.1391,0.1391,0.1391,0.1391,0.1391,0.0,0.0,0.0,0.0,0.0,0.0,0.0,0.0,0.0,0.0,0.0,0.0,0.0,0.0,0.0,0.0,0.0,0.0,0.0,-0.3444,-0.4085,-0.4682,-0.5093,-0.5071,-0.5232,-0.5791,-0.5977,-0.6051,-0.6051,-0.6072,-0.6127,-0.6276,-0.6281,-0.6274,-0.6363,-0.6319,-0.638,-0.6401,-0.6404,-0.6365,-0.6387,-0.6584,-0.7129,-0.8021,-0.8219,0.0,-1.1219,-1.1219,-1.1765,-1.2813,-1.2813,-1.2813,-1.2807,-1.2764,-1.2694,-1.2699,-1.2262,-1.2094,-1.2089,-1.2046,-1.1997,-1.1932,0.0,0.0,0.0,0.0,0.0,0.0,0.0,0.1296,0.1257,0.11,0.1218,0.1275,0.1155,0.1255,0.1323,0.1409,0.1455,0.1506,0.1617,0.162,0.1578,0.1594,0.1609,0.1617,0.1617,0.106,0.106,0.1617,0.106,0.106,0.1617,0.1617,0.1584,0.1478,0.1478,0.1445,0.1391,0.1391,0.1391,0.1391,0.1391,0.1391,0.1391,0.1391,0.1391,0.1391,0.1391,0.1391,0.1391,0.1391,0.1391,0.1391,0.1391,0.1391,0.1391,0.0,0.0,0.0,0.0,0.0,0.0,0.0,0.0,0.0,0.0,0.0,0.0,0.0,0.0,0.0403,0.0,0.0,-0.2515,-0.3629,-0.4267,-0.4684,-0.496,-0.5102,-0.5367,-0.5733,-0.5818,-0.5888,-0.6176,-0.6085,-0.6143,-0.6347,-0.6352,-0.6377,-0.6384,-0.6387,-0.6387,-0.6387,-0.6387,-0.6387,-0.6387,-0.6387,-0.6684,-0.7179,-0.7179,-0.8018,-0.9596,-0.9596,-1.019,-1.1233,-1.177,-1.2014,-1.2063,-1.2565,-1.2813,-1.2791,-1.2548,-1.2381,-1.2231,-1.2231,-1.2197,-1.2078,0.0,0.0,0.0,0.0,0.0,0.0,0.0,0.1296,0.1296,0.1296,0.1296,0.1318,0.1292,0.1302,0.1333,0.1401,0.1465,0.15,0.1616,0.1609,0.1608,0.162,0.1595,0.1611,0.1617,0.1617,0.1617,0.1617,0.1617,0.1617,0.1617,0.1611,0.1579,0.1478,0.152,0.144,0.1391,0.1391,0.1391,0.1391,0.1391,0.1391,0.1391,0.1391,0.1391,0.1391,0.1391,0.1391,0.1391,0.1391,0.1391,0.1391,0.1391,0.1391,0.1391,0.1391,0.1391,0.0,0.0,0.0,0.0,0.0,0.0,0.0,0.0,0.0,0.1391,0.1391,0.1391,0.0943,-0.054,-0.0991,-0.1723,-0.3518,-0.4196,-0.4559,-0.4821,-0.5158,-0.5438,-0.5595,-0.5565,-0.5713,-0.6206,-0.6041,-0.6039,-0.6287,-0.6287,-0.6287,-0.6337,-0.6358,-0.6372,-0.6422,-0.6443,-0.6457,-0.6457,-0.6457,-0.6457,-0.6457,-0.6457,-0.706,-0.8062,-0.8062,-0.8642,-0.9706,-1.0507,-1.1023,-1.1272,-1.2116,-1.2613,-1.2813,-1.2813,-1.2646,-1.2484,-1.2484,-1.2355,-1.2224,0.0,0.0,0.0,0.0,0.0,0.0,0.0,0.0,0.1296,0.1296,0.1296,0.131,0.1304,0.129,0.135,0.1459,0.1424,0.1478,0.1615,0.1521,0.1515,0.1618,0.1624,0.159,0.1616,0.1617,0.1617,0.1617,0.1617,0.1617,0.1616,0.159,0.1558,0.1477,0.1498,0.1467,0.1391,0.1391,0.1391,0.1391,0.1391,0.1391,0.1391,0.1391,0.1391,0.1391,0.1391,0.1391,0.1391,0.1391,0.1391,0.1391,0.1391,0.1391,0.1391,0.1391,0.0,0.1391,0.1391,0.1391,0.0,0.1391,0.1391,0.1391,0.0,0.0,0.1391,0.1391,0.1391,0.1353,0.1194,0.0461,-0.051,-0.1654,-0.2645,-0.3603,-0.4592,-0.4814,-0.4968,-0.5209,-0.5463,-0.572,-0.6024,-0.5782,-0.5737,-0.6042,-0.5837,-0.5787,-0.6042,-0.6139,-0.6346,-0.6549,-0.6706,-0.676,-0.676,-0.676,-0.676,-0.676,-0.676,-0.7334,-0.8376,-0.8376,-0.887,-0.9789,-0.9776,-1.0342,-1.1219,-1.1321,-1.1917,-1.2813,-1.2813,-1.2797,-1.2775,-1.2775,-1.2753,-1.2705,0.0,0.0,0.0,0.0,0.0,0.0,0.0,0.0,0.0,0.1296,0.1296,0.1308,0.1299,0.1344,0.1407,0.1492,0.146,0.1459,0.1515,0.1495,0.1492,0.1518,0.1536,0.1551,0.1564,0.1564,0.1564,0.1564,0.1564,0.1564,0.1564,0.1551,0.1529,0.1499,0.1486,0.1464,0.1391,0.1391,0.1391,0.1391,0.1391,0.1391,0.1391,0.1391,0.1391,0.1391,0.1391,0.1391,0.0,0.1391,0.1391,0.1391,0.1391,0.1391,0.1391,0.1391,0.1391,0.0,0.1391,0.0,0.0,0.0,0.1391,0.1391,0.1391,0.1391,0.1391,0.1391,0.1449,0.1282,0.0739,0.0327,-0.0474,0.0,-0.2824,-0.3489,-0.4625,-0.4762,-0.4834,-0.4937,-0.5085,-0.5286,-0.5737,-0.5592,-0.5579,-0.5884,-0.5838,-0.5822,-0.5926,-0.5972,-0.6153,-0.6469,-0.6516,-0.6645,-0.6801,-0.6801,-0.6801,-0.6801,-0.6645,-0.6804,-0.7223,-0.7009,-0.7497,-0.8477,-0.8412,-0.894,-0.985,-0.985,-1.0388,-1.1179,-1.1521,-1.1727,-1.1927,-1.257,-1.2813,-1.2797,0.0,0.0,0.0,0.0,0.0,0.0,0.0,0.0,0.0,0.0,0.1296,0.1308,0.138,0.1397,0.1455,0.1555,0.1493,0.1448,0.1478,0.1472,0.1472,0.148,0.1502,0.1517,0.1478,0.1478,0.1478,0.1478,0.1478,0.1478,0.1478,0.1517,0.1502,0.148,0.1472,0.1456,0.1391,0.1391,0.1391,0.1391,0.1391,0.1436,0.148,0.1436,0.148,0.1615,0.1525,0.1525,0.1525,0.1615,0.1615,0.1615,0.1525,0.1525,0.148,0.1436,0.1391,0.1391,0.1391,0.0,0.0,0.1391,0.1391,0.1391,0.1391,0.1391,0.1393,0.1446,0.1466,0.1207,0.0188,0.0048,-0.0628,-0.2754,-0.3109,-0.3519,-0.4624,-0.4784,-0.4784,-0.4784,-0.4857,-0.5023,-0.5376,-0.5344,-0.5399,-0.5683,-0.57,-0.5691,-0.5797,-0.5822,-0.5998,-0.6323,-0.6353,-0.6475,-0.6634,-0.6687,-0.6687,-0.6634,-0.6475,-0.637,-0.637,-0.6068,-0.6369,-0.7104,-0.707,-0.7626,-0.8508,-0.8508,-0.8975,-0.9722,-1.0119,-1.0538,-1.0944,-1.1727,-1.217,-1.237,0.0,0.0,0.0,0.0,0.0,0.0,0.0,0.0,0.0,0.0,0.0,0.0,0.0,0.1482,0.149,0.1748,0.1571,0.1448,0.1478,0.1453,0.145,0.1479,0.1482,0.1496,0.1478,0.1478,0.1478,0.1478,0.1478,0.1478,0.1478,0.1496,0.1482,0.1479,0.145,0.1391,0.1391,0.1391,0.1391,0.1391,0.1391,0.157,0.1749,0.148,0.1705,0.2154,0.1885,0.1794,0.1839,0.2109,0.2154,0.2109,0.1884,0.1794,0.0,0.148,0.1391,0.1391,0.0,0.0,0.1391,0.1391,0.1391,0.1391,0.1391,0.1391,0.1399,0.1473,0.148,0.117,0.0194,0.0,-0.0689,-0.2859,-0.3221,-0.3574,-0.4634,-0.4784,-0.4784,-0.4784,-0.4914,-0.5019,0.0,-0.5021,-0.5166,-0.5472,-0.5267,-0.5216,-0.5483,-0.5623,-0.5834,-0.611,-0.621,-0.632,-0.632,-0.632,-0.632,-0.632,-0.632,-0.632,-0.6318,-0.6158,-0.611,-0.6157,-0.5998,-0.6582,-0.7518,-0.7518,-0.8111,-0.8943,-0.8943,-0.9399,-1.0047,-1.0047,-1.0596,-1.134,0.0,0.0,0.0,0.0,0.0,0.0,0.0,0.0,0.0,0.0,0.0,0.0,0.0,0.0,0.0,0.0,0.1829,0.1806,0.1642,0.1653,0.1575,0.145,0.1451,0.1455,0.142,0.142,0.142,0.142,0.142,0.142,0.142,0.1455,0.1451,0.145,0.1395,0.1391,0.1391,0.1391,0.1391,0.1391,0.1391,0.157,0.1794,0.1705,0.1885,0.2199,0.0,0.2199,0.2064,0.2154,0.2199,0.2199,0.2109,0.193,0.1749,0.148,0.1391,0.1391,0.1391,0.0,0.1391,0.1391,0.1391,0.1391,0.1391,0.1451,0.1468,0.1478,0.1513,0.145,0.1126,0.0495,-0.045,-0.1913,-0.272,-0.3575,-0.4634,-0.4784,-0.4784,-0.4784,-0.4916,0.0,0.0,0.0,0.0,-0.5306,-0.531,-0.5345,-0.5456,-0.5484,-0.5609,-0.5883,-0.5917,-0.6049,-0.6274,-0.6274,-0.6274,-0.6274,-0.6049,-0.5882,-0.5717,-0.5682,-0.5611,-0.5609,-0.5577,-0.5743,-0.5948,-0.5948,-0.6467,-0.7186,-0.7506,-0.7899,-0.8305,-0.8556,-0.8616,-0.8817,0.0,0.0,0.0,0.0,0.0,0.0,0.0,0.0,0.0,0.0,0.0,0.0,0.0,0.0,0.0,0.0,0.0,0.1896,0.1694,0.1849,0.1825,0.1705,0.1705,0.166,0.1525,0.1615,0.166,0.1525,0.1525,0.1525,0.1525,0.1436,0.1391,0.1391,0.1391,0.1391,0.1391,0.1391,0.1436,0.1525,0.1525,0.1749,0.2064,0.1974,0.2154,0.0,0.2469,0.2469,0.2469,0.2469,0.2469,0.2424,0.2334,0.2064,0.1749,0.148,0.1391,0.1391,0.1391,0.1391,0.1391,0.1391,0.1391,0.1391,0.1391,0.1459,0.1484,0.1495,0.1536,0.1476,0.1089,0.015,-0.0907,-0.2016,-0.3073,-0.4029,-0.4684,-0.4784,-0.4796,-0.4879,-0.4965,-0.5057,0.0,0.0,0.0,-0.5294,-0.5347,-0.5382,-0.5382,-0.5382,-0.5491,-0.5656,-0.5656,-0.577,-0.5996,-0.5996,-0.5996,-0.5996,-0.577,-0.5547,-0.5382,-0.5382,-0.5382,-0.5382,-0.5382,-0.5347,-0.5294,-0.5294,-0.5508,-0.5947,-0.624,-0.663,-0.7009,-0.7279,-0.7272,-0.7534,0.0,0.0,0.0,0.0,0.0,0.0,0.0,0.0,0.0,0.0,0.0,0.0,0.0,0.0,0.0,0.0,0.0,0.0,0.1729,0.1951,0.2146,0.2193,0.2195,0.2061,0.1839,0.2064,0.2064,0.1794,0.1794,0.1794,0.1794,0.157,0.1436,0.1436,0.1436,0.1436,0.1436,0.1436,0.157,0.1839,0.1839,0.2109,0.2469,0.2289,0.2513,0.2873,0.2604,0.2694,0.292,0.0,0.0,0.0,0.0,0.2199,0.1749,0.148,0.1391,0.1436,0.1391,0.1391,0.1391,0.1391,0.1391,0.1391,0.1391,0.1459,0.1489,0.1517,0.1548,0.1282,0.0,0.0,-0.1963,-0.2968,-0.4076,-0.4784,-0.4784,-0.4784,-0.4869,0.0,0.0,0.0,0.0,0.0,0.0,-0.5382,0.0,-0.5382,-0.5382,-0.5382,-0.5382,-0.5382,-0.5382,-0.5382,-0.5382,-0.5382,-0.5382,-0.5382,-0.5382,-0.5382,-0.5382,-0.5382,-0.5382,-0.5382,-0.5382,-0.5382,-0.5382,-0.5382,-0.5331,-0.5196,-0.5192,-0.5614,-0.6166,-0.6154,-0.6543,-0.7294,0.0,0.0,0.0,0.0,0.0,0.0,0.0,0.0,0.0,0.0,0.0,0.0,0.0,0.0,0.0,0.0,0.0,0.0,0.2067,0.2058,0.2056,0.2144,0.2104,0.2119,0.2109,0.1974,0.1884,0.1794,0.1794,0.1794,0.1794,0.193,0.1974,0.1974,0.1974,0.1974,0.1974,0.1974,0.2019,0.2109,0.2109,0.2243,0.2513,0.2424,0.2604,0.2875,0.2829,0.2829,0.0,0.0,0.0,0.0,0.0,0.2199,0.2019,0.1525,0.1525,0.166,0.1436,0.1391,0.1391,0.1391,0.1391,0.1391,0.1391,0.1459,0.1483,0.1491,0.1516,0.1444,0.0,0.0,0.0,-0.2023,-0.3593,0.0,-0.4784,-0.4784,0.0,-0.4961,0.0,-0.5143,-0.5182,-0.5328,0.0,0.0,-0.5382,-0.5382,-0.5382,-0.5382,-0.5382,-0.5382,-0.5382,-0.5382,-0.5382,-0.5382,-0.5382,-0.5382,-0.5382,-0.5382,-0.5382,-0.5382,-0.5382,-0.5382,-0.5382,-0.5382,-0.5382,-0.5382,-0.5367,-0.5339,-0.5217,-0.5324,-0.5425,-0.5333,-0.5417,-0.5693,0.0,0.0,0.0,0.0,0.0,0.0,0.0,0.0,0.0,0.0,0.0,0.0,0.0,0.0,0.0,0.0,0.0,0.0,0.0,0.2263,0.2301,0.2354,0.2356,0.2338,0.23,0.2257,0.2179,0.2109,0.2109,0.2109,0.2109,0.2064,0.2019,0.2019,0.1885,0.193,0.2019,0.2019,0.2154,0.0,0.0,0.2469,0.2694,0.2694,0.2784,0.292,0.292,0.0,0.0,0.0,0.0,0.2649,0.2424,0.2349,0.2271,0.1889,0.0,0.1952,0.1798,0.166,0.157,0.157,0.148,0.1391,0.1391,0.1459,0.148,0.148,0.1505,0.0,0.0,0.0,0.0,0.0,0.0,0.0,-0.4784,-0.4784,-0.4869,0.0,-0.5053,0.0,-0.5182,-0.5328,-0.5382,0.0,-0.5382,-0.5382,-0.5382,-0.5382,-0.5382,-0.5382,-0.5382,-0.5382,-0.5382,-0.5382,-0.5382,-0.5382,-0.5382,-0.5382,-0.5382,-0.5382,-0.5382,-0.5382,-0.5382,-0.5382,-0.5382,-0.5382,-0.5382,-0.5375,-0.5324,-0.5225,-0.5178,-0.5128,-0.5041,-0.5066,0.0,0.0,0.0,0.0,0.0,0.0,0.0,0.0,0.0,0.0,0.2515,0.0,0.0,0.0,0.0,0.0,0.0,0.0,0.0,0.0,0.0,0.2677,0.268,0.2624,0.2423,0.2641,0.2665,0.2492,0.2499,0.2503,0.2458,0.2107,0.193,0.193,0.1705,0.1749,0.193,0.193,0.2199,0.2558,0.2558,0.2694,0.292,0.0,0.292,0.0,0.0,0.0,0.0,0.0,0.2873,0.2784,0.2558,0.255,0.2538,0.2265,0.2237,0.226,0.2219,0.2023,0.1839,0.1839,0.166,0.148,0.148,0.1546,0.1567,0.1567,0.0,0.1561,0.1561,-0.0096,-0.1513,-0.166,0.0,-0.4634,-0.4784,-0.4784,-0.4869,-0.4961,-0.5053,-0.5143,-0.5182,-0.5328,-0.5382,-0.5382,-0.5382,-0.5382,-0.5382,-0.5382,-0.5382,-0.5382,-0.5382,-0.5382,-0.5382,-0.5382,-0.5382,-0.5382,-0.5382,-0.5382,-0.5382,-0.5382,-0.5382,-0.5382,-0.5382,-0.5382,-0.5382,-0.5382,-0.5382,-0.5382,-0.5382,-0.5333,-0.5207,-0.5194,-0.5137,-0.4988,0.0,0.0,0.0,0.0,0.0,0.0,0.0,0.0,0.0,0.0,0.2542,0.247,0.0,0.0,0.0,0.0,0.0,0.0,0.0,0.0,0.0,0.0,0.2617,0.2646,0.2665,0.2496,0.2373,0.234,0.2383,0.2404,0.2405,0.2627,0.2694,0.2694,0.2649,0.2649,0.2694,0.2694,0.2739,0.2829,0.2829,0.2873,0.292,0.292,0.0,0.0,0.0,0.0,0.0,0.0,0.2739,0.2558,0.2513,0.255,0.2545,0.2259,0.2354,0.2499,0.2259,0.2182,0.2109,0.2109,0.193,0.1794,0.2019,0.189,0.0,0.0,0.19,0.1768,0.1768,0.056,0.0,-0.1579,0.0,0.0,0.0,0.0,-0.4869,0.0,0.0,0.0,0.0,0.0,0.0,0.0,-0.5382,-0.5382,-0.5382,-0.5382,-0.5382,-0.5382,-0.5382,-0.5382,-0.5382,-0.5382,-0.5382,-0.5382,-0.5382,-0.5382,-0.5382,-0.5382,-0.5382,-0.5382,-0.5382,-0.5382,-0.5382,-0.5382,-0.5382,-0.5382,-0.5382,-0.5371,-0.5349,-0.5219,-0.5175,-0.5073,0.0,0.0,0.0,0.0,0.0,0.0,0.0,0.2664,0.2634,0.2605,0.2548,0.2511,0.2511,0.2511,0.2511,0.0,0.0,0.0,0.0,0.0,0.0,0.0,0.0,0.0,0.0,0.2521,0.2452,0.2523,0.0,0.2564,0.2565,0.2592,0.2621,0.2649,0.2517,0.2577,0.2694,0.2694,0.2784,0.292,0.292,0.292,0.0,0.0,0.0,0.0,0.0,0.0,0.0,0.0,0.2829,0.2698,0.2771,0.2821,0.2819,0.2725,0.2746,0.2804,0.2652,0.2527,0.2412,0.2385,0.2199,0.2064,0.2154,0.0,0.0,0.0,0.2109,0.2019,0.2019,0.0,0.0,0.0,0.0,0.0,0.0,0.0,0.0,0.0,0.0,0.0,0.0,0.0,0.0,0.0,-0.5382,-0.5382,-0.5382,-0.5382,-0.5382,-0.5382,-0.5382,-0.5382,-0.5382,-0.5382,-0.5382,-0.5382,-0.5382,-0.5382,-0.5382,-0.5382,-0.5382,-0.5382,-0.5382,-0.5382,-0.5382,-0.5382,-0.5382,-0.5382,-0.5382,-0.5382,-0.5375,-0.5333,-0.5257,-0.5165,0.0,0.0,0.0,0.0,0.0,0.0,0.0,0.2571,0.2563,0.2563,0.2511,0.2477,0.2489,0.2503,0.2511,0.0,0.0,0.0,0.0,0.0,0.0,0.0,0.0,0.0,0.0,0.0,0.0,0.2653,0.2666,0.0,0.0,0.0,0.0,0.0,0.2288,0.2353,0.2526,0.2536,0.2676,0.0,0.0,0.292,0.0,0.0,0.0,0.0,0.0,0.0,0.0,0.0,0.292,0.2931,0.3003,0.3058,0.3099,0.3112,0.3102,0.3067,0.3054,0.2877,0.2671,0.2617,0.2424,0.2289,0.2334,0.2289,0.0,0.0,0.2289,0.2244,0.2244,0.0,0.0,0.0,0.0,0.0,0.0,0.0,0.0,0.0,0.0,0.0,0.0,0.0,0.0,0.0,-0.5326,-0.5382,-0.5382,-0.5382,-0.5382,-0.5382,-0.5382,-0.5382,-0.5382,-0.5382,-0.5382,-0.5382,-0.5382,-0.5382,-0.5382,-0.5382,-0.5382,-0.5382,-0.5382,-0.5382,-0.5382,-0.5382,-0.5382,-0.5382,-0.5382,-0.5382,-0.5382,-0.5382,-0.5324,-0.5178,0.0,0.0,0.0,0.0,0.0,0.0,0.0,0.2471,0.2436,0.2436,0.235,0.2334,0.2385,0.2477,0.2511,0.0,0.0,0.0,0.0,0.0,0.0,0.0,0.0,0.0,0.0,0.0,0.0,0.2527,0.2582,0.0,0.0,0.0,0.0,0.0,0.0,0.2661,0.267,0.2767,0.0,0.0,0.0,0.0,0.0,0.0,0.0,0.0,0.0,0.0,0.0,0.0,0.0,0.2939,0.3052,0.3093,0.3108,0.3115,0.0,0.0,0.3106,0.3047,0.2944,0.2888,0.2649,0.2513,0.2784,0.0,0.0,0.2784,0.2649,0.2469,0.2469,0.2275,0.1811,0.0,0.0,0.005,0.0,0.0,0.0,0.0,0.0,0.0,0.0,0.0,0.0,0.0,-0.5098,-0.5382,-0.5382,-0.5382,-0.5382,-0.5382,-0.5382,-0.5382,-0.5382,-0.5382,-0.5382,-0.5382,-0.5382,-0.5382,-0.5382,-0.5382,-0.5382,-0.5382,-0.5382,-0.5382,-0.5382,-0.5382,-0.5382,-0.5382,-0.5382,-0.5382,-0.5382,-0.5382,-0.5324,-0.5178,0.0,0.0,0.0,0.0,0.0,0.0,0.2314,0.2324,0.2332,0.2332,0.2312,0.2307,0.233,0.2354,0.2395,0.2504,0.0,0.0,0.0,0.0,0.0,0.0,0.0,0.0,0.0,0.0,0.2511,0.2511,0.2535,0.0,0.0,0.0,0.0,0.0,0.0,0.0,0.2694,0.0,0.0,0.0,0.0,0.0,0.0,0.0,0.0,0.0,0.0,0.0,0.0,0.0,0.0,0.0,0.3059,0.3097,0.0,0.0,0.3144,0.3173,0.3123,0.3079,0.3037,0.2943,0.2829,0.2784,0.2873,0.0,0.0,0.2873,0.2829,0.2739,0.2739,0.2785,0.2573,0.1952,0.0,0.0,0.0,0.0,0.0,0.0,0.0,0.0,0.0,0.0,0.0,-0.3918,-0.4203,-0.4316,-0.4316,-0.4989,-0.5382,-0.5382,-0.5382,-0.5382,-0.5382,-0.5382,-0.5382,-0.5382,-0.5382,-0.5382,-0.5382,-0.5382,-0.5382,-0.5382,-0.5382,-0.5382,-0.5382,-0.5382,-0.5382,-0.5382,-0.5382,-0.5382,-0.5382,-0.5382,-0.5324,-0.5178,0.0,0.0,0.0,0.0,0.0,0.2183,0.2183,0.2255,0.2282,0.2282,0.2282,0.2253,0.2271,0.2273,0.2312,0.2411,0.2459,0.0,0.0,0.0,0.0,0.0,0.0,0.0,0.0,0.0,0.2511,0.2511,0.2511,0.2511,0.0,0.0,0.0,0.0,0.0,0.0,0.0,0.0,0.0,0.0,0.0,0.0,0.0,0.0,0.0,0.0,0.0,0.0,0.0,0.0,0.0,0.0,0.0,0.0,0.0,0.0,0.318,0.3209,0.3104,0.3111,0.3072,0.2969,0.2932,0.292,0.0,0.0,0.292,0.292,0.292,0.292,0.292,0.3016,0.3002,0.2762,0.0,0.1714,0.0,0.0,0.0,0.0,0.0,0.0,0.0,0.0,0.0,-0.2741,-0.2799,-0.2799,-0.2799,-0.3582,-0.4423,-0.5098,-0.5324,-0.5382,-0.5382,-0.5382,-0.5382,-0.5382,-0.5382,-0.5382,-0.5382,-0.5382,-0.5382,-0.5382,-0.5382,-0.5382,-0.5382,-0.5382,-0.5382,-0.5382,-0.5382,-0.5382,-0.5377,-0.5351,-0.53,-0.5174,0.0,0.0,0.0,0.0,0.0,0.0,0.2188,0.2189,0.219,0.219,0.219,0.2213,0.2204,0.221,0.2234,0.2296,0.2301,0.0,0.0,0.0,0.0,0.0,0.0,0.0,0.0,0.0,0.2511,0.2511,0.2511,0.2511,0.2511,0.2511,0.2511,0.2511,0.0,0.0,0.0,0.0,0.0,0.0,0.0,0.0,0.0,0.0,0.0,0.0,0.0,0.0,0.0,0.0,0.0,0.0,0.0,0.0,0.0,0.0,0.318,0.3167,0.3106,0.3095,0.3081,0.3019,0.2961,0.292,0.0,0.0,0.292,0.292,0.292,0.292,0.292,0.3016,0.3097,0.3097,0.3151,0.0,0.0,0.0,0.0,0.0,0.0,0.0,0.0,0.0,0.0,-0.0894,-0.095,0.0,-0.095,-0.095,-0.2068,-0.4423,-0.5098,-0.5382,-0.5382,-0.5382,-0.5382,-0.5382,-0.5382,-0.5382,-0.5382,-0.5382,-0.5382,-0.5382,-0.5382,-0.5382,-0.5382,-0.5382,-0.5382,-0.5382,-0.5382,-0.5382,-0.5371,-0.5225,-0.519,-0.5164,0.0,0.0,0.0,0.0,0.0,0.0,0.0,0.2188,0.2188,0.2188,0.2188,0.2196,0.2214,0.262,0.2901,0.2926,0.2534,0.0,0.0,0.0,0.0,0.0,0.0,0.0,0.0,0.0,0.2511,0.2511,0.2511,0.2511,0.2511,0.2511,0.2511,0.2511,0.2511,0.0,0.0,0.0,0.0,0.0,0.0,0.0,0.0,0.0,0.0,0.0,0.0,0.0,0.0,0.0,0.0,0.0,0.0,0.0,0.0,0.4916,0.0,0.0,0.3094,0.3081,0.3019,0.2961,0.2932,0.292,0.292,0.292,0.292,0.292,0.295,0.2978,0.2978,0.303,0.311,0.311,0.3179,0.0,0.0,0.0,0.0,0.0,0.0,0.0,0.0,0.0,0.1176,0.0392,0.0336,0.0336,0.0336,-0.0056,-0.0839,-0.2011,-0.2797,-0.3192,-0.3192,-0.3866,-0.4148,-0.4148,-0.4148,-0.4148,-0.4148,-0.4148,-0.4148,-0.4148,-0.4148,-0.4148,-0.4148,-0.4148,-0.4426,-0.4761,-0.4761,-0.5006,-0.5284,-0.52,-0.5165,-0.5049,0.0,0.0,0.0,0.0,0.0,0.0,0.0,0.2188,0.2188,0.2188,0.2188,0.2188,0.2188,0.2785,0.3215,0.3215,0.3117,0.0,0.0,0.0,0.0,0.0,0.0,0.0,0.2979,0.2979,0.2979,0.2979,0.2979,0.2979,0.2979,0.2979,0.2902,0.2746,0.3057,0.3134,0.0,0.0,0.0,0.0,0.0,0.0,0.4418,0.0,0.0,0.0,0.0,0.0,0.0,0.0,0.0,0.0,0.0,0.0,0.0,0.0,0.5241,0.0,0.0,0.3518,0.3227,0.3007,0.2935,0.0,0.0,0.3207,0.3225,0.3225,0.3275,0.3272,0.3085,0.3074,0.309,0.309,0.3141,0.0,0.0,0.0,0.0,0.0,0.0,0.0,0.0,0.2686,0.2503,0.1961,0.1905,0.1905,0.1905,0.1568,0.1175,0.0783,-0.0839,-0.1734,-0.1734,-0.2294,-0.2574,-0.2574,-0.2574,-0.2574,-0.2574,-0.2912,-0.3081,-0.3081,-0.3418,-0.3587,0.0,-0.3587,-0.3797,-0.4106,-0.4106,-0.4282,-0.4541,-0.4511,-0.4488,-0.4398,0.0,0.0,0.0,0.0,0.0,0.0,0.0,0.2188,0.2188,0.2188,0.2255,0.2255,0.2255,0.2919,0.3349,0.3349,0.0,0.0,0.0,0.0,0.0,0.0,0.0,0.0,0.3791,0.38,0.3802,0.3802,0.3802,0.3802,0.3802,0.3802,0.3608,0.3256,0.4073,0.4263,0.4064,0.4766,0.5079,0.5121,0.5079,0.5224,0.0,0.0,0.0,0.0,0.0,0.0,0.0,0.0,0.0,0.0,0.0,0.0,0.0,0.0,0.0,0.0,0.0,0.0,0.0,0.0,0.0,0.0,0.0,0.3695,0.0,0.3661,0.3765,0.372,0.3197,0.3105,0.3097,0.3097,0.3144,0.0,0.0,0.0,0.0,0.0,0.0,0.0,0.0,0.3492,0.3521,0.3576,0.3585,0.3587,0.3587,0.3587,0.3587,0.3587,0.0894,-0.0614,-0.067,-0.0726,-0.0782,-0.0782,-0.0781,-0.0781,-0.0781,-0.1618,-0.2008,-0.2064,-0.2903,-0.3295,-0.3295,-0.3295,-0.3263,-0.3271,-0.3271,-0.329,-0.3285,-0.3231,-0.326,-0.3351,0.0,0.0,0.0,0.0,0.0,0.0,0.0,0.0,0.0,0.0,0.2653,0.2952,0.2952,0.4115,0.4878,0.0,0.0,0.0,0.0,0.0,0.0,0.0,0.0,0.0,0.3658,0.3767,0.3802,0.3802,0.3802,0.3802,0.3802,0.3802,0.3995,0.4341,0.4535,0.5193,0.6125,0.5651,0.5848,0.6395,0.5732,0.5906,0.0,0.0,0.0,0.0,0.8341,0.8622,0.0,0.0,0.0,0.0,0.0,0.0,0.0,0.0,0.8109,0.7605,0.7427,0.0,0.4954,0.4862,0.4133,0.3467,0.0,0.3735,0.3671,0.0,0.0,0.0,0.3214,0.3118,0.3158,0.3158,0.0,0.0,0.0,0.0,0.0,0.0,0.0,0.0,0.0,0.3444,0.3501,0.3516,0.3561,0.3587,0.3587,0.3587,0.3587,0.3587,0.2912,0.2183,0.1455,0.0784,0.0504,0.0504,0.0442,0.0385,0.0384,0.0108,0.0,0.0,-0.0216,-0.0323,-0.0323,-0.0323,-0.0591,-0.0963,-0.0963,-0.1216,-0.1509,-0.1502,-0.1846,-0.233,0.0,0.0,0.0,0.0,0.0,0.0,0.0,0.0,0.0,0.0,0.0,0.3718,0.3718,0.4713,0.0,0.0,0.0,0.0,0.0,0.0,0.0,0.0,0.0,0.4472,0.4975,0.5133,0.5237,0.5237,0.5237,0.5237,0.5237,0.5237,0.5273,0.5386,0.5619,0.6356,0.7403,0.6934,0.7011,0.7403,0.693,0.0,0.0,0.0,0.0,0.0,0.8755,0.895,0.0,0.9506,0.9832,1.0002,0.0,0.0,0.0,0.0,0.9224,0.8932,0.9003,0.7654,0.6065,0.5536,0.4952,0.4464,0.4424,0.0,0.0,0.0,0.0,0.0,0.0,0.0,0.0,0.0,0.0,0.0,0.0,0.0,0.0,0.0,0.0,0.0,0.0,0.3379,0.3428,0.3455,0.3489,0.3507,0.3507,0.3507,0.3507,0.3507,0.3507,0.3298,0.2824,0.2327,0.2097,0.2027,0.2008,0.1999,0.1999,0.1551,0.1331,0.1331,0.0905,0.0692,0.0692,0.0692,0.0529,0.0263,0.0263,0.0104,-0.0102,-0.0102,-0.0355,-0.0755,0.0,0.0,0.0,0.0,0.0,0.0,0.0,0.0,0.0,0.0,0.0,0.0,0.0,0.0,0.0,0.0,0.0,0.0,0.0,0.0,0.0,0.0,0.5319,0.564,0.6548,0.6768,0.6903,0.6903,0.6903,0.6903,0.6903,0.6903,0.6745,0.6472,0.6976,0.7557,0.8178,0.8178,0.8178,0.8178,0.8178,0.0,0.0,0.0,0.0,0.0,0.0,0.0,0.0,0.9814,1.0089,1.027,1.027,0.0,0.0,0.0,0.0,0.0,0.9994,0.8819,0.733,0.6201,0.5758,0.558,0.5417,0.0,0.0,0.0,0.0,0.0,0.0,0.0,0.0,0.0,0.0,0.0,0.0,0.0,0.0,0.0,0.0,0.0,0.3303,0.3316,0.3343,0.3395,0.3407,0.3413,0.3413,0.3413,0.3413,0.3413,0.3413,0.3431,0.3469,0.3478,0.3459,0.3413,0.3403,0.3398,0.3345,0.2593,0.2272,0.2219,0.1426,0.1056,0.1056,0.1056,0.1099,0.1187,0.1187,0.1175,0.1159,0.1159,0.1109,0.0907,0.0,0.0,0.0,0.0,0.0,0.0,0.0,0.0,0.0,0.0,0.0,0.0,0.0,0.0,0.0,0.0,0.0,0.0,0.0,0.0,0.0,0.6482,0.6282,0.628,0.6414,0.6746,0.6903,0.6903,0.6903,0.6903,0.6903,0.6903,0.713,0.7591,0.8165,0.8513,0.8627,0.8627,0.8627,0.8627,0.8627,0.0,0.0,0.0,0.0,0.0,0.0,0.0,0.0,0.9569,0.9833,1.0047,1.0047,0.0,0.0,0.0,0.0,0.0,0.9994,0.9907,0.9589,0.862,0.7241,0.6107,0.612,0.0,0.0,0.0,0.0,0.0,0.0,0.0,0.0,0.0,0.0,0.0,0.0,0.0,0.0,0.0,0.0,0.3184,0.3193,0.3292,0.3326,0.3335,0.3383,0.3413,0.3413,0.3413,0.3413,0.3413,0.3413,0.3392,0.3349,0.3399,0.3421,0.3412,0.336,0.3335,0.3334,0.3128,0.3054,0.3003,0.2901,0.2799,0.2799,0.2799,0.2845,0.2838,0.2838,0.2833,0.2826,0.2826,0.2422,0.1714,0.0,0.0,0.0,0.0,0.0,0.0,0.0,0.0,0.0,0.0,0.0,0.0,0.0,0.0,0.0,0.0,0.0,0.0,0.0,0.0,0.6986,0.7292,0.7294,0.7335,0.7335,0.7667,0.7859,0.7859,0.7859,0.7859,0.7859,0.7859,0.8012,0.828,0.8589,0.8703,0.8703,0.8703,0.8703,0.8703,0.0,0.0,0.0,0.0,0.0,0.0,0.0,0.0,0.0,0.0,0.9951,1.017,1.017,0.0,0.0,0.0,0.0,0.0,1.0081,1.0156,1.0204,0.9745,0.8847,0.7987,0.7634,0.0,0.0,0.0,0.0,0.0,0.0,0.0,0.0,0.0,0.0,0.0,0.0,0.0,0.0,0.0,0.0,0.318,0.318,0.3205,0.3221,0.3221,0.3298,0.3315,0.3315,0.3315,0.3315,0.3315,0.3315,0.33,0.3221,0.33,0.3315,0.3313,0.3286,0.3221,0.322,0.3192,0.318,0.318,0.318,0.318,0.318,0.318,0.318,0.318,0.318,0.318,0.318,0.318,0.2977,0.2573,0.0,0.0,0.0,0.0,0.0,0.0,0.0,0.0,0.0,0.0,0.0,0.0,0.0,0.0,0.0,0.0,0.0,0.0,0.0,0.7311,0.7479,0.7773,0.8023,0.8155,0.8155,0.8514,0.8703,0.8703,0.8703,0.8703,0.8703,0.8703,0.8703,0.8703,0.8703,0.8703,0.8703,0.8703,0.8703,0.8703,0.0,0.0,0.0,0.0,0.0,0.0,0.0,0.0,0.0,0.0,0.0,0.0,0.0,0.0,0.0,1.0381,1.0506,1.0694,1.0319,1.0361,1.0538,1.0455,0.0,0.954,0.9008,0.0,0.0,0.0,0.0,0.0,0.0,0.0,0.0,0.0,0.0,0.0,0.0,0.3281,0.318,0.318,0.318,0.318,0.318,0.318,0.318,0.318,0.318,0.318,0.318,0.318,0.318,0.318,0.318,0.318,0.318,0.318,0.318,0.318,0.318,0.318,0.318,0.318,0.318,0.318,0.318,0.318,0.318,0.318,0.318,0.318,0.318,0.318,0.318,0.318,0.318,0.318,0.0,0.0,0.0,0.0,0.0,0.0,0.0,0.0,0.0,0.0,0.0,0.0,0.0,0.0,0.0,0.0,0.0,0.0,0.0,0.7645,0.7763,0.7816,0.8165,0.8377,0.8377,0.859,0.8703,0.8703,0.8703,0.8703,0.8703,0.8703,0.8703,0.8703,0.8703,0.8703,0.8703,0.8703,0.8703,0.8703,0.8703,0.0,0.0,0.0,0.0,0.0,0.0,0.0,0.0,0.0,0.0,0.0,0.0,0.0,1.1241,1.1198,1.1241,1.1202,1.0987,1.1076,1.1149,1.0943,1.0292,0.0,0.9636,0.9145,0.0,0.7779,0.0,0.0,0.0,0.0,0.0,0.0,0.0,0.0,0.0,0.0,0.318,0.318,0.318,0.318,0.318,0.318,0.318,0.318,0.318,0.318,0.318,0.318,0.318,0.318,0.318,0.318,0.318,0.318,0.318,0.318,0.318,0.318,0.318,0.318,0.318,0.318,0.318,0.318,0.318,0.318,0.318,0.318,0.318,0.318,0.318,0.318,0.318,0.318,0.0,0.0,0.0,0.0,0.0,0.0,0.0,0.0,0.0,0.0,0.0,0.0,0.0,0.0,0.0,0.0,0.0,0.0,0.0,0.7769,0.7896,0.8155,0.8316,0.8458,0.8585,0.8661,0.8703,0.8703,0.8937,0.9089,0.9089,0.9311,0.9463,0.9463,0.9463,0.9311,0.9089,0.9089,0.9014,0.8902,0.8902,0.8978,0.0,0.0,0.0,0.0,0.0,0.0,0.0,0.0,1.1734,1.1482,1.1327,1.1494,1.1671,1.137,1.1609,1.1888,1.1538,1.1476,1.1499,1.14,1.1034,0.0,0.0,1.0058,0.9472,0.9171,0.8276,0.0,0.0,0.0,0.0,0.0,0.0,0.0,0.4033,0.3831,0.3581,0.323,0.318,0.318,0.318,0.318,0.318,0.318,0.318,0.318,0.318,0.318,0.318,0.318,0.318,0.318,0.318,0.318,0.318,0.318,0.318,0.318,0.318,0.318,0.318,0.318,0.318,0.318,0.318,0.318,0.318,0.318,0.318,0.318,0.318,0.318,0.318,0.318,0.0,0.0,0.0,0.0,0.0,0.0,0.0,0.0,0.0,0.0,0.0,0.0,0.0,0.0,0.0,0.0,0.0,0.0,0.7802,0.7873,0.8033,0.8387,0.8574,0.8754,0.8894,0.9193,0.9193,0.8894,0.9279,0.9473,0.9506,0.9771,0.9884,0.9884,0.9884,0.9808,0.9614,0.9614,0.9588,0.9553,0.9553,0.9757,0.0,0.0,0.0,0.0,0.0,0.0,0.0,0.0,1.251,1.2205,1.1851,1.21,1.246,1.1988,1.2091,1.231,1.2017,1.1791,1.1672,0.0,0.0,0.0,1.1194,1.0757,1.0314,1.0068,0.8682,0.0,0.0,0.0,0.0,0.0,0.0,0.4935,0.4533,0.4334,0.4133,0.3732,0.3682,0.3632,0.3482,0.3432,0.3381,0.323,0.318,0.318,0.318,0.318,0.318,0.318,0.318,0.318,0.318,0.318,0.318,0.318,0.318,0.318,0.318,0.318,0.318,0.318,0.318,0.318,0.318,0.318,0.318,0.318,0.318,0.318,0.318,0.318,0.318,0.318,0.0,0.0,0.0,0.0,0.0,0.0,0.0,0.0,0.0,0.0,0.0,0.0,0.0,0.0,0.0,0.0,0.0,0.0,0.7802,0.8006,0.8215,0.8396,0.898,0.9322,0.9322,1.0293,1.0331,0.9322,0.9733,0.9922,0.9922,0.9916,0.9922,0.9922,0.9922,1.0051,1.0311,1.0311,1.0486,1.0702,1.0702,1.1106,1.1708,0.0,0.0,0.0,0.0,0.0,0.0,0.0,1.3021,1.3603,1.2918,1.3179,1.3625,1.3224,1.2724,1.2344,1.2379,1.2036,0.0,0.0,0.0,0.0,0.0,0.0,1.0949,1.0167,0.0,0.7557,0.7604,0.0,0.0,0.6418,0.5984,0.5636,0.5586,0.5135,0.4784,0.4784,0.4784,0.4583,0.4083,0.4033,0.3783,0.323,0.323,0.323,0.323,0.323,0.323,0.323,0.318,0.318,0.318,0.318,0.318,0.318,0.318,0.318,0.318,0.318,0.318,0.318,0.318,0.318,0.318,0.318,0.318,0.318,0.318,0.318,0.318,0.318,0.318,0.318,0.0,0.0,0.0,0.0,0.0,0.0,0.0,0.0,0.0,0.0,0.0,0.0,0.0,0.0,0.0,0.0,0.0,0.0,0.8404,0.8618,0.8941,0.943,1.0029,1.0368,1.0368,1.1354,1.136,1.0368,1.0775,1.0962,1.0962,1.1669,1.2144,1.2327,1.1879,1.1689,1.1702,1.1702,1.1651,1.1594,1.1594,1.1834,1.208,0.0,0.0,0.0,0.0,0.0,0.0,0.0,0.0,0.0,1.3836,1.3814,1.3915,1.3499,1.3389,1.3338,1.2971,0.0,0.0,0.0,0.0,0.0,0.0,0.0,0.0,0.0,0.0,0.8966,0.8545,0.0,0.0,0.731,0.7132,0.6684,0.5734,0.5486,0.5236,0.4834,0.4784,0.4734,0.4583,0.4583,0.4483,0.4334,0.4334,0.4334,0.4334,0.3982,0.3783,0.3783,0.3381,0.318,0.318,0.318,0.318,0.318,0.318,0.318,0.318,0.318,0.318,0.318,0.318,0.318,0.318,0.318,0.318,0.318,0.318,0.318,0.318,0.318,0.318,0.318,0.0,0.0,0.0,0.0,0.0,0.0,0.0,0.0,0.0,0.0,0.0,0.0,0.0,0.0,0.0,0.0,0.0,0.0,0.0,0.93,0.9805,1.0244,1.0993,1.1583,1.199,1.2358,1.2358,1.199,1.2003,1.2003,1.2003,1.2753,1.3196,1.3372,1.3115,1.3027,1.306,1.2819,1.2823,1.3029,1.2785,1.3052,1.362,0.0,0.0,0.0,0.0,0.0,0.0,0.0,0.0,0.0,1.4888,1.4977,1.5038,1.4307,1.3912,1.3637,1.3129,0.0,0.0,0.0,0.0,0.0,0.0,0.0,0.0,0.0,0.0,0.9738,0.9353,0.8939,0.0,0.8163,0.8077,0.7779,0.698,0.688,0.6631,0.5982,0.6182,0.6182,0.5632,0.5882,0.5979,0.5782,0.5729,0.5632,0.5284,0.5281,0.4981,0.4334,0.4332,0.4182,0.3833,0.3831,0.3831,0.3831,0.3831,0.3831,0.3831,0.3381,0.318,0.318,0.318,0.318,0.318,0.318,0.318,0.318,0.318,0.318,0.318,0.318,0.318,0.318,0.0,0.0,0.0,0.0,0.0,0.0,0.0,0.0,0.0,0.0,0.0,0.0,0.0,0.0,0.0,0.0,0.0,0.0,0.0,1.0044,1.0706,1.0987,1.1946,1.2901,1.3796,1.3368,1.3331,1.3796,1.3258,1.2987,1.3059,1.3395,1.3589,1.366,1.3906,1.4165,1.4374,1.377,1.4014,1.4734,1.411,1.4608,1.5692,1.5609,0.0,0.0,0.0,0.0,0.0,0.0,0.0,0.0,1.6037,1.6352,1.6595,1.5377,1.4384,1.3543,1.2936,0.0,0.0,0.0,0.0,0.0,0.0,0.0,0.0,0.0,0.0,1.0092,1.0092,0.9497,0.8951,0.8901,0.8913,0.8874,0.8825,0.8825,0.8528,0.7779,0.8375,0.8326,0.7077,0.7624,0.7872,0.7372,0.7322,0.7024,0.6279,0.6924,0.6625,0.5133,0.5729,0.5779,0.5033,0.5033,0.5033,0.5033,0.5033,0.5033,0.4983,0.3831,0.3281,0.3281,0.3281,0.3281,0.3281,0.323,0.323,0.3281,0.323,0.323,0.3281,0.323,0.318,0.318,0.0,0.0,0.0,0.0,0.0,0.0,0.0,0.0,0.0,0.0,0.0,0.0,0.0,0.0,0.0,0.0,0.0,0.0,0.0,1.101,1.1569,1.2409,1.3353,1.3861,1.3796,1.4374,1.441,1.3796,1.3651,1.3748,1.4007,1.4575,1.5072,1.5583,1.5138,1.5106,1.5374,1.525,1.5294,1.5484,1.5318,1.5443,1.565,1.511,1.552,0.0,0.0,0.0,0.0,0.0,0.0,0.0,1.7011,1.6981,1.6859,1.5678,1.5152,1.4684,0.0,1.2613,0.0,0.0,0.0,0.0,0.0,0.0,0.0,0.0,0.0,1.0722,1.0722,1.0573,1.0232,0.9598,0.9624,0.9521,0.8874,0.8825,0.8726,0.8574,0.8676,0.8676,0.8375,0.8524,0.8574,0.8474,0.8471,0.8375,0.8223,0.7975,0.7673,0.7325,0.7074,0.6874,0.6675,0.6675,0.6675,0.6675,0.6675,0.6675,0.6625,0.4682,0.3831,0.3831,0.3831,0.3831,0.3783,0.3381,0.343,0.3783,0.3381,0.3482,0.3783,0.3331,0.318,0.318,0.0,0.0,0.0,0.0,0.0,0.0,0.0,0.0,0.0,0.0,0.0,0.0,0.0,0.0,0.0,0.0,0.0,0.0,0.0,0.0,1.2989,1.3941,1.431,1.4453,1.4482,1.4776,1.4756,1.4448,1.4668,1.4762,1.4726,1.5401,1.5864,1.6174,1.6019,1.6026,1.6154,1.5824,1.5906,1.6154,1.5816,1.5899,1.6147,1.5775,1.6012,1.6507,1.6507,0.0,0.0,0.0,0.0,0.0,0.0,0.0,1.7766,1.68,1.6089,1.533,0.0,0.0,0.0,0.0,0.0,0.0,0.0,0.0,0.0,0.0,0.0,1.0863,1.0759,1.074,1.0599,1.0213,1.0208,1.0132,0.9744,0.9644,0.9504,0.9124,0.9408,0.9504,0.9124,0.9456,0.9644,0.9644,0.9644,0.9504,0.9124,0.9164,0.8871,0.8101,0.8197,0.8132,0.7815,0.7811,0.7851,0.7971,0.7971,0.7822,0.7521,0.6179,0.5529,0.5529,0.5131,0.4983,0.4883,0.4232,0.4133,0.4334,0.4083,0.4133,0.4334,0.4083,0.3982,0.3982,0.0,0.0,0.0,0.0,0.0,0.0,0.0,0.0,0.0,0.0,0.0,0.0,0.0,0.0,0.0,0.0,0.0,0.0,0.0,0.0,0.0,1.5062,1.4919,1.4883,1.5098,1.4984,1.5025,1.5293,1.5815,1.5918,1.5597,1.617,1.6436,1.6429,1.6684,1.6779,1.6648,1.6113,1.6188,1.6648,1.6105,1.6196,1.6689,1.6689,1.6689,1.6689,1.6689,1.7008,1.7448,1.7719,0.0,0.0,0.0,0.0,1.8635,1.7924,1.6929,1.594,0.0,0.0,0.0,0.0,0.0,0.0,0.0,0.0,0.0,0.0,0.0,1.0735,1.0602,1.0569,1.0569,1.0569,1.0597,1.0621,1.0621,1.0621,1.0343,0.9693,1.0204,1.0343,0.9693,1.0204,1.0621,1.0621,1.0621,1.0297,0.9647,1.025,0.9968,0.866,0.9274,0.9388,0.8861,0.8865,0.8935,0.9131,0.9162,0.8928,0.8481,0.8054,0.767,0.7322,0.6625,0.6329,0.6279,0.5532,0.5183,0.5133,0.5033,0.4983,0.4935,0.4834,0.4784,0.4784,0.0,0.0,0.0,0.0,0.0,0.0,0.0,0.0,0.0,0.0,0.0,0.0,0.0,0.0,0.0,0.0,0.0,0.0,1.3571,0.0,0.0,1.4669,1.5303,1.5338,1.4669,1.5635,1.601,1.5729,1.6775,1.7243,1.7204,1.7259,1.729,1.7236,1.7286,1.7066,1.6689,1.6607,1.6607,1.6689,1.6607,1.6607,1.6689,1.6689,1.6689,1.6689,1.6689,1.7151,1.7759,1.7798,1.8208,0.0,0.0,0.0,1.8635,1.7924,1.7591,1.7171,0.0,0.0,0.0,0.0,0.0,0.0,0.0,0.0,0.0,0.0,0.0,1.0348,1.0365,1.036,1.036,1.036,1.0507,1.0621,1.0621,1.0621,1.0575,1.0436,1.0528,1.0575,1.0436,1.0528,1.0621,1.0621,1.0621,1.0575,1.0436,1.0524,1.0477,1.0292,1.0385,1.0399,1.0334,1.0334,1.0347,1.0375,1.0559,1.0599,1.0503,1.0622,0.9653,0.7872,0.7773,0.7723,0.7673,0.7123,0.6728,0.6481,0.6029,0.5682,0.5436,0.4985,0.4784,0.4784,0.0,0.0,0.0,0.0,0.0,0.0,0.0,0.0,0.0,0.0,0.0,0.0,0.0,0.0,0.0,1.2718,1.3142,1.3724,1.4517,1.4982,1.5311,1.5532,1.5726,1.5836,1.5908,1.6465,1.6727,1.675,1.7506,1.7978,1.8197,1.8417,1.8228,1.7716,1.7514,1.727,1.7066,1.6812,1.6689,1.6689,1.6689,1.6689,1.6689,1.6689,1.6689,1.6689,1.6689,1.7183,1.7814,1.7814,1.824,1.8781,1.8781,0.0,0.0,0.0,0.0,0.0,0.0,0.0,0.0,0.0,0.0,0.0,0.0,0.0,0.0,0.0,0.0,1.0397,1.0181,1.0137,1.0137,1.0137,1.0213,1.027,1.027,1.027,1.027,1.027,1.027,1.027,1.027,1.027,1.027,1.027,1.027,1.027,1.027,1.027,1.027,1.027,1.027,1.0327,1.045,1.045,1.0507,1.0621,1.0669,1.0716,1.0716,1.0806,1.0486,0.9756,0.9316,0.9118,0.9069,0.8372,0.8024,0.7875,0.7673,0.7478,0.7329,0.6631,0.6631,0.6977,0.0,0.0,0.0,0.0,0.0,0.0,0.0,0.0,0.0,0.0,0.0,0.0,0.0,0.0,0.0,0.0,1.3977,1.4302,1.4991,1.5323,1.5703,1.6139,1.6212,1.6445,1.6914,1.7188,1.7414,1.767,1.8243,1.8596,1.8851,1.9152,1.8944,1.8313,1.7797,1.7432,1.7188,1.6861,1.6689,1.6689,1.6689,1.6689,1.6689,1.6689,1.6753,1.6873,1.6873,1.7318,1.795,1.795,1.8319,1.8781,1.8781,1.8781,0.0,0.0,0.0,0.0,0.0,0.0,0.0,0.0,0.0,0.0,0.0,0.0,0.0,0.0,1.1146,1.0679,1.0381,1.0164,0.9994,0.9994,0.9994,0.9994,0.9994,0.9994,0.9994,0.9994,0.9994,0.9994,0.9994,0.9994,0.9994,0.9994,0.9994,0.9994,0.9994,0.9994,0.9994,0.9994,0.9994,1.007,1.0232,1.0236,1.0312,1.0464,1.0516,1.0499,1.0545,1.0597,1.074,1.1042,1.0467,1.0271,1.0265,0.9665,0.927,0.9122,0.9122,0.8973,0.8726,0.8127,0.8252,0.8659,0.0,0.0,0.0,0.0,0.0,0.0,0.0,0.0,0.0,0.0,0.0,0.0,1.2325,1.315,1.3905,1.423,1.4453,1.4569,1.4641,1.5716,1.6173,1.5851,1.6848,0.0,1.7018,1.7761,1.8166,1.8154,1.8894,1.9244,1.9262,1.9301,1.9262,1.9183,1.8353,1.7505,1.6738,1.6697,1.6689,1.6689,1.6689,1.6689,1.6689,1.6689,1.6945,1.7254,1.7254,1.7691,1.8271,1.8271,1.8518,1.8781,1.8781,1.8781,0.0,0.0,0.0,0.0,0.0,0.0,0.0,0.0,0.0,0.0,0.0,0.0,0.0,0.0,1.1289,1.1278,1.1241,1.0554,0.9994,0.9994,0.9994,0.9994,0.9994,0.9994,0.9994,0.9994,0.9994,0.9994,0.9994,0.9994,0.9994,0.9994,0.9994,0.9994,0.9994,0.9994,0.9994,0.9994,0.9994,0.9999,1.0013,1.0013,1.0018,1.0028,1.0236,1.0336,1.0341,1.0531,1.063,1.0617,1.0773,1.0971,1.1145,1.1096,1.0605,0.992,0.992,0.9472,0.8775,0.8775,0.8623,0.8486,0.0,0.0,0.0,0.0,0.0,0.0,0.0,0.0,0.0,0.0,0.0,0.0,0.0,1.4013,1.4453,1.484,1.5427,1.5841,1.6046,1.673,1.7142,1.7271,1.7719,1.7999,1.8076,1.8617,1.8894,1.8894,1.9158,1.9301,1.9301,1.9301,1.9152,1.8882,1.8612,1.829,1.7959,1.7676,1.7546,0.0,0.0,0.0,0.0,0.0,1.6961,0.0,0.0,0.0,0.0,0.0,0.0,0.0,0.0,0.0,0.0,0.0,0.0,0.0,0.0,0.0,0.0,0.0,0.0,0.0,0.0,0.0,0.0,0.0,0.0,1.3021,1.3021,1.1832,1.0809,1.0809,1.0809,1.0809,1.0809,1.0809,1.0809,1.0809,1.0809,1.0722,1.0419,1.0381,1.0294,1.0038,0.9994,0.9994,0.9994,0.9994,0.9994,0.9994,0.9994,0.9994,0.9994,0.9994,0.9994,0.9994,1.0075,1.0113,1.0113,1.0184,1.0293,1.0431,1.0461,1.0612,1.0797,1.0797,1.0655,1.0371,1.0371,1.0224,0.9893,0.937,0.9471,0.9784,0.0,0.0,0.0,0.0,0.0,0.0,0.0,0.0,0.0,1.3658,0.0,0.0,0.0,0.0,1.5227,1.5777,1.6379,1.6822,1.6939,1.7439,1.785,1.8132,1.8398,1.8683,1.8907,1.9036,1.9164,1.9301,1.9164,1.9173,1.9301,1.9301,1.9152,1.8891,1.8891,1.8732,0.0,0.0,0.0,1.7797,0.0,0.0,1.7147,0.0,0.0,0.0,0.0,0.0,0.0,0.0,0.0,0.0,0.0,0.0,0.0,0.0,0.0,0.0,0.0,0.0,0.0,0.0,0.0,0.0,0.0,0.0,0.0,0.0,0.0,1.4216,1.4216,1.3239,1.2345,1.2003,1.196,1.1875,1.1666,1.1623,1.1537,1.1322,1.1284,1.1192,1.0852,1.0847,1.0722,1.0467,1.0294,1.0207,1.0207,1.0081,0.9994,0.9994,0.9994,0.9994,0.9994,0.9994,0.9994,0.9994,0.9994,0.9994,0.9994,0.9994,1.0075,1.0208,1.0208,1.0365,1.0621,1.0621,1.0621,1.0621,1.0621,1.0621,1.0528,1.0019,1.0117,1.043,0.0,0.0,0.0,0.0,0.0,0.0,0.0,0.0,1.5204,1.5204,0.0,0.0,0.0,0.0,0.0,1.696,1.7316,1.74,1.7087,1.7787,1.824,1.824,1.8904,1.9301,1.9301,1.8926,1.8955,1.9341,1.8955,1.8926,1.9341,1.9301,1.9301,1.9301,1.9301,1.8825,1.804,0.0,1.7797,1.7432,0.0,1.7147,1.6738,0.0,0.0,0.0,1.8237,1.8764,0.0,2.0028,0.0,0.0,0.0,0.0,0.0,0.0,0.0,0.0,0.0,0.0,0.0,0.0,0.0,0.0,0.0,0.0,0.0,0.0,0.0,1.4776,1.4776,1.4776,1.4475,1.3565,1.3353,1.3105,1.2479,1.2357,1.2137,1.1494,1.1408,1.1408,1.1365,1.1365,1.137,1.1365,1.0939,1.0636,1.0636,1.025,0.9994,0.9994,0.9994,0.9994,0.9994,0.9994,0.9994,0.9994,0.9994,0.9994,0.9994,0.9994,0.9994,0.9994,0.9994,1.0222,1.0602,1.0602,1.0602,1.0602,1.0602,1.0602,1.0602,1.0602,1.0478,1.0308,0.0,0.0,0.0,0.0,0.0,1.4939,1.4796,1.5026,1.5204,0.0,0.0,0.0,1.6246,1.6729,1.711,1.7355,1.7775,1.8062,1.8228,1.8689,1.8988,1.8988,1.9207,1.9301,1.9301,1.9623,1.9848,1.9971,1.9848,1.9857,1.9923,1.9499,1.9301,1.9301,1.9301,1.9183,1.8944,1.8944,0.0,1.829,1.7959,1.7757,0.0,0.0,0.0,0.0,0.0,1.9679,1.9974,0.0,2.0292,2.0292,0.0,0.0,0.0,0.0,0.0,0.0,1.8958,0.0,0.0,0.0,0.0,0.0,0.0,0.0,0.0,0.0,0.0,1.6154,1.6154,1.6154,1.6064,1.5801,1.4929,1.4265,1.4055,1.4055,1.3971,1.3795,1.3753,1.3626,1.3281,1.3239,1.3105,0.0,1.2174,1.1837,1.1837,1.0933,1.0294,0.9994,0.9994,0.9994,0.9994,0.9994,0.9994,0.9994,0.9994,0.9994,0.9994,0.9994,0.9994,0.9994,0.9994,1.0061,1.0165,1.0165,1.0165,1.0165,1.0165,1.0165,1.0165,1.0165,1.0132,1.0085,0.0,0.0,0.0,0.0,0.0,1.5771,1.539,1.565,1.5895,0.0,0.0,0.0,1.7388,1.7648,1.7902,1.8214,1.8494,1.8749,1.8944,1.9152,1.9301,1.9301,1.9301,1.9301,1.9301,1.9489,1.9645,1.9814,1.9898,2.0024,2.0196,1.9854,1.9696,1.9657,0.0,0.0,0.0,0.0,0.0,0.0,1.8411,0.0,0.0,1.8262,1.8532,0.0,0.0,0.0,2.0123,2.0458,2.0736,0.0,0.0,0.0,0.0,0.0,0.0,0.0,0.0,0.0,0.0,0.0,0.0,0.0,1.7392,1.7188,0.0,0.0,0.0,1.6689,1.6689,1.6689,1.6689,1.6689,1.6023,1.5443,1.5151,1.511,1.5026,1.4734,1.4692,1.4608,1.4307,1.4307,1.4174,1.3915,1.3324,1.282,1.2308,1.1666,1.0982,1.025,1.025,1.0164,0.9994,0.9994,0.9994,0.9994,0.9994,0.9994,0.9994,0.9994,0.9994,0.9994,0.9994,0.9994,0.9994,0.9994,0.9994,0.9994,0.9994,0.9994,0.9994,0.9994,0.9994,0.9994,0.0,0.0,1.6778,1.643,1.6649,1.6772,1.6431,1.6723,1.6971,0.0,1.7103,1.7488,1.824,1.8324,1.8575,1.9234,1.9301,1.9301,1.9301,1.9301,1.9341,1.9381,1.942,1.9411,1.9499,1.9225,1.9254,1.9608,1.9812,2.0052,2.0401,2.0362,2.0284,2.0167,0.0,0.0,0.0,0.0,0.0,1.878,1.8785,1.8714,0.0,0.0,1.8795,1.8884,1.9737,2.0008,2.0104,2.0837,2.1365,0.0,0.0,0.0,0.0,0.0,1.954,0.0,0.0,0.0,0.0,0.0,0.0,0.0,1.7595,1.7514,1.7351,0.0,0.0,1.6853,1.6853,1.6853,1.6853,1.6853,1.6812,1.6566,1.5899,1.5816,1.5609,1.4985,1.4901,1.4901,1.4901,1.4901,1.4901,1.4901,1.4468,1.3704,1.2565,1.2479,1.2009,1.0933,1.0847,1.0636,1.025,1.0164,1.0164,1.025,1.0164,1.0164,1.025,1.0168,1.0125,1.0125,1.0125,1.0125,1.0125,1.0125,1.0081,0.9994,0.9994,0.9994,0.9994,0.9994,0.9994,0.9994,0.0,1.6839,1.6869,1.6786,1.6839,1.6909,1.6859,1.7149,1.737,1.737,1.7952,1.855,1.9028,1.9113,1.914,1.9292,1.9301,1.9301,1.9301,1.9301,1.9539,2.001,2.001,2.0274,2.0818,2.1237,2.1476,2.1558,2.158,2.1666,2.1721,2.1242,2.0702,2.0196,2.0089,0.0,0.0,0.0,0.0,1.9179,1.9191,1.9165,1.9247,1.9883,2.033,2.0654,2.1157,2.1346,2.1364,2.1526,2.1642,2.1696,0.0,0.0,0.0,2.0494,0.0,0.0,0.0,0.0,0.0,0.0,0.0,0.0,1.8371,1.8161,1.7878,0.0,0.0,0.0,1.7757,1.7757,1.7757,1.7757,1.7473,1.7106,1.6566,1.6484,1.6443,1.6319,1.6319,1.6319,1.6319,1.6319,1.6319,1.6319,1.5733,1.4887,1.3747,1.3662,1.3408,1.2802,1.226,1.1923,1.1843,1.1327,1.1327,1.1837,1.1284,1.1322,1.1837,1.1278,1.1068,1.1068,1.1068,1.1068,1.1068,1.1068,1.0641,0.9994,0.9994,0.9994,0.9994,0.9994,0.9994,0.9994,1.7202,1.7367,1.7505,1.7514,1.7514,1.7503,1.7561,1.7861,1.8091,1.8091,1.8636,1.9081,1.9283,1.9301,1.9301,1.9301,1.9301,1.9301,1.9301,1.9569,1.9893,2.0206,2.0508,2.0857,2.1203,2.152,2.1634,2.1634,2.1949,2.2101,2.2111,2.1471,2.1011,2.0663,2.004,0.0,0.0,0.0,1.9421,1.9591,1.9598,0.0,1.9949,2.0553,2.0896,2.1085,2.1293,2.1365,2.141,2.1642,2.1696,0.0,2.1696,2.1403,2.1034,0.0,2.0204,1.9793,0.0,0.0,0.0,1.9262,0.0,0.0,0.0,1.8531,1.8282,1.804,1.8,1.8,1.8,0.0,1.8,1.8,1.7676,1.7392,1.7343,1.6976,1.6689,1.6689,1.6689,1.6689,1.6689,1.6689,1.6689,1.6689,1.6402,1.5816,1.4887,1.4845,1.4393,1.3448,1.3248,1.2965,1.2571,1.236,1.2467,1.2808,1.2467,1.2303,1.2314,1.2303,1.1918,1.1322,1.1666,1.1628,1.1284,1.1284,1.1025,1.0641,1.0641,1.0641,1.0641,1.0641,1.0511,1.0294,1.7948,1.8246,1.8434,1.8406,1.8378,1.8368,1.8339,1.8623,1.8825,1.8825,1.91,1.9301,1.9301,1.9301,1.9301,1.9301,1.942,1.942,1.9301,2.0001,2.0391,2.0391,2.1011,2.1433,2.1548,2.1624,2.1624,2.1548,2.209,2.2365,2.2252,2.1776,2.1471,2.1318,2.0196,0.0,0.0,0.0,0.0,1.9902,0.0,2.0347,2.0677,2.108,2.1165,2.1132,2.1132,2.1132,2.1177,2.1553,2.1696,2.1678,2.1595,2.1328,0.0,0.0,0.0,0.0,0.0,0.0,0.0,0.0,0.0,1.9222,0.0,0.0,0.0,0.0,0.0,0.0,0.0,0.0,0.0,0.0,0.0,0.0,0.0,1.7383,0.0,1.6935,1.6812,1.673,1.682,1.6738,1.6689,1.6689,1.6689,1.6443,1.5899,1.5899,1.533,1.4055,1.4166,1.3924,1.3261,1.3412,1.3555,1.3782,1.3613,1.336,1.2984,1.336,1.2978,1.1966,1.2394,1.2272,1.1757,1.1628,1.158,1.1542,1.137,1.1284,1.1284,1.1284,1.1068,1.0722,1.9542,1.9765,1.9697,1.9456,1.9439,1.9383,1.9187,1.9201,1.9237,1.9237,1.9274,1.9301,1.9301,1.9301,0.0,0.0,1.9775,1.9883,1.9341,2.043,2.1088,2.1088,2.1672,2.2252,2.2767,2.3139,2.315,2.2804,2.3224,2.3261,2.2889,2.2815,2.2515,2.1987,2.128,0.0,0.0,0.0,1.9847,0.0,2.0695,2.0998,0.0,2.1458,2.165,2.1642,2.1642,2.1642,2.1642,0.0,2.1696,2.1632,0.0,2.0906,2.0512,2.0076,0.0,0.0,0.0,0.0,0.0,0.0,1.9301,0.0,0.0,0.0,1.9222,1.9143,0.0,0.0,0.0,0.0,0.0,0.0,0.0,0.0,1.8126,1.7945,1.7838,1.7838,1.718,1.6861,1.727,1.6943,1.6689,1.6689,1.6689,1.6648,1.6607,1.6574,1.6368,1.5888,1.535,1.5028,1.4951,1.4381,1.4536,1.5436,1.481,1.481,1.5311,1.4768,1.4475,1.4265,1.3773,1.3519,1.3392,1.279,1.2534,1.2448,1.1628,1.1284,1.1284,1.1284,1.1284,1.1235,1.9362,1.9703,0.0,1.9976,1.9966,1.9908,1.9825,1.9814,1.9696,1.9341,1.9618,1.9687,0.0,0.0,0.0,0.0,0.0,2.0089,0.0,0.0,2.1711,2.1711,2.2279,2.274,2.3001,2.315,2.315,2.3001,2.315,2.315,2.3001,2.2628,2.2327,2.2063,2.1471,0.0,2.0531,0.0,2.0512,0.0,0.0,0.0,0.0,2.1623,2.1696,2.1696,2.1696,2.1696,2.1696,0.0,2.1696,0.0,0.0,0.0,0.0,0.0,0.0,0.0,0.0,0.0,0.0,0.0,0.0,0.0,1.9301,0.0,1.9301,0.0,0.0,0.0,0.0,0.0,0.0,0.0,1.8854,0.0,0.0,0.0,1.8,0.0,0.0,0.0,1.7392,1.6984,1.6689,1.6689,1.6689,1.6689,1.6689,1.6499,1.6261,1.5912,1.5623,1.5413,1.5188,1.533,1.5549,1.5977,1.589,1.5816,1.5692,1.5816,1.5443,1.4692,1.4817,1.465,1.4272,1.3977,1.3844,1.3802,1.3415,1.3039,1.2699,1.2699,1.2528,1.2229,1.9611,0.0,0.0,0.0,2.0712,2.0595,2.0245,2.0362,2.0196,1.942,1.9814,0.0,1.9381,1.9301,0.0,0.0,1.9844,2.0206,0.0,0.0,2.2101,0.0,0.0,0.0,2.3001,2.3113,2.315,2.315,2.3261,2.3335,2.3335,2.2777,2.2515,2.2478,0.0,2.1439,2.1081,0.0,2.1146,2.1117,2.1236,2.1421,2.1696,2.1696,2.1696,2.1696,2.1696,2.1696,2.1696,2.1696,2.1614,2.1493,2.108,2.0677,2.0283,0.0,0.0,0.0,1.9301,0.0,0.0,0.0,0.0,0.0,0.0,0.0,0.0,0.0,0.0,0.0,0.0,0.0,0.0,0.0,0.0,1.9006,0.0,1.8912,0.0,0.0,0.0,0.0,0.0,1.727,1.7017,1.6894,1.6902,1.6861,1.6697,1.6397,1.6039,1.5728,1.5624,1.5465,1.5189,1.5674,1.6023,1.6206,1.6468,1.6349,1.5982,1.6484,1.6147,1.5276,1.5567,1.5401,1.4943,1.4776,1.4692,1.4734,1.4901,1.4692,1.4237,1.4026,1.3766,1.3385,2.1145,2.1624,0.0,0.0,0.0,2.1634,2.0401,2.0741,2.0741,0.0,0.0,0.0,0.0,0.0,0.0,0.0,0.0,2.0206,2.0206,0.0,2.2101,0.0,0.0,2.3001,0.0,2.3372,2.3593,2.3593,2.397,2.4164,2.4152,2.374,2.3556,2.3542,2.3003,2.2371,2.179,2.2048,2.1726,2.1145,2.1504,2.1678,2.1696,0.0,2.1696,2.1696,2.1696,2.1696,2.1696,2.1696,2.1421,2.1062,2.0668,2.0223,0.0,0.0,0.0,0.0,0.0,1.9301,0.0,1.9301,0.0,0.0,0.0,0.0,1.9301,0.0,0.0,0.0,0.0,0.0,0.0,0.0,0.0,0.0,0.0,0.0,0.0,0.0,0.0,0.0,0.0,1.7959,1.7797,0.0,1.7392,1.7188,1.673,1.6397,1.6039,1.5728,1.5409,1.5197,1.5189,1.5205,1.5547,1.6206,1.6222,1.6364,1.6648,1.6689,1.6697,1.6607,1.5982,1.5692,1.5609,1.4985,1.4692,1.4776,1.5401,1.565,1.5567,1.4901,1.465,1.465,0.0,0.0,0.0,0.0,0.0,0.0,0.0,2.1049,0.0,0.0,2.0079,0.0,0.0,1.9301,1.9301,0.0,0.0,2.0857,2.0857,2.2004,0.0,0.0,0.0,2.3001,0.0,0.0,0.0,2.3187,2.3335,2.3409,2.3409,2.3261,2.3363,2.3644,2.3492,2.3356,0.0,0.0,0.0,0.0,0.0,2.2818,2.2353,0.0,2.1696,2.1696,2.1696,2.1998,2.2359,2.2076,2.2188,2.2227,2.1056,2.0621,2.0351,1.954,1.9301,1.9301,1.9301,1.9301,1.9301,1.9301,1.9301,1.9301,1.9301,0.0,0.0,0.0,0.0,0.0,0.0,0.0,0.0,0.0,0.0,0.0,0.0,0.0,0.0,0.0,0.0,0.0,0.0,0.0,0.0,1.7392,1.7106,1.6757,1.6397,1.6047,1.5705,1.5364,1.5006,1.4787,1.4787,1.5062,1.53,1.5539,1.5991,1.6269,1.6389,1.6586,1.6689,1.6697,1.6443,1.636,1.636,1.6105,1.6023,1.6064,1.6278,1.636,1.6278,1.5609,1.536,1.5318,2.2927,0.0,0.0,0.0,0.0,0.0,0.0,0.0,0.0,0.0,2.0547,0.0,2.0001,0.0,1.9726,0.0,2.0731,2.128,2.152,2.2241,0.0,2.3001,2.3001,0.0,0.0,0.0,0.0,0.0,0.0,2.3298,2.342,2.3438,2.3616,2.3935,0.0,2.4164,2.4106,2.4315,2.4177,0.0,0.0,2.3551,0.0,0.0,2.2001,2.1731,2.2008,2.2407,2.278,2.2508,2.2636,2.267,2.1537,2.1044,2.0819,2.0156,1.9805,1.9618,1.9618,1.946,1.9301,1.9301,1.9301,1.9301,1.9301,1.9301,1.9341,0.0,0.0,0.0,0.0,0.0,0.0,0.0,0.0,0.0,0.0,2.1433,0.0,0.0,0.0,0.0,0.0,0.0,1.8416,1.7676,1.7413,1.699,1.6254,1.5761,1.5404,1.5197,1.4795,1.4605,1.4605,1.4871,1.5062,1.5197,1.5753,1.6079,1.6222,1.6531,1.6689,1.6689,1.6689,1.6689,1.6689,1.6689,1.6689,1.6689,1.6689,1.6689,1.6648,1.6188,1.6072,1.5948,2.3001,0.0,0.0,0.0,2.3001,0.0,0.0,0.0,2.2542,0.0,2.1203,2.1203,2.1203,2.0624,2.0508,2.1126,2.1242,2.1482,2.2063,2.2138,0.0,0.0,2.3001,2.3001,2.3001,0.0,0.0,0.0,0.0,2.3799,2.421,2.4232,2.4301,2.4379,2.4959,0.0,2.4241,2.4746,2.4531,2.3856,2.3856,2.3836,2.3733,2.3287,2.2543,2.1854,2.2517,2.278,2.2843,2.3003,2.2856,2.2453,2.1949,2.1556,2.1242,2.1203,2.0741,2.0245,2.0245,1.9844,1.9381,1.9381,1.9381,1.9381,1.9381,1.9381,1.9539,2.0089,0.0,0.0,0.0,0.0,2.1242,0.0,0.0,0.0,0.0,0.0,0.0,0.0,0.0,0.0,0.0,0.0,2.0265,1.8233,1.8236,1.7726,1.6301,1.5585,1.5218,1.5194,1.4824,1.4605,1.4605,1.4605,1.4779,1.5165,1.5515,1.5856,1.619,1.6523,1.6689,1.6689,1.6689,1.6689,1.6689,1.6689,1.6689,1.6689,1.6689,1.6689,1.6689,1.6689,1.6689,1.6607,2.3001,2.3001,2.3001,0.0,2.3001,2.2964,0.0,0.0,0.0,0.0,2.1482,2.1203,2.1203,2.1049,2.1011,2.1165,2.1596,0.0,0.0,0.0,0.0,2.3001,2.3001,2.3001,2.3001,2.3001,0.0,2.315,0.0,0.0,2.4329,2.4011,2.4415,2.543,0.0,0.0,2.546,2.5579,2.5344,2.4844,2.4844,2.4291,2.3484,2.337,2.2858,2.2261,2.2429,2.2803,2.3186,2.2886,2.3056,2.3229,2.2311,2.1967,2.1787,2.1318,2.1088,2.0934,2.0934,2.0818,2.0692,2.0692,2.0692,2.0692,2.0692,2.0692,2.0615,2.0284,2.0934,2.152,2.1242,2.1558,2.1873,0.0,0.0,0.0,0.0,0.0,0.0,2.2777,0.0,0.0,0.0,2.0382,1.9795,1.9213,1.8245,1.7368,1.6766,1.5968,1.545,1.5209,1.4796,1.4605,1.4605,1.4605,1.4653,1.4748,1.5388,1.5768,1.5833,1.6412,1.6689,1.6689,1.6689,1.6689,1.6689,1.6689,1.6689,1.6689,1.6689,1.6689,1.6689,1.6689,1.6689,1.6697,2.3001,0.0,0.0,2.3001,0.0,0.0,2.3001,2.2703,0.0,2.2478,2.1738,0.0,2.1928,2.151,2.1395,2.1928,2.2279,0.0,2.2478,0.0,0.0,2.3001,2.3001,2.3001,2.3001,2.3001,0.0,2.3001,0.0,0.0,2.4056,2.4046,2.442,2.5122,0.0,2.5142,2.5579,2.5579,2.5426,2.5215,2.5215,2.4797,0.0,2.4185,2.3826,2.3293,2.3045,2.3137,2.3362,2.3214,2.3376,2.3569,2.274,2.2478,2.244,2.208,2.1814,2.1596,2.1596,2.1395,2.1203,2.1203,2.1203,2.1203,2.1203,2.1203,2.1165,2.1049,2.1596,2.2101,2.2004,2.2279,2.2478,0.0,0.0,0.0,0.0,0.0,0.0,0.0,2.3001,0.0,2.2042,2.1193,2.042,1.9725,1.8785,1.7975,1.7375,1.6784,1.6253,1.5842,1.5436,1.5188,1.5133,1.4776,1.4677,1.4856,1.5271,1.5577,1.5736,1.6246,1.6547,1.6689,1.6689,1.6689,1.6689,1.6689,1.6689,1.6689,1.6689,1.6689,1.6689,1.6689,1.6689,1.6689,2.3001,0.0,0.0,0.0,0.0,0.0,0.0,2.3045,0.0,2.3001,0.0,2.1852,2.2889,2.2042,2.1852,2.2927,0.0,2.3001,2.3001,2.3001,2.3001,2.3001,2.3001,2.3001,2.3001,2.3001,2.3001,0.0,0.0,0.0,2.3716,2.4178,2.4387,0.0,0.0,0.0,0.0,2.5259,2.5237,2.5128,2.5182,2.5171,2.5117,2.5051,2.4738,2.4323,2.382,2.3509,2.3353,2.3535,2.3596,2.3558,2.3132,2.3001,2.3001,2.3001,2.2628,2.2214,2.2214,2.1825,2.1433,2.1433,2.1433,2.1433,2.1433,2.1433,2.1548,2.2025,2.2138,2.2365,2.2815,2.2964,2.3001,0.0,0.0,0.0,0.0,0.0,0.0,0.0,0.0,0.0,2.2914,2.2344,2.1453,2.011,1.9544,1.8922,1.8083,1.77,1.7276,1.6811,1.6402,1.6088,1.5903,1.5161,1.4919,1.5204,1.519,1.5401,1.5728,1.6039,1.6397,1.6689,1.6689,1.6689,1.6689,1.6689,1.6689,1.6689,1.6689,1.6689,1.6689,1.6689,1.6689,1.6689,2.3001,0.0,0.0,0.0,0.0,2.3564,2.3564,2.3263,2.3001,2.3001,2.2804,2.2767,2.2964,2.2815,2.2767,2.2964,2.3001,0.0,0.0,0.0,0.0,2.3001,2.3001,2.3001,2.3001,2.3001,2.3001,0.0,0.0,2.3511,2.4247,2.3968,2.4222,0.0,0.0,0.0,2.4661,2.5437,0.0,2.4639,2.5022,2.4986,2.4563,2.4137,2.3891,2.376,2.3307,2.3101,2.3091,2.3117,2.3121,2.311,2.3023,2.3001,2.3001,2.3001,2.2927,2.2852,2.2852,2.2777,2.2692,2.2692,2.2692,2.2692,2.2692,2.2692,2.258,2.2176,2.2515,2.274,2.2327,2.2665,2.3001,2.3001,0.0,0.0,0.0,0.0,0.0,0.0,0.0,2.2848,0.0,2.1865,2.1418,2.114,1.99,1.9053,1.8914,1.8272,1.7867,1.7765,1.737,1.6932,1.6464,1.5983,1.5569,1.5204,1.519,1.5401,1.5728,1.6039,1.6397,1.6689,1.6689,1.6689,1.6689,1.6689,1.6689,1.6689,1.6689,1.6689,1.6689,1.6689,1.6689,1.6689,0.0,0.0,0.0,0.0,0.0,0.0,2.4126,2.3919,2.3591,2.3067,2.2945,2.302,2.3335,2.3285,2.3397,2.3738,2.3777,2.3777,2.3777,2.3777,2.3777,2.3777,2.3514,2.3372,2.3372,2.3132,2.3001,2.3001,0.0,2.3599,2.4,2.3803,2.3902,2.4321,0.0,2.4246,0.0,0.0,2.5043,2.4847,2.4825,2.4683,2.4465,2.4213,2.3962,2.3662,2.3422,2.322,2.3001,2.3001,2.3001,2.3001,2.3001,2.3001,2.3001,2.3001,2.3001,2.3001,2.3001,2.3001,2.3001,2.3001,2.3001,2.3001,2.3001,2.3001,2.2927,2.2628,2.2815,2.2927,2.2628,2.2815,2.3001,2.3001,2.3001,0.0,0.0,0.0,0.0,0.0,0.0,0.0,0.0,0.0,0.0,0.0,0.0,0.0,1.9619,1.9289,1.8944,1.8667,1.8321,1.7823,1.7192,1.6585,1.6035,1.5524,1.5475,1.5536,1.5728,1.6039,1.6397,1.6689,1.6689,1.6689,1.6689,1.6689,1.6689,1.6689,1.6689,1.6689,1.6689,1.6689,1.6689,1.6689,0.0,2.4563,0.0,0.0,2.4628,2.4628,2.4628,2.4552,2.4203,2.3416,2.3251,2.3321,2.3808,2.3781,2.3926,2.4447,2.4486,2.4486,2.4486,2.4486,2.4486,2.4486,2.4104,2.3886,2.3886,2.3514,2.3318,0.0,0.0,2.3836,2.3761,2.3813,2.3791,0.0,0.0,2.4182,2.4497,2.4596,2.4792,2.504,2.4628,2.4486,2.4476,2.4366,2.4082,2.3684,2.3575,2.3329,2.3001,2.3001,2.3001,2.3001,2.3001,2.3001,2.3001,2.3001,2.3001,2.3001,2.3001,2.3001,2.3001,2.3001,2.3001,2.3001,2.3001,2.3001,2.3001,2.3001,2.3001,2.3001,2.3001,2.3001,2.3001,2.3001,2.3001,2.3001,0.0,0.0,0.0,0.0,0.0,0.0,2.2204,2.1723,2.1232,2.0774,0.0,0.0,2.0096,2.0118,1.99,1.9474,1.921,1.8744,1.8037,1.7389,1.6733,1.6079,1.6039,1.5939,1.5843,1.6204,1.6477,1.6689,1.6689,1.6689,1.6689,1.6689,1.6689,1.6689,1.6689,1.6689,1.6689,1.6689,1.6689,1.6689,0.0,0.0,0.0,0.0,0.0,2.515,2.515,2.476,2.4454,2.4355,2.4349,2.4371,2.4421,2.4414,2.4447,2.4486,2.4486,2.4486,2.4486,2.4486,2.4486,2.4486,2.4443,2.4421,2.4421,2.4377,2.4344,0.0,0.0,2.4354,2.4238,2.4245,2.4245,2.4261,2.4692,2.4753,2.4519,2.4934,2.4891,2.4552,2.4508,2.4486,2.4443,2.3973,2.3727,2.3629,2.323,2.3045,2.3001,2.3001,2.3001,2.3001,2.3001,2.3001,2.3001,2.3001,2.3001,2.3001,2.3001,2.3001,2.3001,2.3001,2.3001,2.3001,2.3001,2.3001,2.3001,2.3001,2.3001,2.3001,2.3001,2.3001,2.3001,2.3001,2.3001,2.3001,2.3001,0.0,2.3001,2.3001,0.0,0.0,2.1701,2.1255,2.0763,2.0216,2.0118,2.0096,2.0085,2.0118,2.0074,2.0042,1.9976,1.9693,1.9166,1.8767,1.8051,1.6975,1.7026,1.6783,1.625,1.6643,1.6805,1.6689,1.6689,1.6689,1.6689,1.6689,1.6689,1.6689,1.6689,1.6689,1.6689,1.6689,1.6689,1.6689,2.5338,2.548,2.5611,2.5611,2.5611,2.5611,2.5611,2.5448,2.5338,2.5338,2.5087,2.4942,2.4942,2.5164,2.5338,2.5338,2.5338,2.5338,2.5338,2.5338,2.5338,2.5338,2.5054,2.4942,2.4942,2.4628,2.4486,0.0,0.0,2.4467,2.4426,2.4426,2.4426,2.4415,2.4293,2.4337,2.4486,2.4355,2.4377,2.4465,2.4159,2.4039,2.3984,2.3482,2.3296,2.3263,2.3078,2.3001,2.3001,2.3001,2.3001,2.3001,2.3001,2.3001,2.3001,2.3001,2.3001,2.3001,2.3001,2.3001,2.3001,2.3001,2.3001,2.3001,2.3001,2.3001,2.3001,2.3001,2.3001,2.3001,2.3001,2.3001,2.3001,2.3001,2.3001,2.3001,2.3001,0.0,0.0,2.3001,0.0,0.0,0.0,2.1179,2.0697,2.0151,0.0,2.0118,2.0118,2.0118,2.0118,2.0118,2.0118,1.9835,1.9309,1.9166,1.86,1.7628,1.7774,1.7594,1.7145,1.7409,1.7533,1.7465,1.7465,1.7465,1.7465,1.7229,1.7106,1.7106,1.6812,1.6689,1.6689,1.6689,1.6689,1.6689,2.5895,2.5895,2.5895,2.5895,2.5895,2.5895,2.5895,2.5895,2.5895,2.5895,2.56,2.5423,2.5423,2.5699,2.5895,2.5895,2.5895,2.5895,2.5895,2.5895,2.5895,2.5895,2.5568,0.0,2.5423,2.5065,2.4902,2.4902,2.4902,2.4916,2.4882,2.4703,2.4687,2.4808,2.4145,2.4161,2.459,2.4095,2.4084,2.442,2.4028,2.3856,2.3785,2.3356,2.3187,2.3187,2.3187,2.3187,2.3187,2.3187,2.3261,2.3298,2.3075,2.3001,2.3001,2.3001,2.3001,2.3001,2.3001,2.3001,2.3001,2.3001,2.3001,2.3001,2.3001,2.3001,2.3001,2.3001,2.3075,2.3187,2.3187,2.3261,2.3335,2.3335,2.3261,2.3224,2.3335,2.3261,0.0,2.3187,2.2647,2.2081,2.166,2.1013,2.0511,2.014,2.0118,2.0118,2.0118,2.0118,2.0118,2.0118,2.0118,1.99,1.9551,1.9551,1.9216,1.8574,1.8861,1.8766,1.834,1.8503,1.8545,1.8545,1.8545,1.8545,1.8505,1.8063,1.787,1.7821,1.7302,1.7098,1.7098,1.7098,1.7098,1.7098,2.5895,2.5895,2.5895,2.5895,2.5895,2.5895,2.5895,2.5895,2.5895,2.5895,2.5895,2.5895,2.5895,2.5895,2.5895,2.5895,2.5895,2.5895,2.5895,2.5895,2.5895,2.5895,2.5895,2.5895,2.5895,2.5884,2.5884,2.5884,0.0,2.5851,2.5759,2.5176,2.515,2.5542,2.4671,2.4563,2.4977,2.4507,2.4317,2.431,2.4223,2.42,2.4164,2.3751,2.3593,2.3593,2.3593,2.3593,2.3593,2.3593,2.3861,2.4043,2.3261,2.3001,2.3001,2.3001,2.3001,2.3001,2.3001,2.3001,2.3001,2.3001,2.3001,2.3001,2.3001,2.3001,2.3001,2.3001,2.3335,2.3593,2.3593,2.3934,2.42,2.42,2.3861,2.3751,2.4127,2.3824,0.0,2.3593,2.2788,2.2055,2.1627,2.0685,2.0118,2.0118,2.0118,2.0118,2.0118,2.0118,2.0118,2.0118,2.0118,2.0118,2.0074,2.0074,2.0038,1.9968,2.0439,2.0385,1.9873,1.9898,1.9904,1.9904,1.9904,1.9904,1.9825,1.9234,1.8997,1.8917,1.8264,1.8,1.8,1.8,1.8,1.8,2.5895,2.5895,2.5895,2.5895,2.5895,2.5895,2.5895,2.5895,2.5895,2.5895,2.5895,2.5895,2.5895,2.5895,2.5895,2.5895,2.5895,2.5895,2.5895,2.5895,2.5895,2.5895,2.5895,2.5895,2.5895,2.5895,2.6021,2.629,2.629,2.6281,2.6189,2.5634,2.5444,2.5581,2.4964,2.4778,2.4892,2.4414,2.4209,2.4235,2.4221,2.42,2.42,2.4043,2.4007,2.4007,2.4007,2.4007,2.4007,2.4007,2.408,2.4164,2.3897,2.3641,2.3409,2.3409,2.3224,2.3001,2.3001,2.3001,2.3001,2.3001,2.3001,2.3001,2.3001,2.3001,2.3075,2.3335,2.3519,2.3593,2.3593,2.3934,2.4116,2.3824,2.3897,2.4043,2.4189,2.408,2.3881,2.3504,2.2924,2.2343,2.1834,2.0973,2.0453,2.0453,2.0237,2.0118,2.0118,2.0118,2.0118,2.0118,2.0118,2.0118,2.0118,2.0467,2.063,2.0624,2.0988,2.105,2.0801,2.0787,2.0808,2.0808,2.0808,2.0808,2.0769,2.0236,1.9777,1.9362,1.8886,1.8385,1.8,1.8,1.8,1.8,2.5895,2.5895,2.5895,2.5895,2.5895,2.5895,2.5895,2.5895,2.5895,2.5895,2.5895,2.5895,2.5895,2.5895,2.5895,2.5895,2.5895,2.5979,2.6135,2.6135,2.6218,2.6385,2.6385,2.6385,2.6385,2.6385,2.6498,2.6764,2.6542,2.6324,2.6101,2.5585,2.5432,2.5535,2.4903,2.4722,2.4858,2.4545,2.4418,2.4454,2.455,2.4611,2.4622,2.449,2.4418,2.4418,2.4418,2.4418,2.4418,2.4418,2.4526,2.4575,2.4454,2.4261,2.397,2.3677,2.3409,2.3187,2.3038,2.3113,2.3187,2.3038,2.3113,2.3224,2.3224,2.3224,2.3261,2.3335,2.3482,2.3593,2.3593,2.3934,2.4164,2.408,2.4116,2.4298,2.4575,2.4514,2.4232,2.3699,2.319,2.2613,2.1973,2.1263,2.0764,2.0603,2.0421,2.0237,2.0107,2.0118,2.0118,2.0118,2.0118,2.0205,2.0413,2.0741,2.108,2.1417,2.1822,2.1956,2.189,2.189,2.189,2.189,2.189,2.189,2.1852,2.1336,2.0875,2.0459,1.9756,1.9173,1.8785,1.8585,1.8474,1.8474,2.5979,2.5979,2.5979,2.5979,2.5979,2.5979,2.5937,2.5937,2.5937,2.5895,2.5895,2.5895,2.5895,2.5895,2.5895,2.5895,2.5937,2.6093,2.6487,2.6528,2.6734,2.7185,2.7185,2.7185,2.7185,2.7185,2.7214,2.7168,2.6662,2.6157,2.5612,2.5133,2.5127,2.5448,2.4651,2.449,2.4825,2.4825,2.4825,2.4861,2.5182,2.5312,2.5276,2.4957,2.4825,2.4825,2.4825,2.4825,2.4825,2.4825,2.5052,2.5241,2.4921,2.4825,2.4646,2.3861,2.3629,2.3556,2.315,2.3335,2.3556,2.3187,2.3372,2.3629,2.3629,2.3629,2.3519,2.3187,2.3409,2.3666,2.3666,2.4007,2.4381,2.4754,2.449,2.4514,2.5206,2.5016,2.4614,2.406,2.3531,2.2891,2.2026,2.1509,2.1094,2.07,2.0635,2.0518,2.0172,2.014,2.0107,2.0118,2.0151,2.0413,2.0894,2.096,2.1439,2.2331,2.2794,2.3001,2.3001,2.3001,2.3001,2.3001,2.3001,2.3001,2.2964,2.2402,2.2138,2.1987,2.0789,2.0323,2.0206,1.9657,1.942,1.9381,2.6899,2.6899,2.6899,2.6899,2.6899,2.6775,2.6415,2.6373,2.6249,2.5937,2.5895,2.5895,2.5895,2.5895,2.5895,2.5895,2.6177,2.6404,2.6487,2.6857,2.7092,2.7185,2.7185,2.7185,2.7185,2.7185,2.7152,2.7128,2.6895,2.6526,2.5979,2.5456,2.5242,2.535,2.5123,2.5099,2.5182,2.5182,2.5182,2.5182,2.5276,2.5312,2.5276,2.5218,2.5182,2.5182,2.5182,2.5182,2.5182,2.5182,2.5241,2.5276,2.5218,2.5016,2.4682,2.42,2.4043,2.397,2.3556,2.3751,2.4043,2.3934,2.397,2.4043,2.4043,2.4043,2.4116,2.4345,2.4454,2.4538,2.4538,2.4802,2.4969,2.4825,2.4945,2.5099,2.5276,2.5241,2.4835,2.3948,2.3745,2.3269,2.2242,2.1808,2.1526,2.1463,2.119,2.1031,2.0935,2.0646,2.0356,2.0107,2.05,2.0774,2.0894,2.1603,2.2258,2.2848,2.2947,2.3001,2.3001,2.3001,2.3001,2.3001,2.3001,2.3001,2.3001,2.2852,2.2515,2.2063,2.1759,2.1367,2.0934,2.0818,2.043,2.004,2.7185,2.7185,2.7185,2.7185,2.7185,2.7062,2.6569,2.6487,2.6373,2.5937,2.5895,2.5895,2.5895,2.5895,2.5895,2.5895,2.6093,2.629,2.6487,2.6734,2.6981,2.7185,2.7185,2.7307,2.7534,2.7534,2.7479,2.7355,2.7074,2.6647,2.6093,2.5552,2.5312,2.5312,2.5312,2.5312,2.5312,2.5312,2.5312,2.5312,2.5312,2.5312,2.5312,2.5312,2.5312,2.5312,2.5312,2.5312,2.5312,2.5312,2.5312,2.5312,2.5312,2.5182,2.4945,2.4562,2.4454,2.4381,2.397,2.4164,2.4454,2.4454,2.4454,2.4454,2.4454,2.4454,2.449,2.4538,2.4538,2.4538,2.4538,2.4658,2.4802,2.479,2.4957,2.5111,2.5276,2.5312,2.4927,2.3926,2.3806,2.3384,2.2294,2.203,2.1851,2.1714,2.1759,2.1654,2.132,2.1306,2.113,2.072,2.083,2.1113,2.1527,2.2258,2.2761,2.3001,2.3001,2.3001,2.3001,2.3001,2.3001,2.3001,2.3001,2.3001,2.3001,2.3001,2.2815,2.2478,2.2214,2.1911,2.1596,2.1318,2.0972,2.0702,2.7389,2.7389,2.7389,2.7389,2.7389,2.7226,2.6775,2.6693,2.658,2.6146,2.6104,2.6063,2.6021,2.5979,2.5979,2.5906,2.5979,2.6135,2.6487,2.6569,2.6775,2.7185,2.7185,2.74,2.7893,2.7962,2.7913,2.7678,2.7234,2.6681,2.6093,2.5636,2.5384,2.5312,2.5312,2.5312,2.5312,2.5312,2.5312,2.5312,2.5312,2.5312,2.5312,2.5312,2.5312,2.5312,2.5312,2.5312,2.5312,2.5312,2.5312,2.5312,2.5312,2.5312,2.5241,2.4957,2.4897,2.479,2.4418,2.4562,2.4897,2.4897,2.4897,2.4897,2.4897,2.4897,2.4778,2.4442,2.437,2.437,2.437,2.437,2.4478,2.4814,2.4897,2.4957,2.5276,2.5312,2.4927,2.3926,2.3866,2.3505,2.2414,2.2378,2.232,2.2056,2.245,2.2383,2.1721,2.206,2.2059,2.161,2.1294,2.1551,2.2411,2.2805,2.3001,2.3001,2.3001,2.3001,2.3001,2.3001,2.3001,2.3001,2.3001,2.3001,2.3001,2.3001,2.3001,2.2964,2.244,2.2252,2.2176,2.1662,2.1395,2.1357,2.8299,2.8299,2.8299,2.8299,2.8299,2.8139,2.776,2.7679,2.7505,2.7074,2.6981,2.6857,2.6445,2.6415,2.6249,2.5937,2.6207,2.6445,2.6487,2.6846,2.7133,2.7185,2.7185,2.74,2.7893,2.8231,2.8167,2.7678,2.7606,2.7091,2.6093,2.6009,2.5733,2.5312,2.5312,2.5312,2.5312,2.5312,2.5312,2.5312,2.5312,2.5312,2.5312,2.5312,2.5312,2.5312,2.5312,2.5312,2.5312,2.5312,2.5312,2.5312,2.5312,2.5312,2.5276,2.5241,2.5206,2.5147,2.4814,2.4945,2.5206,2.5206,2.5206,2.5206,2.5206,2.5206,2.5206,2.5135,2.5135,2.5135,2.5135,2.5135,2.5135,2.5206,2.5206,2.5241,2.5276,2.5312,2.4927,2.3926,2.4145,2.4001,2.2955,2.33,2.352,2.3487,2.3559,2.3409,2.2951,2.2729,2.2593,2.2594,2.2262,2.2346,2.2892,2.2968,2.3001,2.3001,2.3001,2.3001,2.3001,2.3001,2.3001,2.3001,2.3001,2.3001,2.3001,2.3001,2.3001,2.3001,2.2889,2.2852,2.2852,2.2767,2.2402,2.2025,2.851,2.851,2.851,2.851,2.851,2.8351,2.7962,2.7893,2.7708,2.7267,2.7185,2.7103,2.6887,2.6899,2.6816,2.6622,2.6775,2.6899,2.6899,2.7062,2.7185,2.7185,2.7185,2.74,2.7893,2.8271,2.839,2.815,2.7822,2.7464,2.6959,2.637,2.5961,2.5721,2.5432,2.5312,2.5312,2.5312,2.5312,2.5312,2.5312,2.5312,2.5312,2.5312,2.5312,2.5312,2.5312,2.5312,2.5312,2.5312,2.5312,2.5312,2.5312,2.5312,2.5312,2.5312,2.5312,2.5276,2.5111,2.5182,2.5312,2.5312,2.5312,2.5312,2.5312,2.5312,2.5312,2.5312,2.5312,2.5312,2.5312,2.5312,2.5312,2.5312,2.5312,2.5312,2.5312,2.5312,2.5023,2.4266,2.4374,2.423,2.3505,2.3661,2.3806,2.3806,2.4013,2.4,2.3648,2.3769,2.3639,2.3245,2.2867,2.2783,2.3001,2.3001,2.3001,2.3001,2.3001,2.3001,2.3001,2.3001,2.3001,2.3001,2.3001,2.3001,2.3001,2.3001,2.3001,2.3001,2.3001,2.3001,2.3001,2.3001,2.2815,2.2628,2.851,2.851,2.851,2.851,2.851,2.8391,2.8082,2.8042,2.7909,2.7551,2.751,2.747,2.736,2.736,2.7307,2.7226,2.7307,2.736,2.736,2.7429,2.7429,2.7226,2.7307,2.7534,2.7881,2.8271,2.851,2.851,2.8102,2.7798,2.7666,2.6863,2.6334,2.6081,2.5673,2.5432,2.5312,2.5312,2.5312,2.5312,2.5312,2.5312,2.5312,2.5312,2.5312,2.5312,2.5312,2.5312,2.5312,2.5312,2.5312,2.5312,2.5453,2.5418,2.5347,2.5488,2.5418,2.5312,2.5312,2.5312,2.5312,2.5312,2.5312,2.5312,2.5312,2.5312,2.5312,2.5312,2.5312,2.5312,2.5312,2.5312,2.5312,2.5312,2.5312,2.5312,2.5312,2.5312,2.5107,2.4544,2.4592,2.4506,2.3989,2.4083,2.4155,2.4155,2.4482,2.4538,2.4202,2.4566,2.4454,2.3751,2.3261,2.3001,2.3001,2.3001,2.3001,2.3001,2.3001,2.3001,2.3001,2.3001,2.3001,2.3001,2.3001,2.3001,2.3001,2.3001,2.3001,2.3001,2.3001,2.3001,2.3001,2.3001,2.3001,2.3001,2.851,2.851,2.851,2.851,2.851,2.8471,2.8471,2.8471,2.8431,2.8431,2.8391,2.8271,2.7881,2.7841,2.7667,2.7226,2.7615,2.7841,2.7841,2.8191,2.8059,2.7226,2.7626,2.7841,2.7893,2.8271,2.851,2.851,2.8474,2.821,2.7678,2.7633,2.7067,2.6093,2.6057,2.5769,2.5312,2.5312,2.5312,2.5312,2.5312,2.5312,2.5312,2.5312,2.5312,2.5312,2.5312,2.5312,2.5312,2.5312,2.5312,2.5418,2.5943,2.5734,2.5418,2.5978,2.5734,2.5312,2.5312,2.5312,2.5312,2.5312,2.5312,2.5312,2.5312,2.5312,2.5312,2.5312,2.5312,2.5312,2.5312,2.5312,2.5312,2.5312,2.5312,2.5312,2.5312,2.5312,2.5107,2.4544,2.4951,2.5035,2.4518,2.4915,2.5192,2.5192,2.5228,2.5087,2.4767,2.4778,2.461,2.4164,2.3409,2.3001,2.3001,2.3001,2.3001,2.3001,2.3001,2.3001,2.3001,2.3001,2.3001,2.3001,2.3001,2.3001,2.3001,2.3001,2.3001,2.3001,2.3001,2.3001,2.3001,2.3001,2.3001,2.3001,2.851,2.851,2.851,2.851,2.851,2.851,2.851,2.851,2.851,2.851,2.851,2.8431,2.8283,2.8271,2.8191,2.8007,2.8191,2.8271,2.8271,2.8431,2.8339,2.8007,2.8191,2.8271,2.8271,2.8431,2.851,2.851,2.851,2.8414,2.821,2.7873,2.75,2.7079,2.6749,2.6298,2.5805,2.5845,2.5629,2.5312,2.5312,2.5312,2.5312,2.5312,2.5312,2.5347,2.5734,2.5873,2.5908,2.6242,2.6346,2.638,2.6633,2.653,2.638,2.6633,2.6289,2.5873,2.5873,2.5594,2.5382,2.5769,2.5594,2.5312,2.5312,2.5312,2.5312,2.5312,2.5312,2.5418,2.5804,2.5558,2.5406,2.5804,2.5558,2.5312,2.5312,2.5312,2.524,2.5035,2.518,2.5228,2.5023,2.5192,2.5312,2.5312,2.5312,2.5241,2.5111,2.4921,2.4718,2.4574,2.4043,2.3629,2.3372,2.3113,2.3001,2.3001,2.3001,2.3001,2.3001,2.3001,2.3001,2.3001,2.3001,2.3001,2.3001,2.3001,2.3001,2.3001,2.3001,2.3001,2.3001,2.3001,2.3001,2.3001,2.851,2.851,2.851,2.851,2.851,2.851,2.851,2.851,2.851,2.851,2.851,2.851,2.851,2.851,2.851,2.851,2.8657,2.8776,2.8776,2.8961,2.8895,2.851,2.8657,2.8776,2.8776,2.8961,2.9079,2.9079,2.9079,2.9079,2.9067,2.8699,2.8441,2.8244,2.7865,2.7329,2.6684,2.6702,2.63,2.5594,2.5594,2.5488,2.5312,2.5312,2.5418,2.5629,2.606,2.6302,2.6496,2.6871,2.7007,2.704,2.7209,2.7242,2.7242,2.7242,2.6871,2.653,2.6871,2.6414,2.5861,2.5908,2.5873,2.5791,2.5629,2.5687,2.5826,2.5826,2.5826,2.5965,2.6358,2.6104,2.5978,2.6393,2.6104,2.5756,2.5629,2.5594,2.5523,2.5312,2.5488,2.5594,2.5594,2.5594,2.5594,2.5594,2.5418,2.5312,2.5312,2.5087,2.4957,2.4957,2.4598,2.4273,2.397,2.3446,2.3187,2.3187,2.3075,2.3001,2.3001,2.3001,2.3001,2.3001,2.3001,2.3001,2.3001,2.3001,2.3001,2.3001,2.3001,2.3001,2.3001,2.3001,2.3001,2.3001,2.851,2.851,2.851,2.851,2.851,2.851,2.851,2.851,2.851,2.851,2.851,2.851,2.851,2.851,2.851,2.851,2.9079,2.9419,2.9419,2.9986,2.9755,2.859,2.9079,2.9419,2.9419,2.9973,3.0279,3.0279,3.0279,3.0279,3.0279,3.0279,3.0022,2.9497,2.9521,2.8892,2.7923,2.791,2.7243,2.6198,2.6198,2.5838,2.5312,2.5312,2.5699,2.6198,2.6198,2.6564,2.7007,2.7007,2.7007,2.7108,2.7643,2.7809,2.7809,2.7822,2.7443,2.7242,2.8281,2.7809,2.6722,2.5581,2.6173,2.6871,2.6336,2.6633,2.7007,2.7007,2.7007,2.7007,2.7007,2.7007,2.7007,2.7007,2.7007,2.6803,2.6289,2.6198,2.5978,2.537,2.5838,2.6198,2.6198,2.6198,2.6198,2.6198,2.5664,2.5312,2.5312,2.5312,2.5312,2.5312,2.4992,2.4837,2.4837,2.4007,2.3593,2.3593,2.3187,2.3001,2.3001,2.3001,2.3001,2.3001,2.3001,2.3001,2.3001,2.3001,2.3001,2.3001,2.3001,2.3001,2.3001,2.3001,2.3001,2.3001,2.851,2.851,2.851,2.851,2.851,2.851,2.851,2.851,2.851,2.851,2.8882,2.9118,2.9118,2.9535,2.9755,2.9755,2.9947,3.0024,3.0024,3.0203,3.0126,2.9793,2.9947,3.0024,3.0024,3.0203,3.0279,3.0279,3.0279,3.0279,3.0279,3.0279,3.0227,3.0061,3.0121,2.972,2.9006,2.863,2.8062,2.7351,2.6922,2.6654,2.6483,2.6483,2.6586,2.6803,2.7175,2.7443,2.761,2.7987,2.8118,2.8151,2.8314,2.8118,2.7888,2.8249,2.7987,2.7643,2.7954,2.8085,2.7941,2.7229,2.7027,2.6973,2.6803,2.6905,2.7007,2.7007,2.7007,2.7108,2.7477,2.7242,2.7142,2.751,2.7242,2.6939,2.6769,2.6769,2.6701,2.6517,2.6654,2.6769,2.6769,2.6769,2.6769,2.6769,2.6255,2.5943,2.5943,2.5943,2.5943,2.5943,2.6186,2.6324,2.6324,2.4778,2.4007,2.4007,2.3897,2.3824,2.3824,2.3556,2.3409,2.3409,2.3113,2.3001,2.3001,2.3001,2.3001,2.3001,2.3001,2.3001,2.3001,2.3001,2.3001,2.3001,2.9223,2.9223,2.9223,2.9223,2.9223,2.9223,2.9223,2.9223,2.9223,2.9223,2.9523,2.9755,2.9755,3.0088,3.0279,3.0279,3.0507,3.0771,3.1009,3.106,3.106,3.106,3.106,3.0934,3.0658,3.0897,3.106,3.106,3.106,3.106,3.106,3.106,3.106,3.1046,3.1086,3.0794,3.0191,2.9861,2.9138,2.8183,2.7811,2.7403,2.7007,2.7007,2.7142,2.7343,2.7676,2.7954,2.8151,2.849,2.8587,2.8587,2.8587,2.8392,2.8183,2.849,2.836,2.8118,2.8118,2.836,2.8522,2.8183,2.7888,2.7577,2.7377,2.7477,2.7643,2.7643,2.7643,2.7743,2.8052,2.7842,2.7743,2.8052,2.7842,2.7543,2.7343,2.731,2.7242,2.704,2.7175,2.731,2.731,2.731,2.7242,2.7007,2.6701,2.653,2.653,2.653,2.653,2.653,2.6837,2.7007,2.7007,2.5861,2.5135,2.4743,2.437,2.42,2.42,2.3934,2.3824,2.3824,2.3593,2.3372,2.3224,2.3224,2.315,2.3001,2.3001,2.3001,2.3001,2.3001,2.3001,2.3001,3.0279,3.0279,3.0279,3.0279,3.0279,3.0279,3.0279,3.0279,3.0279,3.0279,3.0355,3.0393,3.0393,3.0431,3.0482,3.0482,3.0959,3.1542,3.2169,3.2218,3.2218,3.2218,3.2218,3.19,3.1307,3.19,3.2218,3.2218,3.2218,3.2218,3.2218,3.2218,3.2218,3.2218,3.2218,3.187,3.1368,3.1314,3.0331,2.8849,2.8796,2.8121,2.7142,2.7142,2.7443,2.7888,2.7888,2.8183,2.8587,2.8587,2.8587,2.8587,2.8587,2.8587,2.8587,2.8587,2.8587,2.8587,2.8587,2.8587,2.8587,2.8587,2.8587,2.8457,2.7987,2.8249,2.8587,2.8587,2.8587,2.8587,2.8587,2.8587,2.8587,2.8587,2.8587,2.8425,2.7954,2.7888,2.7676,2.7209,2.7577,2.7888,2.7888,2.7888,2.7676,2.7175,2.7108,2.7074,2.7074,2.7074,2.7074,2.7074,2.7108,2.7142,2.7142,2.7108,2.662,2.5697,2.4814,2.437,2.437,2.4334,2.4334,2.4334,2.4298,2.408,2.374,2.3666,2.3409,2.3038,2.3038,2.3038,2.3038,2.3038,2.3075,2.3113,3.0279,3.0279,3.0279,3.0279,3.0279,3.0279,3.0279,3.0279,3.0279,3.0279,3.0696,3.0996,3.0996,3.1468,3.179,3.179,3.19,3.2046,3.2182,3.2218,3.2218,3.2218,3.2218,3.2132,3.1986,3.2132,3.2218,3.2218,3.2218,3.2218,3.2218,3.2218,3.2218,3.2218,3.2218,3.2151,3.1951,3.149,3.0796,2.999,2.9538,2.8918,2.8249,2.8249,2.8327,2.8425,2.8425,2.849,2.8587,2.8587,2.8587,2.8587,2.8587,2.8587,2.8587,2.8587,2.8587,2.8587,2.8587,2.8587,2.8587,2.8587,2.8587,2.8554,2.8457,2.8522,2.8587,2.8587,2.8587,2.8587,2.8587,2.8587,2.8587,2.8587,2.8587,2.8554,2.8457,2.8425,2.8392,2.8249,2.836,2.8425,2.8425,2.8425,2.8392,2.8249,2.7842,2.7643,2.7643,2.7643,2.7643,2.7643,2.802,2.8249,2.8249,2.7855,2.731,2.6688,2.6047,2.5781,2.5769,2.5441,2.5288,2.5288,2.4945,2.4767,2.4659,2.425,2.3824,2.3482,2.3482,2.3482,2.3482,2.3482,2.3666,2.3934,3.1209,3.1209,3.1209,3.1209,3.1209,3.1209,3.1209,3.1209,3.1209,3.1209,3.1468,3.1666,3.1666,3.1986,3.2218,3.2218,3.2218,3.2218,3.2218,3.2218,3.2218,3.2218,3.2218,3.2218,3.2218,3.2218,3.2218,3.2218,3.2218,3.2218,3.2218,3.2218,3.2218,3.2218,3.2218,3.2218,3.2191,3.1843,3.1368,3.0785,3.0161,2.9564,2.898,2.8695,2.8587,2.8587,2.8587,2.8587,2.8587,2.8587,2.8587,2.8587,2.8587,2.8587,2.8587,2.8587,2.8587,2.8587,2.8587,2.8587,2.8587,2.8587,2.8587,2.8587,2.8587,2.8587,2.8587,2.8587,2.8587,2.8587,2.8587,2.8587,2.8587,2.8587,2.8587,2.8587,2.8587,2.8587,2.8587,2.8587,2.8587,2.8587,2.8587,2.8587,2.8587,2.8587,2.836,2.8183,2.8183,2.8183,2.8183,2.8183,2.8457,2.8587,2.8587,2.8314,2.8052,2.7743,2.6973,2.6564,2.6564,2.6368,2.6264,2.6264,2.6057,2.5849,2.5662,2.5381,2.4862,2.4274,2.4274,2.4093,2.3897,2.3897,2.4007,2.42,3.2218,3.2218,3.2218,3.2218,3.2218,3.2218,3.2218,3.2218,3.2218,3.2218,3.2218,3.2218,3.2218,3.2218,3.2218,3.2218,3.2218,3.2218,3.2218,3.2218,3.2218,3.2218,3.2218,3.2218,3.2218,3.2218,3.2218,3.2218,3.2218,3.2218,3.2218,3.2218,3.2218,3.2218,3.2218,3.2218,3.2218,3.2218,3.1829,3.126,3.0758,3.012,2.9461,2.8926,2.8682,2.8587,2.8587,2.8587,2.8587,2.8587,2.8587,2.8587,2.8587,2.8587,2.8587,2.8587,2.8587,2.8587,2.8587,2.8587,2.8587,2.8587,2.8587,2.8587,2.8587,2.8587,2.8587,2.8587,2.8587,2.8587,2.8587,2.8587,2.8587,2.8587,2.8587,2.8587,2.8587,2.8587,2.8587,2.8587,2.8587,2.8587,2.8587,2.8587,2.8587,2.8587,2.8587,2.8587,2.8587,2.8587,2.8587,2.8587,2.8587,2.8587,2.8587,2.8587,2.8587,2.8587,2.7709,2.7242,2.7142,2.7142,2.7142,2.7142,2.7142,2.696,2.6616,2.6548,2.5998,2.524,2.524,2.4981,2.4575,2.4539,2.4478,2.4406,3.2218,3.2218,3.2218,3.2218,3.2218,3.2218,3.2218,3.2218,3.2218,3.2218,3.2218,3.2218,3.2218,3.2218,3.2218,3.2218,3.2218,3.2218,3.2218,3.2218,3.2218,3.2218,3.2218,3.2218,3.2218,3.2218,3.2218,3.2218,3.2218,3.2218,3.2218,3.2218,3.2218,3.2218,3.2218,3.2218,3.2218,3.2218,3.1829,3.1287,3.1205,3.0486,2.9502,2.942,2.9034,2.8587,2.8587,2.8587,2.8587,2.8587,2.8587,2.8587,2.8587,2.8587,2.8587,2.8587,2.8587,2.8587,2.8587,2.8587,2.8587,2.8587,2.8587,2.8587,2.8587,2.8587,2.8587,2.8587,2.8587,2.8587,2.8587,2.8587,2.8587,2.8587,2.8587,2.8587,2.8587,2.8587,2.8587,2.8587,2.8587,2.8587,2.8587,2.8587,2.8587,2.8587,2.8587,2.8587,2.8587,2.8587,2.8587,2.8587,2.8587,2.8587,2.8587,2.8587,2.8587,2.8587,2.8457,2.8151,2.7676,2.7676,2.7676,2.7676,2.7676,2.7643,2.7564,2.7095,2.6629,2.6193,2.6193,2.6171,2.6102,2.5965,2.5594,2.5241,3.2218,3.2218,3.2218,3.2218,3.2218,3.2218,3.2218,3.2218,3.2218,3.2218,3.2218,3.2218,3.2218,3.2218,3.2218,3.2218,3.2218,3.2218,3.2218,3.2218,3.2218,3.2218,3.2218,3.2218,3.2218,3.2218,3.2218,3.2218,3.2218,3.2218,3.2218,3.2218,3.2218,3.2218,3.2218,3.2218,3.2218,3.2218,3.2069,3.1762,3.1436,3.0975,3.0418,2.9774,2.9339,2.9048,2.8709,2.8587,2.8587,2.8587,2.8587,2.8587,2.8587,2.8587,2.8587,2.8587,2.8587,2.8587,2.8587,2.8587,2.8587,2.8587,2.8587,2.8587,2.8587,2.8587,2.8587,2.8587,2.8587,2.8587,2.8587,2.8587,2.8587,2.8587,2.8587,2.8587,2.8587,2.8587,2.8587,2.8587,2.8587,2.8587,2.8587,2.8587,2.8587,2.8587,2.8587,2.8587,2.8587,2.8587,2.8587,2.8587,2.8587,2.8587,2.8587,2.8587,2.8587,2.8587,2.8587,2.849,2.8249,2.8249,2.8249,2.8249,2.8249,2.8249,2.8229,2.7987,2.7597,2.7183,2.7183,2.7015,2.6744,2.6667,2.6496,2.6277]}]]